<?xml version="1.0" encoding="UTF-8" standalone="no" ?>
<gpx xmlns="http://www.topografix.com/GPX/1/1" xmlns:xsi="http://www.w3.org/2001/XMLSchema-instance" xsi:schemaLocation="http://www.topografix.com/GPX/1/1 http://www.topografix.com/GPX/1/1/gpx.xsd" version="1.1" creator="VisuGPX - https://www.visugpx.com">
  <metadata>
    <name>randonnée VTT forêt de haye 30/06/2013</name>
    <desc><![CDATA[randonnée VTT du 30/06/13]]></desc>
  </metadata>
  <trk>
    <name><![CDATA[30 juin 2013]]></name>
    <trkseg>
      <trkpt lat="48.68577" lon="6.1595">
        <ele>231</ele>
        <time>2013-06-30T09:44:02Z</time>
      </trkpt>
      <trkpt lat="48.68578" lon="6.1595">
        <ele>231</ele>
        <time>2013-06-30T09:44:03Z</time>
      </trkpt>
      <trkpt lat="48.68582" lon="6.15947">
        <ele>231</ele>
        <time>2013-06-30T09:44:09Z</time>
      </trkpt>
      <trkpt lat="48.68598" lon="6.15942">
        <ele>236</ele>
        <time>2013-06-30T09:44:13Z</time>
      </trkpt>
      <trkpt lat="48.68607" lon="6.15933">
        <ele>261</ele>
        <time>2013-06-30T09:44:23Z</time>
      </trkpt>
      <trkpt lat="48.68611" lon="6.15921">
        <ele>263</ele>
        <time>2013-06-30T09:44:27Z</time>
      </trkpt>
      <trkpt lat="48.6861" lon="6.15911">
        <ele>261</ele>
        <time>2013-06-30T09:44:29Z</time>
      </trkpt>
      <trkpt lat="48.6861" lon="6.159">
        <ele>261</ele>
        <time>2013-06-30T09:44:31Z</time>
      </trkpt>
      <trkpt lat="48.68608" lon="6.15889">
        <ele>259</ele>
        <time>2013-06-30T09:44:33Z</time>
      </trkpt>
      <trkpt lat="48.68605" lon="6.15877">
        <ele>260</ele>
        <time>2013-06-30T09:44:35Z</time>
      </trkpt>
      <trkpt lat="48.68603" lon="6.15867">
        <ele>260</ele>
        <time>2013-06-30T09:44:37Z</time>
      </trkpt>
      <trkpt lat="48.68601" lon="6.15857">
        <ele>260</ele>
        <time>2013-06-30T09:44:39Z</time>
      </trkpt>
      <trkpt lat="48.68597" lon="6.15848">
        <ele>263</ele>
        <time>2013-06-30T09:44:41Z</time>
      </trkpt>
      <trkpt lat="48.68594" lon="6.15837">
        <ele>260</ele>
        <time>2013-06-30T09:44:43Z</time>
      </trkpt>
      <trkpt lat="48.68591" lon="6.15826">
        <ele>255</ele>
        <time>2013-06-30T09:44:45Z</time>
      </trkpt>
      <trkpt lat="48.68587" lon="6.15815">
        <ele>252</ele>
        <time>2013-06-30T09:44:47Z</time>
      </trkpt>
      <trkpt lat="48.68582" lon="6.15806">
        <ele>252</ele>
        <time>2013-06-30T09:44:49Z</time>
      </trkpt>
      <trkpt lat="48.68578" lon="6.15796">
        <ele>252</ele>
        <time>2013-06-30T09:44:51Z</time>
      </trkpt>
      <trkpt lat="48.68574" lon="6.15784">
        <ele>250</ele>
        <time>2013-06-30T09:44:53Z</time>
      </trkpt>
      <trkpt lat="48.68572" lon="6.1577">
        <ele>249</ele>
        <time>2013-06-30T09:44:55Z</time>
      </trkpt>
      <trkpt lat="48.68568" lon="6.15758">
        <ele>247</ele>
        <time>2013-06-30T09:44:57Z</time>
      </trkpt>
      <trkpt lat="48.68566" lon="6.15748">
        <ele>248</ele>
        <time>2013-06-30T09:44:59Z</time>
      </trkpt>
      <trkpt lat="48.68563" lon="6.15736">
        <ele>246</ele>
        <time>2013-06-30T09:45:01Z</time>
      </trkpt>
      <trkpt lat="48.6856" lon="6.15726">
        <ele>244</ele>
        <time>2013-06-30T09:45:03Z</time>
      </trkpt>
      <trkpt lat="48.68558" lon="6.15716">
        <ele>249</ele>
        <time>2013-06-30T09:45:05Z</time>
      </trkpt>
      <trkpt lat="48.68556" lon="6.15707">
        <ele>248</ele>
        <time>2013-06-30T09:45:07Z</time>
      </trkpt>
      <trkpt lat="48.68553" lon="6.15698">
        <ele>249</ele>
        <time>2013-06-30T09:45:09Z</time>
      </trkpt>
      <trkpt lat="48.68551" lon="6.15689">
        <ele>249</ele>
        <time>2013-06-30T09:45:11Z</time>
      </trkpt>
      <trkpt lat="48.68549" lon="6.1568">
        <ele>249</ele>
        <time>2013-06-30T09:45:13Z</time>
      </trkpt>
      <trkpt lat="48.68546" lon="6.15671">
        <ele>245</ele>
        <time>2013-06-30T09:45:15Z</time>
      </trkpt>
      <trkpt lat="48.68544" lon="6.15662">
        <ele>245</ele>
        <time>2013-06-30T09:45:17Z</time>
      </trkpt>
      <trkpt lat="48.68543" lon="6.15652">
        <ele>249</ele>
        <time>2013-06-30T09:45:19Z</time>
      </trkpt>
      <trkpt lat="48.68541" lon="6.15643">
        <ele>252</ele>
        <time>2013-06-30T09:45:21Z</time>
      </trkpt>
      <trkpt lat="48.68538" lon="6.15635">
        <ele>250</ele>
        <time>2013-06-30T09:45:23Z</time>
      </trkpt>
      <trkpt lat="48.68536" lon="6.15625">
        <ele>247</ele>
        <time>2013-06-30T09:45:25Z</time>
      </trkpt>
      <trkpt lat="48.68533" lon="6.15615">
        <ele>246</ele>
        <time>2013-06-30T09:45:27Z</time>
      </trkpt>
      <trkpt lat="48.68531" lon="6.15605">
        <ele>241</ele>
        <time>2013-06-30T09:45:29Z</time>
      </trkpt>
      <trkpt lat="48.6853" lon="6.156">
        <ele>243</ele>
        <time>2013-06-30T09:45:30Z</time>
      </trkpt>
      <trkpt lat="48.68528" lon="6.15595">
        <ele>245</ele>
        <time>2013-06-30T09:45:31Z</time>
      </trkpt>
      <trkpt lat="48.68522" lon="6.15585">
        <ele>247</ele>
        <time>2013-06-30T09:45:33Z</time>
      </trkpt>
      <trkpt lat="48.68518" lon="6.15576">
        <ele>248</ele>
        <time>2013-06-30T09:45:35Z</time>
      </trkpt>
      <trkpt lat="48.68513" lon="6.15565">
        <ele>247</ele>
        <time>2013-06-30T09:45:37Z</time>
      </trkpt>
      <trkpt lat="48.68509" lon="6.15554">
        <ele>244</ele>
        <time>2013-06-30T09:45:39Z</time>
      </trkpt>
      <trkpt lat="48.68504" lon="6.15542">
        <ele>242</ele>
        <time>2013-06-30T09:45:41Z</time>
      </trkpt>
      <trkpt lat="48.68499" lon="6.15531">
        <ele>237</ele>
        <time>2013-06-30T09:45:43Z</time>
      </trkpt>
      <trkpt lat="48.68496" lon="6.15517">
        <ele>236</ele>
        <time>2013-06-30T09:45:45Z</time>
      </trkpt>
      <trkpt lat="48.68492" lon="6.15502">
        <ele>237</ele>
        <time>2013-06-30T09:45:47Z</time>
      </trkpt>
      <trkpt lat="48.68488" lon="6.15488">
        <ele>241</ele>
        <time>2013-06-30T09:45:49Z</time>
      </trkpt>
      <trkpt lat="48.68485" lon="6.15478">
        <ele>245</ele>
        <time>2013-06-30T09:45:51Z</time>
      </trkpt>
      <trkpt lat="48.6848" lon="6.15466">
        <ele>245</ele>
        <time>2013-06-30T09:45:53Z</time>
      </trkpt>
      <trkpt lat="48.68475" lon="6.15453">
        <ele>242</ele>
        <time>2013-06-30T09:45:55Z</time>
      </trkpt>
      <trkpt lat="48.68472" lon="6.15444">
        <ele>243</ele>
        <time>2013-06-30T09:45:57Z</time>
      </trkpt>
      <trkpt lat="48.68471" lon="6.15433">
        <ele>238</ele>
        <time>2013-06-30T09:45:59Z</time>
      </trkpt>
      <trkpt lat="48.68469" lon="6.15423">
        <ele>240</ele>
        <time>2013-06-30T09:46:01Z</time>
      </trkpt>
      <trkpt lat="48.68468" lon="6.15414">
        <ele>241</ele>
        <time>2013-06-30T09:46:03Z</time>
      </trkpt>
      <trkpt lat="48.68468" lon="6.15406">
        <ele>241</ele>
        <time>2013-06-30T09:46:05Z</time>
      </trkpt>
      <trkpt lat="48.68471" lon="6.15395">
        <ele>244</ele>
        <time>2013-06-30T09:46:07Z</time>
      </trkpt>
      <trkpt lat="48.68471" lon="6.15383">
        <ele>243</ele>
        <time>2013-06-30T09:46:09Z</time>
      </trkpt>
      <trkpt lat="48.6847" lon="6.15373">
        <ele>242</ele>
        <time>2013-06-30T09:46:11Z</time>
      </trkpt>
      <trkpt lat="48.68467" lon="6.15364">
        <ele>241</ele>
        <time>2013-06-30T09:46:13Z</time>
      </trkpt>
      <trkpt lat="48.68463" lon="6.15352">
        <ele>241</ele>
        <time>2013-06-30T09:46:15Z</time>
      </trkpt>
      <trkpt lat="48.68461" lon="6.15342">
        <ele>241</ele>
        <time>2013-06-30T09:46:17Z</time>
      </trkpt>
      <trkpt lat="48.68459" lon="6.15332">
        <ele>241</ele>
        <time>2013-06-30T09:46:19Z</time>
      </trkpt>
      <trkpt lat="48.68457" lon="6.15321">
        <ele>241</ele>
        <time>2013-06-30T09:46:21Z</time>
      </trkpt>
      <trkpt lat="48.68455" lon="6.15308">
        <ele>234</ele>
        <time>2013-06-30T09:46:23Z</time>
      </trkpt>
      <trkpt lat="48.68453" lon="6.15296">
        <ele>234</ele>
        <time>2013-06-30T09:46:25Z</time>
      </trkpt>
      <trkpt lat="48.68449" lon="6.15286">
        <ele>234</ele>
        <time>2013-06-30T09:46:27Z</time>
      </trkpt>
      <trkpt lat="48.68448" lon="6.15276">
        <ele>234</ele>
        <time>2013-06-30T09:46:29Z</time>
      </trkpt>
      <trkpt lat="48.68444" lon="6.15264">
        <ele>234</ele>
        <time>2013-06-30T09:46:31Z</time>
      </trkpt>
      <trkpt lat="48.68441" lon="6.15252">
        <ele>235</ele>
        <time>2013-06-30T09:46:33Z</time>
      </trkpt>
      <trkpt lat="48.68438" lon="6.15242">
        <ele>237</ele>
        <time>2013-06-30T09:46:35Z</time>
      </trkpt>
      <trkpt lat="48.68435" lon="6.15232">
        <ele>237</ele>
        <time>2013-06-30T09:46:37Z</time>
      </trkpt>
      <trkpt lat="48.68433" lon="6.15222">
        <ele>239</ele>
        <time>2013-06-30T09:46:39Z</time>
      </trkpt>
      <trkpt lat="48.6843" lon="6.15213">
        <ele>240</ele>
        <time>2013-06-30T09:46:41Z</time>
      </trkpt>
      <trkpt lat="48.68428" lon="6.15202">
        <ele>245</ele>
        <time>2013-06-30T09:46:43Z</time>
      </trkpt>
      <trkpt lat="48.68426" lon="6.15192">
        <ele>244</ele>
        <time>2013-06-30T09:46:45Z</time>
      </trkpt>
      <trkpt lat="48.68425" lon="6.15183">
        <ele>243</ele>
        <time>2013-06-30T09:46:47Z</time>
      </trkpt>
      <trkpt lat="48.68423" lon="6.15172">
        <ele>242</ele>
        <time>2013-06-30T09:46:49Z</time>
      </trkpt>
      <trkpt lat="48.68419" lon="6.15166">
        <ele>245</ele>
        <time>2013-06-30T09:46:51Z</time>
      </trkpt>
      <trkpt lat="48.68415" lon="6.15158">
        <ele>245</ele>
        <time>2013-06-30T09:46:53Z</time>
      </trkpt>
      <trkpt lat="48.68412" lon="6.15146">
        <ele>240</ele>
        <time>2013-06-30T09:46:55Z</time>
      </trkpt>
      <trkpt lat="48.68409" lon="6.15134">
        <ele>236</ele>
        <time>2013-06-30T09:46:57Z</time>
      </trkpt>
      <trkpt lat="48.68407" lon="6.15125">
        <ele>237</ele>
        <time>2013-06-30T09:46:59Z</time>
      </trkpt>
      <trkpt lat="48.68406" lon="6.15116">
        <ele>238</ele>
        <time>2013-06-30T09:47:01Z</time>
      </trkpt>
      <trkpt lat="48.68405" lon="6.15108">
        <ele>239</ele>
        <time>2013-06-30T09:47:03Z</time>
      </trkpt>
      <trkpt lat="48.68404" lon="6.151">
        <ele>240</ele>
        <time>2013-06-30T09:47:05Z</time>
      </trkpt>
      <trkpt lat="48.68401" lon="6.15092">
        <ele>239</ele>
        <time>2013-06-30T09:47:07Z</time>
      </trkpt>
      <trkpt lat="48.68399" lon="6.15085">
        <ele>241</ele>
        <time>2013-06-30T09:47:09Z</time>
      </trkpt>
      <trkpt lat="48.68397" lon="6.15079">
        <ele>242</ele>
        <time>2013-06-30T09:47:11Z</time>
      </trkpt>
      <trkpt lat="48.68393" lon="6.15072">
        <ele>240</ele>
        <time>2013-06-30T09:47:13Z</time>
      </trkpt>
      <trkpt lat="48.6839" lon="6.15064">
        <ele>239</ele>
        <time>2013-06-30T09:47:15Z</time>
      </trkpt>
      <trkpt lat="48.68387" lon="6.15057">
        <ele>237</ele>
        <time>2013-06-30T09:47:17Z</time>
      </trkpt>
      <trkpt lat="48.68383" lon="6.15052">
        <ele>236</ele>
        <time>2013-06-30T09:47:19Z</time>
      </trkpt>
      <trkpt lat="48.6838" lon="6.1505">
        <ele>236</ele>
        <time>2013-06-30T09:47:21Z</time>
      </trkpt>
      <trkpt lat="48.68378" lon="6.15047">
        <ele>235</ele>
        <time>2013-06-30T09:47:23Z</time>
      </trkpt>
      <trkpt lat="48.68378" lon="6.15045">
        <ele>236</ele>
        <time>2013-06-30T09:47:25Z</time>
      </trkpt>
      <trkpt lat="48.68378" lon="6.15042">
        <ele>234</ele>
        <time>2013-06-30T09:47:27Z</time>
      </trkpt>
      <trkpt lat="48.68377" lon="6.1504">
        <ele>233</ele>
        <time>2013-06-30T09:47:29Z</time>
      </trkpt>
      <trkpt lat="48.68376" lon="6.15039">
        <ele>231</ele>
        <time>2013-06-30T09:47:31Z</time>
      </trkpt>
      <trkpt lat="48.68375" lon="6.15038">
        <ele>232</ele>
        <time>2013-06-30T09:47:32Z</time>
      </trkpt>
      <trkpt lat="48.68375" lon="6.15037">
        <ele>232</ele>
        <time>2013-06-30T09:47:33Z</time>
      </trkpt>
      <trkpt lat="48.68375" lon="6.15036">
        <ele>234</ele>
        <time>2013-06-30T09:47:35Z</time>
      </trkpt>
      <trkpt lat="48.68375" lon="6.15034">
        <ele>237</ele>
        <time>2013-06-30T09:47:37Z</time>
      </trkpt>
      <trkpt lat="48.68375" lon="6.15032">
        <ele>236</ele>
        <time>2013-06-30T09:47:39Z</time>
      </trkpt>
      <trkpt lat="48.68374" lon="6.1503">
        <ele>234</ele>
        <time>2013-06-30T09:47:41Z</time>
      </trkpt>
      <trkpt lat="48.68373" lon="6.15026">
        <ele>234</ele>
        <time>2013-06-30T09:47:43Z</time>
      </trkpt>
      <trkpt lat="48.6837" lon="6.15024">
        <ele>233</ele>
        <time>2013-06-30T09:47:45Z</time>
      </trkpt>
      <trkpt lat="48.68367" lon="6.15021">
        <ele>233</ele>
        <time>2013-06-30T09:47:47Z</time>
      </trkpt>
      <trkpt lat="48.68364" lon="6.15017">
        <ele>234</ele>
        <time>2013-06-30T09:47:49Z</time>
      </trkpt>
      <trkpt lat="48.6836" lon="6.15013">
        <ele>230</ele>
        <time>2013-06-30T09:47:51Z</time>
      </trkpt>
      <trkpt lat="48.68357" lon="6.15008">
        <ele>229</ele>
        <time>2013-06-30T09:47:53Z</time>
      </trkpt>
      <trkpt lat="48.68353" lon="6.15002">
        <ele>231</ele>
        <time>2013-06-30T09:47:55Z</time>
      </trkpt>
      <trkpt lat="48.6835" lon="6.14997">
        <ele>233</ele>
        <time>2013-06-30T09:47:57Z</time>
      </trkpt>
      <trkpt lat="48.68347" lon="6.14991">
        <ele>235</ele>
        <time>2013-06-30T09:47:59Z</time>
      </trkpt>
      <trkpt lat="48.68343" lon="6.14985">
        <ele>237</ele>
        <time>2013-06-30T09:48:01Z</time>
      </trkpt>
      <trkpt lat="48.6834" lon="6.1498">
        <ele>240</ele>
        <time>2013-06-30T09:48:03Z</time>
      </trkpt>
      <trkpt lat="48.68338" lon="6.14975">
        <ele>245</ele>
        <time>2013-06-30T09:48:05Z</time>
      </trkpt>
      <trkpt lat="48.68335" lon="6.14969">
        <ele>246</ele>
        <time>2013-06-30T09:48:07Z</time>
      </trkpt>
      <trkpt lat="48.6833" lon="6.14965">
        <ele>245</ele>
        <time>2013-06-30T09:48:09Z</time>
      </trkpt>
      <trkpt lat="48.68327" lon="6.1496">
        <ele>245</ele>
        <time>2013-06-30T09:48:11Z</time>
      </trkpt>
      <trkpt lat="48.68324" lon="6.14956">
        <ele>248</ele>
        <time>2013-06-30T09:48:13Z</time>
      </trkpt>
      <trkpt lat="48.68321" lon="6.14951">
        <ele>250</ele>
        <time>2013-06-30T09:48:15Z</time>
      </trkpt>
      <trkpt lat="48.68317" lon="6.14946">
        <ele>244</ele>
        <time>2013-06-30T09:48:17Z</time>
      </trkpt>
      <trkpt lat="48.68314" lon="6.14939">
        <ele>242</ele>
        <time>2013-06-30T09:48:19Z</time>
      </trkpt>
      <trkpt lat="48.6831" lon="6.14932">
        <ele>241</ele>
        <time>2013-06-30T09:48:21Z</time>
      </trkpt>
      <trkpt lat="48.68306" lon="6.14926">
        <ele>242</ele>
        <time>2013-06-30T09:48:23Z</time>
      </trkpt>
      <trkpt lat="48.68303" lon="6.1492">
        <ele>244</ele>
        <time>2013-06-30T09:48:25Z</time>
      </trkpt>
      <trkpt lat="48.68299" lon="6.14914">
        <ele>243</ele>
        <time>2013-06-30T09:48:27Z</time>
      </trkpt>
      <trkpt lat="48.68295" lon="6.14907">
        <ele>244</ele>
        <time>2013-06-30T09:48:29Z</time>
      </trkpt>
      <trkpt lat="48.68292" lon="6.14903">
        <ele>245</ele>
        <time>2013-06-30T09:48:31Z</time>
      </trkpt>
      <trkpt lat="48.68288" lon="6.14897">
        <ele>245</ele>
        <time>2013-06-30T09:48:33Z</time>
      </trkpt>
      <trkpt lat="48.68284" lon="6.14893">
        <ele>248</ele>
        <time>2013-06-30T09:48:35Z</time>
      </trkpt>
      <trkpt lat="48.6828" lon="6.14888">
        <ele>246</ele>
        <time>2013-06-30T09:48:37Z</time>
      </trkpt>
      <trkpt lat="48.68276" lon="6.14882">
        <ele>243</ele>
        <time>2013-06-30T09:48:39Z</time>
      </trkpt>
      <trkpt lat="48.68273" lon="6.14875">
        <ele>247</ele>
        <time>2013-06-30T09:48:41Z</time>
      </trkpt>
      <trkpt lat="48.68271" lon="6.14869">
        <ele>248</ele>
        <time>2013-06-30T09:48:43Z</time>
      </trkpt>
      <trkpt lat="48.68268" lon="6.14863">
        <ele>250</ele>
        <time>2013-06-30T09:48:45Z</time>
      </trkpt>
      <trkpt lat="48.68265" lon="6.14856">
        <ele>249</ele>
        <time>2013-06-30T09:48:47Z</time>
      </trkpt>
      <trkpt lat="48.68263" lon="6.14851">
        <ele>250</ele>
        <time>2013-06-30T09:48:49Z</time>
      </trkpt>
      <trkpt lat="48.6826" lon="6.14845">
        <ele>250</ele>
        <time>2013-06-30T09:48:51Z</time>
      </trkpt>
      <trkpt lat="48.68257" lon="6.14841">
        <ele>252</ele>
        <time>2013-06-30T09:48:53Z</time>
      </trkpt>
      <trkpt lat="48.68254" lon="6.14837">
        <ele>252</ele>
        <time>2013-06-30T09:48:55Z</time>
      </trkpt>
      <trkpt lat="48.6825" lon="6.14833">
        <ele>255</ele>
        <time>2013-06-30T09:48:57Z</time>
      </trkpt>
      <trkpt lat="48.68247" lon="6.14829">
        <ele>258</ele>
        <time>2013-06-30T09:48:59Z</time>
      </trkpt>
      <trkpt lat="48.68243" lon="6.14825">
        <ele>260</ele>
        <time>2013-06-30T09:49:01Z</time>
      </trkpt>
      <trkpt lat="48.68238" lon="6.14821">
        <ele>253</ele>
        <time>2013-06-30T09:49:03Z</time>
      </trkpt>
      <trkpt lat="48.68234" lon="6.14816">
        <ele>253</ele>
        <time>2013-06-30T09:49:05Z</time>
      </trkpt>
      <trkpt lat="48.6823" lon="6.1481">
        <ele>250</ele>
        <time>2013-06-30T09:49:07Z</time>
      </trkpt>
      <trkpt lat="48.68227" lon="6.14804">
        <ele>250</ele>
        <time>2013-06-30T09:49:09Z</time>
      </trkpt>
      <trkpt lat="48.68225" lon="6.148">
        <ele>252</ele>
        <time>2013-06-30T09:49:11Z</time>
      </trkpt>
      <trkpt lat="48.68222" lon="6.14795">
        <ele>253</ele>
        <time>2013-06-30T09:49:13Z</time>
      </trkpt>
      <trkpt lat="48.68219" lon="6.14789">
        <ele>250</ele>
        <time>2013-06-30T09:49:15Z</time>
      </trkpt>
      <trkpt lat="48.68215" lon="6.14782">
        <ele>247</ele>
        <time>2013-06-30T09:49:17Z</time>
      </trkpt>
      <trkpt lat="48.68211" lon="6.14776">
        <ele>246</ele>
        <time>2013-06-30T09:49:19Z</time>
      </trkpt>
      <trkpt lat="48.68207" lon="6.1477">
        <ele>245</ele>
        <time>2013-06-30T09:49:21Z</time>
      </trkpt>
      <trkpt lat="48.68203" lon="6.14764">
        <ele>245</ele>
        <time>2013-06-30T09:49:23Z</time>
      </trkpt>
      <trkpt lat="48.68199" lon="6.14758">
        <ele>244</ele>
        <time>2013-06-30T09:49:25Z</time>
      </trkpt>
      <trkpt lat="48.68196" lon="6.14753">
        <ele>245</ele>
        <time>2013-06-30T09:49:27Z</time>
      </trkpt>
      <trkpt lat="48.68193" lon="6.14749">
        <ele>246</ele>
        <time>2013-06-30T09:49:29Z</time>
      </trkpt>
      <trkpt lat="48.68189" lon="6.14744">
        <ele>244</ele>
        <time>2013-06-30T09:49:31Z</time>
      </trkpt>
      <trkpt lat="48.68186" lon="6.14738">
        <ele>245</ele>
        <time>2013-06-30T09:49:33Z</time>
      </trkpt>
      <trkpt lat="48.68183" lon="6.14733">
        <ele>244</ele>
        <time>2013-06-30T09:49:35Z</time>
      </trkpt>
      <trkpt lat="48.68179" lon="6.14727">
        <ele>244</ele>
        <time>2013-06-30T09:49:37Z</time>
      </trkpt>
      <trkpt lat="48.68176" lon="6.14721">
        <ele>245</ele>
        <time>2013-06-30T09:49:39Z</time>
      </trkpt>
      <trkpt lat="48.68173" lon="6.14714">
        <ele>245</ele>
        <time>2013-06-30T09:49:41Z</time>
      </trkpt>
      <trkpt lat="48.68169" lon="6.14706">
        <ele>244</ele>
        <time>2013-06-30T09:49:43Z</time>
      </trkpt>
      <trkpt lat="48.68165" lon="6.14699">
        <ele>243</ele>
        <time>2013-06-30T09:49:45Z</time>
      </trkpt>
      <trkpt lat="48.68161" lon="6.14692">
        <ele>243</ele>
        <time>2013-06-30T09:49:47Z</time>
      </trkpt>
      <trkpt lat="48.68157" lon="6.14685">
        <ele>244</ele>
        <time>2013-06-30T09:49:49Z</time>
      </trkpt>
      <trkpt lat="48.68154" lon="6.14678">
        <ele>244</ele>
        <time>2013-06-30T09:49:51Z</time>
      </trkpt>
      <trkpt lat="48.68152" lon="6.14674">
        <ele>243</ele>
        <time>2013-06-30T09:49:52Z</time>
      </trkpt>
      <trkpt lat="48.6815" lon="6.1467">
        <ele>243</ele>
        <time>2013-06-30T09:49:53Z</time>
      </trkpt>
      <trkpt lat="48.68148" lon="6.14662">
        <ele>245</ele>
        <time>2013-06-30T09:49:55Z</time>
      </trkpt>
      <trkpt lat="48.68144" lon="6.14653">
        <ele>246</ele>
        <time>2013-06-30T09:49:57Z</time>
      </trkpt>
      <trkpt lat="48.68139" lon="6.14646">
        <ele>249</ele>
        <time>2013-06-30T09:49:59Z</time>
      </trkpt>
      <trkpt lat="48.68135" lon="6.14638">
        <ele>250</ele>
        <time>2013-06-30T09:50:01Z</time>
      </trkpt>
      <trkpt lat="48.68131" lon="6.14631">
        <ele>252</ele>
        <time>2013-06-30T09:50:03Z</time>
      </trkpt>
      <trkpt lat="48.68128" lon="6.14624">
        <ele>256</ele>
        <time>2013-06-30T09:50:05Z</time>
      </trkpt>
      <trkpt lat="48.68123" lon="6.14616">
        <ele>253</ele>
        <time>2013-06-30T09:50:07Z</time>
      </trkpt>
      <trkpt lat="48.68119" lon="6.1461">
        <ele>251</ele>
        <time>2013-06-30T09:50:09Z</time>
      </trkpt>
      <trkpt lat="48.68114" lon="6.14602">
        <ele>248</ele>
        <time>2013-06-30T09:50:11Z</time>
      </trkpt>
      <trkpt lat="48.6811" lon="6.14595">
        <ele>249</ele>
        <time>2013-06-30T09:50:13Z</time>
      </trkpt>
      <trkpt lat="48.68107" lon="6.14588">
        <ele>250</ele>
        <time>2013-06-30T09:50:15Z</time>
      </trkpt>
      <trkpt lat="48.68103" lon="6.14581">
        <ele>252</ele>
        <time>2013-06-30T09:50:17Z</time>
      </trkpt>
      <trkpt lat="48.68101" lon="6.14575">
        <ele>252</ele>
        <time>2013-06-30T09:50:19Z</time>
      </trkpt>
      <trkpt lat="48.68098" lon="6.1457">
        <ele>255</ele>
        <time>2013-06-30T09:50:21Z</time>
      </trkpt>
      <trkpt lat="48.68097" lon="6.14565">
        <ele>259</ele>
        <time>2013-06-30T09:50:23Z</time>
      </trkpt>
      <trkpt lat="48.68094" lon="6.1456">
        <ele>261</ele>
        <time>2013-06-30T09:50:25Z</time>
      </trkpt>
      <trkpt lat="48.68092" lon="6.14554">
        <ele>262</ele>
        <time>2013-06-30T09:50:27Z</time>
      </trkpt>
      <trkpt lat="48.68089" lon="6.14547">
        <ele>262</ele>
        <time>2013-06-30T09:50:29Z</time>
      </trkpt>
      <trkpt lat="48.68085" lon="6.1454">
        <ele>260</ele>
        <time>2013-06-30T09:50:31Z</time>
      </trkpt>
      <trkpt lat="48.68082" lon="6.14533">
        <ele>261</ele>
        <time>2013-06-30T09:50:33Z</time>
      </trkpt>
      <trkpt lat="48.68079" lon="6.14526">
        <ele>261</ele>
        <time>2013-06-30T09:50:35Z</time>
      </trkpt>
      <trkpt lat="48.68075" lon="6.14519">
        <ele>261</ele>
        <time>2013-06-30T09:50:37Z</time>
      </trkpt>
      <trkpt lat="48.68073" lon="6.14512">
        <ele>262</ele>
        <time>2013-06-30T09:50:39Z</time>
      </trkpt>
      <trkpt lat="48.68069" lon="6.14505">
        <ele>262</ele>
        <time>2013-06-30T09:50:41Z</time>
      </trkpt>
      <trkpt lat="48.68065" lon="6.14497">
        <ele>258</ele>
        <time>2013-06-30T09:50:43Z</time>
      </trkpt>
      <trkpt lat="48.68061" lon="6.14489">
        <ele>257</ele>
        <time>2013-06-30T09:50:45Z</time>
      </trkpt>
      <trkpt lat="48.68057" lon="6.14483">
        <ele>255</ele>
        <time>2013-06-30T09:50:47Z</time>
      </trkpt>
      <trkpt lat="48.68053" lon="6.14477">
        <ele>256</ele>
        <time>2013-06-30T09:50:49Z</time>
      </trkpt>
      <trkpt lat="48.6805" lon="6.14472">
        <ele>257</ele>
        <time>2013-06-30T09:50:51Z</time>
      </trkpt>
      <trkpt lat="48.68047" lon="6.14465">
        <ele>257</ele>
        <time>2013-06-30T09:50:53Z</time>
      </trkpt>
      <trkpt lat="48.68043" lon="6.14459">
        <ele>259</ele>
        <time>2013-06-30T09:50:55Z</time>
      </trkpt>
      <trkpt lat="48.6804" lon="6.14452">
        <ele>258</ele>
        <time>2013-06-30T09:50:57Z</time>
      </trkpt>
      <trkpt lat="48.68037" lon="6.14446">
        <ele>259</ele>
        <time>2013-06-30T09:50:59Z</time>
      </trkpt>
      <trkpt lat="48.68034" lon="6.14439">
        <ele>259</ele>
        <time>2013-06-30T09:51:01Z</time>
      </trkpt>
      <trkpt lat="48.68031" lon="6.14433">
        <ele>261</ele>
        <time>2013-06-30T09:51:03Z</time>
      </trkpt>
      <trkpt lat="48.68028" lon="6.14428">
        <ele>263</ele>
        <time>2013-06-30T09:51:05Z</time>
      </trkpt>
      <trkpt lat="48.68026" lon="6.14422">
        <ele>265</ele>
        <time>2013-06-30T09:51:07Z</time>
      </trkpt>
      <trkpt lat="48.68022" lon="6.14416">
        <ele>264</ele>
        <time>2013-06-30T09:51:09Z</time>
      </trkpt>
      <trkpt lat="48.68018" lon="6.14409">
        <ele>262</ele>
        <time>2013-06-30T09:51:11Z</time>
      </trkpt>
      <trkpt lat="48.68015" lon="6.14402">
        <ele>264</ele>
        <time>2013-06-30T09:51:13Z</time>
      </trkpt>
      <trkpt lat="48.68012" lon="6.14396">
        <ele>263</ele>
        <time>2013-06-30T09:51:15Z</time>
      </trkpt>
      <trkpt lat="48.68008" lon="6.14389">
        <ele>262</ele>
        <time>2013-06-30T09:51:17Z</time>
      </trkpt>
      <trkpt lat="48.68004" lon="6.14381">
        <ele>259</ele>
        <time>2013-06-30T09:51:19Z</time>
      </trkpt>
      <trkpt lat="48.68" lon="6.14375">
        <ele>260</ele>
        <time>2013-06-30T09:51:21Z</time>
      </trkpt>
      <trkpt lat="48.67997" lon="6.14369">
        <ele>261</ele>
        <time>2013-06-30T09:51:23Z</time>
      </trkpt>
      <trkpt lat="48.67994" lon="6.14363">
        <ele>262</ele>
        <time>2013-06-30T09:51:25Z</time>
      </trkpt>
      <trkpt lat="48.6799" lon="6.14357">
        <ele>262</ele>
        <time>2013-06-30T09:51:27Z</time>
      </trkpt>
      <trkpt lat="48.67986" lon="6.14351">
        <ele>261</ele>
        <time>2013-06-30T09:51:29Z</time>
      </trkpt>
      <trkpt lat="48.67978" lon="6.14336">
        <ele>260</ele>
        <time>2013-06-30T09:51:34Z</time>
      </trkpt>
      <trkpt lat="48.67974" lon="6.14329">
        <ele>259</ele>
        <time>2013-06-30T09:51:36Z</time>
      </trkpt>
      <trkpt lat="48.6797" lon="6.14322">
        <ele>255</ele>
        <time>2013-06-30T09:51:38Z</time>
      </trkpt>
      <trkpt lat="48.67966" lon="6.14314">
        <ele>254</ele>
        <time>2013-06-30T09:51:40Z</time>
      </trkpt>
      <trkpt lat="48.67963" lon="6.14306">
        <ele>253</ele>
        <time>2013-06-30T09:51:42Z</time>
      </trkpt>
      <trkpt lat="48.67959" lon="6.14299">
        <ele>253</ele>
        <time>2013-06-30T09:51:44Z</time>
      </trkpt>
      <trkpt lat="48.67956" lon="6.14292">
        <ele>253</ele>
        <time>2013-06-30T09:51:46Z</time>
      </trkpt>
      <trkpt lat="48.67952" lon="6.14286">
        <ele>254</ele>
        <time>2013-06-30T09:51:48Z</time>
      </trkpt>
      <trkpt lat="48.67949" lon="6.14279">
        <ele>255</ele>
        <time>2013-06-30T09:51:50Z</time>
      </trkpt>
      <trkpt lat="48.67945" lon="6.14272">
        <ele>255</ele>
        <time>2013-06-30T09:51:52Z</time>
      </trkpt>
      <trkpt lat="48.67941" lon="6.14264">
        <ele>252</ele>
        <time>2013-06-30T09:51:54Z</time>
      </trkpt>
      <trkpt lat="48.67937" lon="6.14257">
        <ele>251</ele>
        <time>2013-06-30T09:51:56Z</time>
      </trkpt>
      <trkpt lat="48.67934" lon="6.1425">
        <ele>252</ele>
        <time>2013-06-30T09:51:58Z</time>
      </trkpt>
      <trkpt lat="48.6793" lon="6.14245">
        <ele>253</ele>
        <time>2013-06-30T09:52:00Z</time>
      </trkpt>
      <trkpt lat="48.67926" lon="6.14241">
        <ele>253</ele>
        <time>2013-06-30T09:52:02Z</time>
      </trkpt>
      <trkpt lat="48.67923" lon="6.14236">
        <ele>255</ele>
        <time>2013-06-30T09:52:04Z</time>
      </trkpt>
      <trkpt lat="48.6792" lon="6.1423">
        <ele>255</ele>
        <time>2013-06-30T09:52:06Z</time>
      </trkpt>
      <trkpt lat="48.67916" lon="6.14225">
        <ele>253</ele>
        <time>2013-06-30T09:52:08Z</time>
      </trkpt>
      <trkpt lat="48.67913" lon="6.14219">
        <ele>252</ele>
        <time>2013-06-30T09:52:10Z</time>
      </trkpt>
      <trkpt lat="48.67909" lon="6.14213">
        <ele>251</ele>
        <time>2013-06-30T09:52:12Z</time>
      </trkpt>
      <trkpt lat="48.67906" lon="6.14207">
        <ele>251</ele>
        <time>2013-06-30T09:52:14Z</time>
      </trkpt>
      <trkpt lat="48.67903" lon="6.14201">
        <ele>249</ele>
        <time>2013-06-30T09:52:16Z</time>
      </trkpt>
      <trkpt lat="48.679" lon="6.14195">
        <ele>252</ele>
        <time>2013-06-30T09:52:18Z</time>
      </trkpt>
      <trkpt lat="48.67897" lon="6.14187">
        <ele>252</ele>
        <time>2013-06-30T09:52:20Z</time>
      </trkpt>
      <trkpt lat="48.67897" lon="6.14181">
        <ele>253</ele>
        <time>2013-06-30T09:52:22Z</time>
      </trkpt>
      <trkpt lat="48.67898" lon="6.14174">
        <ele>254</ele>
        <time>2013-06-30T09:52:24Z</time>
      </trkpt>
      <trkpt lat="48.67901" lon="6.14168">
        <ele>254</ele>
        <time>2013-06-30T09:52:26Z</time>
      </trkpt>
      <trkpt lat="48.67904" lon="6.14162">
        <ele>252</ele>
        <time>2013-06-30T09:52:28Z</time>
      </trkpt>
      <trkpt lat="48.67907" lon="6.14156">
        <ele>251</ele>
        <time>2013-06-30T09:52:30Z</time>
      </trkpt>
      <trkpt lat="48.67911" lon="6.1415">
        <ele>252</ele>
        <time>2013-06-30T09:52:32Z</time>
      </trkpt>
      <trkpt lat="48.67914" lon="6.14144">
        <ele>253</ele>
        <time>2013-06-30T09:52:34Z</time>
      </trkpt>
      <trkpt lat="48.67918" lon="6.1414">
        <ele>252</ele>
        <time>2013-06-30T09:52:36Z</time>
      </trkpt>
      <trkpt lat="48.67922" lon="6.1414">
        <ele>249</ele>
        <time>2013-06-30T09:52:38Z</time>
      </trkpt>
      <trkpt lat="48.67934" lon="6.14145">
        <ele>247</ele>
        <time>2013-06-30T09:52:43Z</time>
      </trkpt>
      <trkpt lat="48.6794" lon="6.14148">
        <ele>248</ele>
        <time>2013-06-30T09:52:45Z</time>
      </trkpt>
      <trkpt lat="48.67946" lon="6.14152">
        <ele>248</ele>
        <time>2013-06-30T09:52:47Z</time>
      </trkpt>
      <trkpt lat="48.67953" lon="6.14156">
        <ele>249</ele>
        <time>2013-06-30T09:52:49Z</time>
      </trkpt>
      <trkpt lat="48.67962" lon="6.14157">
        <ele>248</ele>
        <time>2013-06-30T09:52:51Z</time>
      </trkpt>
      <trkpt lat="48.67972" lon="6.14157">
        <ele>247</ele>
        <time>2013-06-30T09:52:53Z</time>
      </trkpt>
      <trkpt lat="48.6798" lon="6.14155">
        <ele>245</ele>
        <time>2013-06-30T09:52:55Z</time>
      </trkpt>
      <trkpt lat="48.67986" lon="6.14154">
        <ele>246</ele>
        <time>2013-06-30T09:52:57Z</time>
      </trkpt>
      <trkpt lat="48.67991" lon="6.14153">
        <ele>246</ele>
        <time>2013-06-30T09:52:59Z</time>
      </trkpt>
      <trkpt lat="48.67996" lon="6.14152">
        <ele>247</ele>
        <time>2013-06-30T09:53:01Z</time>
      </trkpt>
      <trkpt lat="48.68002" lon="6.14152">
        <ele>245</ele>
        <time>2013-06-30T09:53:03Z</time>
      </trkpt>
      <trkpt lat="48.68007" lon="6.1415">
        <ele>245</ele>
        <time>2013-06-30T09:53:05Z</time>
      </trkpt>
      <trkpt lat="48.68012" lon="6.14147">
        <ele>246</ele>
        <time>2013-06-30T09:53:07Z</time>
      </trkpt>
      <trkpt lat="48.68017" lon="6.14145">
        <ele>246</ele>
        <time>2013-06-30T09:53:09Z</time>
      </trkpt>
      <trkpt lat="48.68022" lon="6.14143">
        <ele>247</ele>
        <time>2013-06-30T09:53:11Z</time>
      </trkpt>
      <trkpt lat="48.68027" lon="6.14141">
        <ele>250</ele>
        <time>2013-06-30T09:53:13Z</time>
      </trkpt>
      <trkpt lat="48.68031" lon="6.1414">
        <ele>252</ele>
        <time>2013-06-30T09:53:15Z</time>
      </trkpt>
      <trkpt lat="48.68036" lon="6.14138">
        <ele>252</ele>
        <time>2013-06-30T09:53:17Z</time>
      </trkpt>
      <trkpt lat="48.68041" lon="6.14137">
        <ele>253</ele>
        <time>2013-06-30T09:53:19Z</time>
      </trkpt>
      <trkpt lat="48.68044" lon="6.14135">
        <ele>255</ele>
        <time>2013-06-30T09:53:21Z</time>
      </trkpt>
      <trkpt lat="48.68047" lon="6.14134">
        <ele>255</ele>
        <time>2013-06-30T09:53:23Z</time>
      </trkpt>
      <trkpt lat="48.68049" lon="6.14132">
        <ele>257</ele>
        <time>2013-06-30T09:53:25Z</time>
      </trkpt>
      <trkpt lat="48.68052" lon="6.14131">
        <ele>254</ele>
        <time>2013-06-30T09:53:27Z</time>
      </trkpt>
      <trkpt lat="48.68056" lon="6.14128">
        <ele>253</ele>
        <time>2013-06-30T09:53:29Z</time>
      </trkpt>
      <trkpt lat="48.6806" lon="6.14125">
        <ele>252</ele>
        <time>2013-06-30T09:53:31Z</time>
      </trkpt>
      <trkpt lat="48.68065" lon="6.14121">
        <ele>250</ele>
        <time>2013-06-30T09:53:33Z</time>
      </trkpt>
      <trkpt lat="48.68069" lon="6.14118">
        <ele>252</ele>
        <time>2013-06-30T09:53:35Z</time>
      </trkpt>
      <trkpt lat="48.68073" lon="6.14115">
        <ele>252</ele>
        <time>2013-06-30T09:53:37Z</time>
      </trkpt>
      <trkpt lat="48.68077" lon="6.14113">
        <ele>252</ele>
        <time>2013-06-30T09:53:39Z</time>
      </trkpt>
      <trkpt lat="48.68082" lon="6.1411">
        <ele>252</ele>
        <time>2013-06-30T09:53:41Z</time>
      </trkpt>
      <trkpt lat="48.68087" lon="6.14108">
        <ele>252</ele>
        <time>2013-06-30T09:53:43Z</time>
      </trkpt>
      <trkpt lat="48.68092" lon="6.14106">
        <ele>253</ele>
        <time>2013-06-30T09:53:45Z</time>
      </trkpt>
      <trkpt lat="48.68097" lon="6.14104">
        <ele>255</ele>
        <time>2013-06-30T09:53:47Z</time>
      </trkpt>
      <trkpt lat="48.68102" lon="6.14102">
        <ele>256</ele>
        <time>2013-06-30T09:53:49Z</time>
      </trkpt>
      <trkpt lat="48.68107" lon="6.14101">
        <ele>258</ele>
        <time>2013-06-30T09:53:51Z</time>
      </trkpt>
      <trkpt lat="48.68111" lon="6.14099">
        <ele>258</ele>
        <time>2013-06-30T09:53:53Z</time>
      </trkpt>
      <trkpt lat="48.68116" lon="6.14096">
        <ele>258</ele>
        <time>2013-06-30T09:53:55Z</time>
      </trkpt>
      <trkpt lat="48.68119" lon="6.14093">
        <ele>260</ele>
        <time>2013-06-30T09:53:57Z</time>
      </trkpt>
      <trkpt lat="48.68123" lon="6.1409">
        <ele>260</ele>
        <time>2013-06-30T09:53:59Z</time>
      </trkpt>
      <trkpt lat="48.68128" lon="6.14086">
        <ele>259</ele>
        <time>2013-06-30T09:54:01Z</time>
      </trkpt>
      <trkpt lat="48.68132" lon="6.14082">
        <ele>259</ele>
        <time>2013-06-30T09:54:03Z</time>
      </trkpt>
      <trkpt lat="48.68136" lon="6.14079">
        <ele>258</ele>
        <time>2013-06-30T09:54:05Z</time>
      </trkpt>
      <trkpt lat="48.6814" lon="6.14076">
        <ele>261</ele>
        <time>2013-06-30T09:54:07Z</time>
      </trkpt>
      <trkpt lat="48.68145" lon="6.14073">
        <ele>261</ele>
        <time>2013-06-30T09:54:09Z</time>
      </trkpt>
      <trkpt lat="48.6815" lon="6.1407">
        <ele>260</ele>
        <time>2013-06-30T09:54:11Z</time>
      </trkpt>
      <trkpt lat="48.68153" lon="6.14067">
        <ele>262</ele>
        <time>2013-06-30T09:54:13Z</time>
      </trkpt>
      <trkpt lat="48.68157" lon="6.14063">
        <ele>262</ele>
        <time>2013-06-30T09:54:15Z</time>
      </trkpt>
      <trkpt lat="48.68161" lon="6.14061">
        <ele>265</ele>
        <time>2013-06-30T09:54:17Z</time>
      </trkpt>
      <trkpt lat="48.68164" lon="6.14059">
        <ele>266</ele>
        <time>2013-06-30T09:54:19Z</time>
      </trkpt>
      <trkpt lat="48.68169" lon="6.14055">
        <ele>266</ele>
        <time>2013-06-30T09:54:21Z</time>
      </trkpt>
      <trkpt lat="48.68173" lon="6.14051">
        <ele>265</ele>
        <time>2013-06-30T09:54:23Z</time>
      </trkpt>
      <trkpt lat="48.68178" lon="6.14047">
        <ele>264</ele>
        <time>2013-06-30T09:54:25Z</time>
      </trkpt>
      <trkpt lat="48.68182" lon="6.14044">
        <ele>266</ele>
        <time>2013-06-30T09:54:27Z</time>
      </trkpt>
      <trkpt lat="48.68187" lon="6.1404">
        <ele>264</ele>
        <time>2013-06-30T09:54:29Z</time>
      </trkpt>
      <trkpt lat="48.68192" lon="6.14034">
        <ele>262</ele>
        <time>2013-06-30T09:54:31Z</time>
      </trkpt>
      <trkpt lat="48.68196" lon="6.1403">
        <ele>263</ele>
        <time>2013-06-30T09:54:33Z</time>
      </trkpt>
      <trkpt lat="48.682" lon="6.14027">
        <ele>264</ele>
        <time>2013-06-30T09:54:35Z</time>
      </trkpt>
      <trkpt lat="48.68205" lon="6.14023">
        <ele>263</ele>
        <time>2013-06-30T09:54:37Z</time>
      </trkpt>
      <trkpt lat="48.68209" lon="6.1402">
        <ele>264</ele>
        <time>2013-06-30T09:54:39Z</time>
      </trkpt>
      <trkpt lat="48.68213" lon="6.14017">
        <ele>263</ele>
        <time>2013-06-30T09:54:41Z</time>
      </trkpt>
      <trkpt lat="48.68218" lon="6.14013">
        <ele>263</ele>
        <time>2013-06-30T09:54:43Z</time>
      </trkpt>
      <trkpt lat="48.68222" lon="6.14008">
        <ele>261</ele>
        <time>2013-06-30T09:54:45Z</time>
      </trkpt>
      <trkpt lat="48.68226" lon="6.14005">
        <ele>262</ele>
        <time>2013-06-30T09:54:47Z</time>
      </trkpt>
      <trkpt lat="48.6823" lon="6.14003">
        <ele>264</ele>
        <time>2013-06-30T09:54:49Z</time>
      </trkpt>
      <trkpt lat="48.68233" lon="6.14001">
        <ele>267</ele>
        <time>2013-06-30T09:54:51Z</time>
      </trkpt>
      <trkpt lat="48.68235" lon="6.13999">
        <ele>270</ele>
        <time>2013-06-30T09:54:53Z</time>
      </trkpt>
      <trkpt lat="48.68239" lon="6.13997">
        <ele>268</ele>
        <time>2013-06-30T09:54:55Z</time>
      </trkpt>
      <trkpt lat="48.68242" lon="6.13994">
        <ele>268</ele>
        <time>2013-06-30T09:54:57Z</time>
      </trkpt>
      <trkpt lat="48.68245" lon="6.13991">
        <ele>270</ele>
        <time>2013-06-30T09:54:59Z</time>
      </trkpt>
      <trkpt lat="48.68247" lon="6.13989">
        <ele>270</ele>
        <time>2013-06-30T09:55:01Z</time>
      </trkpt>
      <trkpt lat="48.6825" lon="6.13987">
        <ele>270</ele>
        <time>2013-06-30T09:55:03Z</time>
      </trkpt>
      <trkpt lat="48.68253" lon="6.13984">
        <ele>270</ele>
        <time>2013-06-30T09:55:05Z</time>
      </trkpt>
      <trkpt lat="48.68256" lon="6.1398">
        <ele>270</ele>
        <time>2013-06-30T09:55:07Z</time>
      </trkpt>
      <trkpt lat="48.68259" lon="6.13977">
        <ele>270</ele>
        <time>2013-06-30T09:55:09Z</time>
      </trkpt>
      <trkpt lat="48.68263" lon="6.13975">
        <ele>270</ele>
        <time>2013-06-30T09:55:11Z</time>
      </trkpt>
      <trkpt lat="48.68266" lon="6.13972">
        <ele>268</ele>
        <time>2013-06-30T09:55:13Z</time>
      </trkpt>
      <trkpt lat="48.68269" lon="6.13969">
        <ele>270</ele>
        <time>2013-06-30T09:55:15Z</time>
      </trkpt>
      <trkpt lat="48.68272" lon="6.13966">
        <ele>272</ele>
        <time>2013-06-30T09:55:17Z</time>
      </trkpt>
      <trkpt lat="48.68275" lon="6.13963">
        <ele>273</ele>
        <time>2013-06-30T09:55:19Z</time>
      </trkpt>
      <trkpt lat="48.68278" lon="6.1396">
        <ele>274</ele>
        <time>2013-06-30T09:55:21Z</time>
      </trkpt>
      <trkpt lat="48.68281" lon="6.13956">
        <ele>274</ele>
        <time>2013-06-30T09:55:23Z</time>
      </trkpt>
      <trkpt lat="48.68284" lon="6.13953">
        <ele>274</ele>
        <time>2013-06-30T09:55:25Z</time>
      </trkpt>
      <trkpt lat="48.68287" lon="6.1395">
        <ele>274</ele>
        <time>2013-06-30T09:55:27Z</time>
      </trkpt>
      <trkpt lat="48.6829" lon="6.13947">
        <ele>274</ele>
        <time>2013-06-30T09:55:29Z</time>
      </trkpt>
      <trkpt lat="48.68294" lon="6.13945">
        <ele>274</ele>
        <time>2013-06-30T09:55:31Z</time>
      </trkpt>
      <trkpt lat="48.68298" lon="6.13944">
        <ele>273</ele>
        <time>2013-06-30T09:55:33Z</time>
      </trkpt>
      <trkpt lat="48.68301" lon="6.13941">
        <ele>273</ele>
        <time>2013-06-30T09:55:35Z</time>
      </trkpt>
      <trkpt lat="48.68304" lon="6.13939">
        <ele>275</ele>
        <time>2013-06-30T09:55:37Z</time>
      </trkpt>
      <trkpt lat="48.68307" lon="6.13936">
        <ele>273</ele>
        <time>2013-06-30T09:55:39Z</time>
      </trkpt>
      <trkpt lat="48.68309" lon="6.13931">
        <ele>274</ele>
        <time>2013-06-30T09:55:41Z</time>
      </trkpt>
      <trkpt lat="48.68311" lon="6.13927">
        <ele>276</ele>
        <time>2013-06-30T09:55:43Z</time>
      </trkpt>
      <trkpt lat="48.68313" lon="6.13925">
        <ele>275</ele>
        <time>2013-06-30T09:55:45Z</time>
      </trkpt>
      <trkpt lat="48.68317" lon="6.13923">
        <ele>273</ele>
        <time>2013-06-30T09:55:47Z</time>
      </trkpt>
      <trkpt lat="48.6832" lon="6.13921">
        <ele>273</ele>
        <time>2013-06-30T09:55:49Z</time>
      </trkpt>
      <trkpt lat="48.68323" lon="6.13916">
        <ele>274</ele>
        <time>2013-06-30T09:55:51Z</time>
      </trkpt>
      <trkpt lat="48.68325" lon="6.13913">
        <ele>275</ele>
        <time>2013-06-30T09:55:53Z</time>
      </trkpt>
      <trkpt lat="48.68328" lon="6.13912">
        <ele>276</ele>
        <time>2013-06-30T09:55:55Z</time>
      </trkpt>
      <trkpt lat="48.6833" lon="6.13912">
        <ele>277</ele>
        <time>2013-06-30T09:55:57Z</time>
      </trkpt>
      <trkpt lat="48.6833" lon="6.13912">
        <ele>277</ele>
        <time>2013-06-30T09:55:58Z</time>
      </trkpt>
      <trkpt lat="48.68331" lon="6.13912">
        <ele>276</ele>
        <time>2013-06-30T09:55:59Z</time>
      </trkpt>
      <trkpt lat="48.68335" lon="6.13913">
        <ele>275</ele>
        <time>2013-06-30T09:56:01Z</time>
      </trkpt>
      <trkpt lat="48.68341" lon="6.13915">
        <ele>274</ele>
        <time>2013-06-30T09:56:03Z</time>
      </trkpt>
      <trkpt lat="48.68349" lon="6.13916">
        <ele>274</ele>
        <time>2013-06-30T09:56:05Z</time>
      </trkpt>
      <trkpt lat="48.68358" lon="6.13913">
        <ele>274</ele>
        <time>2013-06-30T09:56:07Z</time>
      </trkpt>
      <trkpt lat="48.68364" lon="6.13908">
        <ele>274</ele>
        <time>2013-06-30T09:56:09Z</time>
      </trkpt>
      <trkpt lat="48.68368" lon="6.13905">
        <ele>274</ele>
        <time>2013-06-30T09:56:11Z</time>
      </trkpt>
      <trkpt lat="48.6837" lon="6.13902">
        <ele>275</ele>
        <time>2013-06-30T09:56:13Z</time>
      </trkpt>
      <trkpt lat="48.68374" lon="6.139">
        <ele>276</ele>
        <time>2013-06-30T09:56:15Z</time>
      </trkpt>
      <trkpt lat="48.68378" lon="6.13897">
        <ele>275</ele>
        <time>2013-06-30T09:56:17Z</time>
      </trkpt>
      <trkpt lat="48.68382" lon="6.13893">
        <ele>277</ele>
        <time>2013-06-30T09:56:19Z</time>
      </trkpt>
      <trkpt lat="48.68385" lon="6.13891">
        <ele>277</ele>
        <time>2013-06-30T09:56:21Z</time>
      </trkpt>
      <trkpt lat="48.68389" lon="6.13888">
        <ele>277</ele>
        <time>2013-06-30T09:56:23Z</time>
      </trkpt>
      <trkpt lat="48.68393" lon="6.13884">
        <ele>277</ele>
        <time>2013-06-30T09:56:25Z</time>
      </trkpt>
      <trkpt lat="48.68396" lon="6.13881">
        <ele>278</ele>
        <time>2013-06-30T09:56:27Z</time>
      </trkpt>
      <trkpt lat="48.68399" lon="6.13877">
        <ele>277</ele>
        <time>2013-06-30T09:56:29Z</time>
      </trkpt>
      <trkpt lat="48.68403" lon="6.13873">
        <ele>277</ele>
        <time>2013-06-30T09:56:31Z</time>
      </trkpt>
      <trkpt lat="48.68407" lon="6.1387">
        <ele>278</ele>
        <time>2013-06-30T09:56:33Z</time>
      </trkpt>
      <trkpt lat="48.6841" lon="6.13867">
        <ele>280</ele>
        <time>2013-06-30T09:56:35Z</time>
      </trkpt>
      <trkpt lat="48.68413" lon="6.13864">
        <ele>281</ele>
        <time>2013-06-30T09:56:37Z</time>
      </trkpt>
      <trkpt lat="48.68416" lon="6.1386">
        <ele>281</ele>
        <time>2013-06-30T09:56:39Z</time>
      </trkpt>
      <trkpt lat="48.68419" lon="6.13856">
        <ele>281</ele>
        <time>2013-06-30T09:56:41Z</time>
      </trkpt>
      <trkpt lat="48.68422" lon="6.13852">
        <ele>281</ele>
        <time>2013-06-30T09:56:43Z</time>
      </trkpt>
      <trkpt lat="48.68426" lon="6.13848">
        <ele>281</ele>
        <time>2013-06-30T09:56:45Z</time>
      </trkpt>
      <trkpt lat="48.68429" lon="6.13844">
        <ele>281</ele>
        <time>2013-06-30T09:56:47Z</time>
      </trkpt>
      <trkpt lat="48.68432" lon="6.1384">
        <ele>282</ele>
        <time>2013-06-30T09:56:49Z</time>
      </trkpt>
      <trkpt lat="48.68435" lon="6.13835">
        <ele>284</ele>
        <time>2013-06-30T09:56:51Z</time>
      </trkpt>
      <trkpt lat="48.68437" lon="6.13832">
        <ele>285</ele>
        <time>2013-06-30T09:56:53Z</time>
      </trkpt>
      <trkpt lat="48.6844" lon="6.13827">
        <ele>284</ele>
        <time>2013-06-30T09:56:55Z</time>
      </trkpt>
      <trkpt lat="48.68442" lon="6.13823">
        <ele>282</ele>
        <time>2013-06-30T09:56:57Z</time>
      </trkpt>
      <trkpt lat="48.68444" lon="6.13818">
        <ele>284</ele>
        <time>2013-06-30T09:56:59Z</time>
      </trkpt>
      <trkpt lat="48.68447" lon="6.13813">
        <ele>285</ele>
        <time>2013-06-30T09:57:01Z</time>
      </trkpt>
      <trkpt lat="48.68449" lon="6.13808">
        <ele>284</ele>
        <time>2013-06-30T09:57:03Z</time>
      </trkpt>
      <trkpt lat="48.68452" lon="6.13802">
        <ele>285</ele>
        <time>2013-06-30T09:57:05Z</time>
      </trkpt>
      <trkpt lat="48.68455" lon="6.13796">
        <ele>283</ele>
        <time>2013-06-30T09:57:07Z</time>
      </trkpt>
      <trkpt lat="48.68456" lon="6.13792">
        <ele>284</ele>
        <time>2013-06-30T09:57:09Z</time>
      </trkpt>
      <trkpt lat="48.68458" lon="6.13787">
        <ele>286</ele>
        <time>2013-06-30T09:57:11Z</time>
      </trkpt>
      <trkpt lat="48.6846" lon="6.13782">
        <ele>286</ele>
        <time>2013-06-30T09:57:13Z</time>
      </trkpt>
      <trkpt lat="48.68461" lon="6.13777">
        <ele>286</ele>
        <time>2013-06-30T09:57:15Z</time>
      </trkpt>
      <trkpt lat="48.68463" lon="6.13771">
        <ele>288</ele>
        <time>2013-06-30T09:57:17Z</time>
      </trkpt>
      <trkpt lat="48.68464" lon="6.13766">
        <ele>288</ele>
        <time>2013-06-30T09:57:19Z</time>
      </trkpt>
      <trkpt lat="48.68466" lon="6.1376">
        <ele>288</ele>
        <time>2013-06-30T09:57:21Z</time>
      </trkpt>
      <trkpt lat="48.68467" lon="6.13754">
        <ele>289</ele>
        <time>2013-06-30T09:57:23Z</time>
      </trkpt>
      <trkpt lat="48.68469" lon="6.13748">
        <ele>290</ele>
        <time>2013-06-30T09:57:25Z</time>
      </trkpt>
      <trkpt lat="48.68471" lon="6.13742">
        <ele>289</ele>
        <time>2013-06-30T09:57:27Z</time>
      </trkpt>
      <trkpt lat="48.68472" lon="6.13736">
        <ele>289</ele>
        <time>2013-06-30T09:57:29Z</time>
      </trkpt>
      <trkpt lat="48.68472" lon="6.1373">
        <ele>290</ele>
        <time>2013-06-30T09:57:31Z</time>
      </trkpt>
      <trkpt lat="48.68473" lon="6.13728">
        <ele>290</ele>
        <time>2013-06-30T09:57:32Z</time>
      </trkpt>
      <trkpt lat="48.68473" lon="6.13725">
        <ele>290</ele>
        <time>2013-06-30T09:57:33Z</time>
      </trkpt>
      <trkpt lat="48.68475" lon="6.13719">
        <ele>291</ele>
        <time>2013-06-30T09:57:35Z</time>
      </trkpt>
      <trkpt lat="48.68476" lon="6.13713">
        <ele>292</ele>
        <time>2013-06-30T09:57:37Z</time>
      </trkpt>
      <trkpt lat="48.68477" lon="6.13707">
        <ele>292</ele>
        <time>2013-06-30T09:57:39Z</time>
      </trkpt>
      <trkpt lat="48.68478" lon="6.13701">
        <ele>293</ele>
        <time>2013-06-30T09:57:41Z</time>
      </trkpt>
      <trkpt lat="48.68478" lon="6.13694">
        <ele>293</ele>
        <time>2013-06-30T09:57:43Z</time>
      </trkpt>
      <trkpt lat="48.68479" lon="6.13688">
        <ele>293</ele>
        <time>2013-06-30T09:57:45Z</time>
      </trkpt>
      <trkpt lat="48.68479" lon="6.13682">
        <ele>293</ele>
        <time>2013-06-30T09:57:47Z</time>
      </trkpt>
      <trkpt lat="48.6848" lon="6.13676">
        <ele>293</ele>
        <time>2013-06-30T09:57:49Z</time>
      </trkpt>
      <trkpt lat="48.6848" lon="6.1367">
        <ele>293</ele>
        <time>2013-06-30T09:57:51Z</time>
      </trkpt>
      <trkpt lat="48.6848" lon="6.13664">
        <ele>293</ele>
        <time>2013-06-30T09:57:53Z</time>
      </trkpt>
      <trkpt lat="48.6848" lon="6.13658">
        <ele>293</ele>
        <time>2013-06-30T09:57:55Z</time>
      </trkpt>
      <trkpt lat="48.6848" lon="6.13652">
        <ele>294</ele>
        <time>2013-06-30T09:57:57Z</time>
      </trkpt>
      <trkpt lat="48.68479" lon="6.13646">
        <ele>295</ele>
        <time>2013-06-30T09:57:59Z</time>
      </trkpt>
      <trkpt lat="48.68479" lon="6.1364">
        <ele>297</ele>
        <time>2013-06-30T09:58:01Z</time>
      </trkpt>
      <trkpt lat="48.68479" lon="6.13634">
        <ele>296</ele>
        <time>2013-06-30T09:58:03Z</time>
      </trkpt>
      <trkpt lat="48.68478" lon="6.13628">
        <ele>297</ele>
        <time>2013-06-30T09:58:05Z</time>
      </trkpt>
      <trkpt lat="48.68478" lon="6.13623">
        <ele>295</ele>
        <time>2013-06-30T09:58:07Z</time>
      </trkpt>
      <trkpt lat="48.68478" lon="6.13618">
        <ele>294</ele>
        <time>2013-06-30T09:58:09Z</time>
      </trkpt>
      <trkpt lat="48.68479" lon="6.13612">
        <ele>295</ele>
        <time>2013-06-30T09:58:11Z</time>
      </trkpt>
      <trkpt lat="48.6848" lon="6.13606">
        <ele>296</ele>
        <time>2013-06-30T09:58:13Z</time>
      </trkpt>
      <trkpt lat="48.6848" lon="6.13599">
        <ele>296</ele>
        <time>2013-06-30T09:58:15Z</time>
      </trkpt>
      <trkpt lat="48.68481" lon="6.13593">
        <ele>297</ele>
        <time>2013-06-30T09:58:17Z</time>
      </trkpt>
      <trkpt lat="48.68481" lon="6.13587">
        <ele>296</ele>
        <time>2013-06-30T09:58:19Z</time>
      </trkpt>
      <trkpt lat="48.6848" lon="6.13581">
        <ele>297</ele>
        <time>2013-06-30T09:58:21Z</time>
      </trkpt>
      <trkpt lat="48.6848" lon="6.13575">
        <ele>299</ele>
        <time>2013-06-30T09:58:23Z</time>
      </trkpt>
      <trkpt lat="48.68479" lon="6.13568">
        <ele>300</ele>
        <time>2013-06-30T09:58:25Z</time>
      </trkpt>
      <trkpt lat="48.68478" lon="6.13561">
        <ele>301</ele>
        <time>2013-06-30T09:58:27Z</time>
      </trkpt>
      <trkpt lat="48.68478" lon="6.13556">
        <ele>301</ele>
        <time>2013-06-30T09:58:29Z</time>
      </trkpt>
      <trkpt lat="48.68478" lon="6.1355">
        <ele>302</ele>
        <time>2013-06-30T09:58:31Z</time>
      </trkpt>
      <trkpt lat="48.68477" lon="6.13545">
        <ele>302</ele>
        <time>2013-06-30T09:58:33Z</time>
      </trkpt>
      <trkpt lat="48.68477" lon="6.13539">
        <ele>303</ele>
        <time>2013-06-30T09:58:35Z</time>
      </trkpt>
      <trkpt lat="48.68476" lon="6.13533">
        <ele>302</ele>
        <time>2013-06-30T09:58:37Z</time>
      </trkpt>
      <trkpt lat="48.68476" lon="6.13527">
        <ele>301</ele>
        <time>2013-06-30T09:58:39Z</time>
      </trkpt>
      <trkpt lat="48.68476" lon="6.13521">
        <ele>303</ele>
        <time>2013-06-30T09:58:41Z</time>
      </trkpt>
      <trkpt lat="48.68475" lon="6.13516">
        <ele>304</ele>
        <time>2013-06-30T09:58:43Z</time>
      </trkpt>
      <trkpt lat="48.68475" lon="6.1351">
        <ele>303</ele>
        <time>2013-06-30T09:58:45Z</time>
      </trkpt>
      <trkpt lat="48.68475" lon="6.13506">
        <ele>304</ele>
        <time>2013-06-30T09:58:47Z</time>
      </trkpt>
      <trkpt lat="48.68474" lon="6.13501">
        <ele>304</ele>
        <time>2013-06-30T09:58:49Z</time>
      </trkpt>
      <trkpt lat="48.68474" lon="6.13496">
        <ele>305</ele>
        <time>2013-06-30T09:58:51Z</time>
      </trkpt>
      <trkpt lat="48.68474" lon="6.1349">
        <ele>304</ele>
        <time>2013-06-30T09:58:53Z</time>
      </trkpt>
      <trkpt lat="48.68474" lon="6.13484">
        <ele>304</ele>
        <time>2013-06-30T09:58:55Z</time>
      </trkpt>
      <trkpt lat="48.68474" lon="6.13477">
        <ele>303</ele>
        <time>2013-06-30T09:58:57Z</time>
      </trkpt>
      <trkpt lat="48.68474" lon="6.13472">
        <ele>304</ele>
        <time>2013-06-30T09:58:59Z</time>
      </trkpt>
      <trkpt lat="48.68474" lon="6.13467">
        <ele>303</ele>
        <time>2013-06-30T09:59:01Z</time>
      </trkpt>
      <trkpt lat="48.68474" lon="6.13461">
        <ele>303</ele>
        <time>2013-06-30T09:59:03Z</time>
      </trkpt>
      <trkpt lat="48.68474" lon="6.13455">
        <ele>304</ele>
        <time>2013-06-30T09:59:05Z</time>
      </trkpt>
      <trkpt lat="48.68474" lon="6.13449">
        <ele>304</ele>
        <time>2013-06-30T09:59:07Z</time>
      </trkpt>
      <trkpt lat="48.68475" lon="6.13444">
        <ele>305</ele>
        <time>2013-06-30T09:59:09Z</time>
      </trkpt>
      <trkpt lat="48.68475" lon="6.13438">
        <ele>305</ele>
        <time>2013-06-30T09:59:11Z</time>
      </trkpt>
      <trkpt lat="48.68476" lon="6.13433">
        <ele>306</ele>
        <time>2013-06-30T09:59:13Z</time>
      </trkpt>
      <trkpt lat="48.68476" lon="6.13427">
        <ele>308</ele>
        <time>2013-06-30T09:59:15Z</time>
      </trkpt>
      <trkpt lat="48.68476" lon="6.13422">
        <ele>309</ele>
        <time>2013-06-30T09:59:17Z</time>
      </trkpt>
      <trkpt lat="48.68477" lon="6.13417">
        <ele>309</ele>
        <time>2013-06-30T09:59:19Z</time>
      </trkpt>
      <trkpt lat="48.68477" lon="6.13411">
        <ele>309</ele>
        <time>2013-06-30T09:59:21Z</time>
      </trkpt>
      <trkpt lat="48.68478" lon="6.13405">
        <ele>310</ele>
        <time>2013-06-30T09:59:23Z</time>
      </trkpt>
      <trkpt lat="48.68479" lon="6.134">
        <ele>310</ele>
        <time>2013-06-30T09:59:25Z</time>
      </trkpt>
      <trkpt lat="48.6848" lon="6.13394">
        <ele>310</ele>
        <time>2013-06-30T09:59:27Z</time>
      </trkpt>
      <trkpt lat="48.68481" lon="6.13388">
        <ele>310</ele>
        <time>2013-06-30T09:59:29Z</time>
      </trkpt>
      <trkpt lat="48.68482" lon="6.13382">
        <ele>311</ele>
        <time>2013-06-30T09:59:31Z</time>
      </trkpt>
      <trkpt lat="48.68483" lon="6.13376">
        <ele>311</ele>
        <time>2013-06-30T09:59:33Z</time>
      </trkpt>
      <trkpt lat="48.68484" lon="6.1337">
        <ele>311</ele>
        <time>2013-06-30T09:59:35Z</time>
      </trkpt>
      <trkpt lat="48.68485" lon="6.13363">
        <ele>311</ele>
        <time>2013-06-30T09:59:37Z</time>
      </trkpt>
      <trkpt lat="48.68487" lon="6.13358">
        <ele>311</ele>
        <time>2013-06-30T09:59:39Z</time>
      </trkpt>
      <trkpt lat="48.68488" lon="6.13353">
        <ele>311</ele>
        <time>2013-06-30T09:59:41Z</time>
      </trkpt>
      <trkpt lat="48.6849" lon="6.13347">
        <ele>312</ele>
        <time>2013-06-30T09:59:43Z</time>
      </trkpt>
      <trkpt lat="48.68491" lon="6.1334">
        <ele>312</ele>
        <time>2013-06-30T09:59:45Z</time>
      </trkpt>
      <trkpt lat="48.68493" lon="6.13335">
        <ele>316</ele>
        <time>2013-06-30T09:59:47Z</time>
      </trkpt>
      <trkpt lat="48.68493" lon="6.13332">
        <ele>316</ele>
        <time>2013-06-30T09:59:48Z</time>
      </trkpt>
      <trkpt lat="48.68494" lon="6.13329">
        <ele>316</ele>
        <time>2013-06-30T09:59:49Z</time>
      </trkpt>
      <trkpt lat="48.68496" lon="6.13325">
        <ele>316</ele>
        <time>2013-06-30T09:59:51Z</time>
      </trkpt>
      <trkpt lat="48.68497" lon="6.1332">
        <ele>316</ele>
        <time>2013-06-30T09:59:53Z</time>
      </trkpt>
      <trkpt lat="48.68499" lon="6.13316">
        <ele>317</ele>
        <time>2013-06-30T09:59:55Z</time>
      </trkpt>
      <trkpt lat="48.68501" lon="6.1331">
        <ele>318</ele>
        <time>2013-06-30T09:59:57Z</time>
      </trkpt>
      <trkpt lat="48.68504" lon="6.133">
        <ele>318</ele>
        <time>2013-06-30T10:00:01Z</time>
      </trkpt>
      <trkpt lat="48.68506" lon="6.13295">
        <ele>318</ele>
        <time>2013-06-30T10:00:03Z</time>
      </trkpt>
      <trkpt lat="48.68508" lon="6.1329">
        <ele>318</ele>
        <time>2013-06-30T10:00:05Z</time>
      </trkpt>
      <trkpt lat="48.6851" lon="6.13285">
        <ele>318</ele>
        <time>2013-06-30T10:00:07Z</time>
      </trkpt>
      <trkpt lat="48.68513" lon="6.1328">
        <ele>316</ele>
        <time>2013-06-30T10:00:09Z</time>
      </trkpt>
      <trkpt lat="48.68515" lon="6.13277">
        <ele>319</ele>
        <time>2013-06-30T10:00:11Z</time>
      </trkpt>
      <trkpt lat="48.68517" lon="6.13273">
        <ele>320</ele>
        <time>2013-06-30T10:00:13Z</time>
      </trkpt>
      <trkpt lat="48.6852" lon="6.13268">
        <ele>321</ele>
        <time>2013-06-30T10:00:15Z</time>
      </trkpt>
      <trkpt lat="48.68522" lon="6.13264">
        <ele>320</ele>
        <time>2013-06-30T10:00:17Z</time>
      </trkpt>
      <trkpt lat="48.68525" lon="6.13259">
        <ele>318</ele>
        <time>2013-06-30T10:00:19Z</time>
      </trkpt>
      <trkpt lat="48.68528" lon="6.13254">
        <ele>319</ele>
        <time>2013-06-30T10:00:21Z</time>
      </trkpt>
      <trkpt lat="48.6853" lon="6.13249">
        <ele>320</ele>
        <time>2013-06-30T10:00:23Z</time>
      </trkpt>
      <trkpt lat="48.68533" lon="6.13245">
        <ele>320</ele>
        <time>2013-06-30T10:00:25Z</time>
      </trkpt>
      <trkpt lat="48.68535" lon="6.13241">
        <ele>319</ele>
        <time>2013-06-30T10:00:27Z</time>
      </trkpt>
      <trkpt lat="48.68538" lon="6.13237">
        <ele>320</ele>
        <time>2013-06-30T10:00:29Z</time>
      </trkpt>
      <trkpt lat="48.68541" lon="6.13233">
        <ele>320</ele>
        <time>2013-06-30T10:00:31Z</time>
      </trkpt>
      <trkpt lat="48.68544" lon="6.13229">
        <ele>321</ele>
        <time>2013-06-30T10:00:33Z</time>
      </trkpt>
      <trkpt lat="48.68546" lon="6.13225">
        <ele>321</ele>
        <time>2013-06-30T10:00:35Z</time>
      </trkpt>
      <trkpt lat="48.68549" lon="6.13222">
        <ele>321</ele>
        <time>2013-06-30T10:00:37Z</time>
      </trkpt>
      <trkpt lat="48.68552" lon="6.13219">
        <ele>320</ele>
        <time>2013-06-30T10:00:39Z</time>
      </trkpt>
      <trkpt lat="48.68555" lon="6.13215">
        <ele>319</ele>
        <time>2013-06-30T10:00:41Z</time>
      </trkpt>
      <trkpt lat="48.68558" lon="6.1321">
        <ele>318</ele>
        <time>2013-06-30T10:00:43Z</time>
      </trkpt>
      <trkpt lat="48.68561" lon="6.13207">
        <ele>319</ele>
        <time>2013-06-30T10:00:45Z</time>
      </trkpt>
      <trkpt lat="48.68564" lon="6.13203">
        <ele>318</ele>
        <time>2013-06-30T10:00:47Z</time>
      </trkpt>
      <trkpt lat="48.68567" lon="6.132">
        <ele>319</ele>
        <time>2013-06-30T10:00:49Z</time>
      </trkpt>
      <trkpt lat="48.6857" lon="6.13197">
        <ele>319</ele>
        <time>2013-06-30T10:00:51Z</time>
      </trkpt>
      <trkpt lat="48.68573" lon="6.13194">
        <ele>320</ele>
        <time>2013-06-30T10:00:53Z</time>
      </trkpt>
      <trkpt lat="48.68576" lon="6.13192">
        <ele>322</ele>
        <time>2013-06-30T10:00:55Z</time>
      </trkpt>
      <trkpt lat="48.6858" lon="6.13189">
        <ele>321</ele>
        <time>2013-06-30T10:00:57Z</time>
      </trkpt>
      <trkpt lat="48.68583" lon="6.13186">
        <ele>321</ele>
        <time>2013-06-30T10:00:59Z</time>
      </trkpt>
      <trkpt lat="48.68586" lon="6.13183">
        <ele>323</ele>
        <time>2013-06-30T10:01:01Z</time>
      </trkpt>
      <trkpt lat="48.68589" lon="6.1318">
        <ele>322</ele>
        <time>2013-06-30T10:01:03Z</time>
      </trkpt>
      <trkpt lat="48.68593" lon="6.13176">
        <ele>321</ele>
        <time>2013-06-30T10:01:05Z</time>
      </trkpt>
      <trkpt lat="48.68596" lon="6.13174">
        <ele>323</ele>
        <time>2013-06-30T10:01:07Z</time>
      </trkpt>
      <trkpt lat="48.68599" lon="6.13172">
        <ele>325</ele>
        <time>2013-06-30T10:01:09Z</time>
      </trkpt>
      <trkpt lat="48.68602" lon="6.1317">
        <ele>324</ele>
        <time>2013-06-30T10:01:11Z</time>
      </trkpt>
      <trkpt lat="48.68605" lon="6.13168">
        <ele>325</ele>
        <time>2013-06-30T10:01:13Z</time>
      </trkpt>
      <trkpt lat="48.68609" lon="6.13165">
        <ele>325</ele>
        <time>2013-06-30T10:01:15Z</time>
      </trkpt>
      <trkpt lat="48.68613" lon="6.13161">
        <ele>322</ele>
        <time>2013-06-30T10:01:17Z</time>
      </trkpt>
      <trkpt lat="48.68616" lon="6.13158">
        <ele>321</ele>
        <time>2013-06-30T10:01:19Z</time>
      </trkpt>
      <trkpt lat="48.6862" lon="6.13156">
        <ele>320</ele>
        <time>2013-06-30T10:01:21Z</time>
      </trkpt>
      <trkpt lat="48.68623" lon="6.13154">
        <ele>320</ele>
        <time>2013-06-30T10:01:23Z</time>
      </trkpt>
      <trkpt lat="48.68627" lon="6.13152">
        <ele>319</ele>
        <time>2013-06-30T10:01:25Z</time>
      </trkpt>
      <trkpt lat="48.68631" lon="6.1315">
        <ele>318</ele>
        <time>2013-06-30T10:01:27Z</time>
      </trkpt>
      <trkpt lat="48.68634" lon="6.13148">
        <ele>317</ele>
        <time>2013-06-30T10:01:29Z</time>
      </trkpt>
      <trkpt lat="48.68638" lon="6.13146">
        <ele>317</ele>
        <time>2013-06-30T10:01:31Z</time>
      </trkpt>
      <trkpt lat="48.68642" lon="6.13143">
        <ele>318</ele>
        <time>2013-06-30T10:01:33Z</time>
      </trkpt>
      <trkpt lat="48.68646" lon="6.13141">
        <ele>318</ele>
        <time>2013-06-30T10:01:35Z</time>
      </trkpt>
      <trkpt lat="48.68649" lon="6.13139">
        <ele>318</ele>
        <time>2013-06-30T10:01:37Z</time>
      </trkpt>
      <trkpt lat="48.68653" lon="6.13138">
        <ele>321</ele>
        <time>2013-06-30T10:01:39Z</time>
      </trkpt>
      <trkpt lat="48.68657" lon="6.13138">
        <ele>319</ele>
        <time>2013-06-30T10:01:41Z</time>
      </trkpt>
      <trkpt lat="48.68662" lon="6.13138">
        <ele>319</ele>
        <time>2013-06-30T10:01:43Z</time>
      </trkpt>
      <trkpt lat="48.68667" lon="6.13138">
        <ele>319</ele>
        <time>2013-06-30T10:01:45Z</time>
      </trkpt>
      <trkpt lat="48.68672" lon="6.13137">
        <ele>319</ele>
        <time>2013-06-30T10:01:47Z</time>
      </trkpt>
      <trkpt lat="48.68676" lon="6.13137">
        <ele>319</ele>
        <time>2013-06-30T10:01:49Z</time>
      </trkpt>
      <trkpt lat="48.68681" lon="6.13137">
        <ele>318</ele>
        <time>2013-06-30T10:01:51Z</time>
      </trkpt>
      <trkpt lat="48.68685" lon="6.13137">
        <ele>319</ele>
        <time>2013-06-30T10:01:53Z</time>
      </trkpt>
      <trkpt lat="48.6869" lon="6.13137">
        <ele>319</ele>
        <time>2013-06-30T10:01:55Z</time>
      </trkpt>
      <trkpt lat="48.68695" lon="6.13138">
        <ele>318</ele>
        <time>2013-06-30T10:01:57Z</time>
      </trkpt>
      <trkpt lat="48.68699" lon="6.13139">
        <ele>320</ele>
        <time>2013-06-30T10:01:59Z</time>
      </trkpt>
      <trkpt lat="48.68703" lon="6.13139">
        <ele>323</ele>
        <time>2013-06-30T10:02:01Z</time>
      </trkpt>
      <trkpt lat="48.68706" lon="6.13139">
        <ele>324</ele>
        <time>2013-06-30T10:02:03Z</time>
      </trkpt>
      <trkpt lat="48.6871" lon="6.13139">
        <ele>323</ele>
        <time>2013-06-30T10:02:05Z</time>
      </trkpt>
      <trkpt lat="48.68714" lon="6.13139">
        <ele>325</ele>
        <time>2013-06-30T10:02:07Z</time>
      </trkpt>
      <trkpt lat="48.68718" lon="6.1314">
        <ele>324</ele>
        <time>2013-06-30T10:02:09Z</time>
      </trkpt>
      <trkpt lat="48.68722" lon="6.1314">
        <ele>324</ele>
        <time>2013-06-30T10:02:11Z</time>
      </trkpt>
      <trkpt lat="48.68726" lon="6.1314">
        <ele>323</ele>
        <time>2013-06-30T10:02:13Z</time>
      </trkpt>
      <trkpt lat="48.68731" lon="6.1314">
        <ele>323</ele>
        <time>2013-06-30T10:02:15Z</time>
      </trkpt>
      <trkpt lat="48.68736" lon="6.1314">
        <ele>324</ele>
        <time>2013-06-30T10:02:17Z</time>
      </trkpt>
      <trkpt lat="48.6874" lon="6.1314">
        <ele>324</ele>
        <time>2013-06-30T10:02:19Z</time>
      </trkpt>
      <trkpt lat="48.68745" lon="6.1314">
        <ele>324</ele>
        <time>2013-06-30T10:02:21Z</time>
      </trkpt>
      <trkpt lat="48.68749" lon="6.13141">
        <ele>324</ele>
        <time>2013-06-30T10:02:23Z</time>
      </trkpt>
      <trkpt lat="48.68753" lon="6.13142">
        <ele>324</ele>
        <time>2013-06-30T10:02:25Z</time>
      </trkpt>
      <trkpt lat="48.68757" lon="6.13142">
        <ele>325</ele>
        <time>2013-06-30T10:02:27Z</time>
      </trkpt>
      <trkpt lat="48.68761" lon="6.13143">
        <ele>325</ele>
        <time>2013-06-30T10:02:29Z</time>
      </trkpt>
      <trkpt lat="48.68765" lon="6.13144">
        <ele>326</ele>
        <time>2013-06-30T10:02:31Z</time>
      </trkpt>
      <trkpt lat="48.68768" lon="6.13146">
        <ele>326</ele>
        <time>2013-06-30T10:02:33Z</time>
      </trkpt>
      <trkpt lat="48.68771" lon="6.13147">
        <ele>327</ele>
        <time>2013-06-30T10:02:35Z</time>
      </trkpt>
      <trkpt lat="48.68774" lon="6.13149">
        <ele>328</ele>
        <time>2013-06-30T10:02:37Z</time>
      </trkpt>
      <trkpt lat="48.68778" lon="6.13152">
        <ele>328</ele>
        <time>2013-06-30T10:02:39Z</time>
      </trkpt>
      <trkpt lat="48.68782" lon="6.13153">
        <ele>329</ele>
        <time>2013-06-30T10:02:41Z</time>
      </trkpt>
      <trkpt lat="48.68786" lon="6.13155">
        <ele>330</ele>
        <time>2013-06-30T10:02:43Z</time>
      </trkpt>
      <trkpt lat="48.6879" lon="6.13157">
        <ele>331</ele>
        <time>2013-06-30T10:02:45Z</time>
      </trkpt>
      <trkpt lat="48.68794" lon="6.13159">
        <ele>330</ele>
        <time>2013-06-30T10:02:47Z</time>
      </trkpt>
      <trkpt lat="48.68797" lon="6.13161">
        <ele>330</ele>
        <time>2013-06-30T10:02:49Z</time>
      </trkpt>
      <trkpt lat="48.68801" lon="6.13165">
        <ele>331</ele>
        <time>2013-06-30T10:02:51Z</time>
      </trkpt>
      <trkpt lat="48.68804" lon="6.13168">
        <ele>332</ele>
        <time>2013-06-30T10:02:53Z</time>
      </trkpt>
      <trkpt lat="48.68808" lon="6.13172">
        <ele>332</ele>
        <time>2013-06-30T10:02:55Z</time>
      </trkpt>
      <trkpt lat="48.68811" lon="6.13176">
        <ele>331</ele>
        <time>2013-06-30T10:02:57Z</time>
      </trkpt>
      <trkpt lat="48.68815" lon="6.13178">
        <ele>331</ele>
        <time>2013-06-30T10:02:59Z</time>
      </trkpt>
      <trkpt lat="48.68818" lon="6.13179">
        <ele>332</ele>
        <time>2013-06-30T10:03:01Z</time>
      </trkpt>
      <trkpt lat="48.68821" lon="6.1318">
        <ele>332</ele>
        <time>2013-06-30T10:03:03Z</time>
      </trkpt>
      <trkpt lat="48.68825" lon="6.13181">
        <ele>332</ele>
        <time>2013-06-30T10:03:05Z</time>
      </trkpt>
      <trkpt lat="48.68828" lon="6.13178">
        <ele>333</ele>
        <time>2013-06-30T10:03:07Z</time>
      </trkpt>
      <trkpt lat="48.6883" lon="6.13174">
        <ele>333</ele>
        <time>2013-06-30T10:03:09Z</time>
      </trkpt>
      <trkpt lat="48.68831" lon="6.1317">
        <ele>334</ele>
        <time>2013-06-30T10:03:11Z</time>
      </trkpt>
      <trkpt lat="48.68832" lon="6.13166">
        <ele>334</ele>
        <time>2013-06-30T10:03:13Z</time>
      </trkpt>
      <trkpt lat="48.68831" lon="6.1316">
        <ele>335</ele>
        <time>2013-06-30T10:03:15Z</time>
      </trkpt>
      <trkpt lat="48.6883" lon="6.13154">
        <ele>336</ele>
        <time>2013-06-30T10:03:17Z</time>
      </trkpt>
      <trkpt lat="48.68829" lon="6.13149">
        <ele>338</ele>
        <time>2013-06-30T10:03:19Z</time>
      </trkpt>
      <trkpt lat="48.68829" lon="6.13146">
        <ele>338</ele>
        <time>2013-06-30T10:03:20Z</time>
      </trkpt>
      <trkpt lat="48.68828" lon="6.13139">
        <ele>338</ele>
        <time>2013-06-30T10:03:22Z</time>
      </trkpt>
      <trkpt lat="48.68827" lon="6.13134">
        <ele>339</ele>
        <time>2013-06-30T10:03:24Z</time>
      </trkpt>
      <trkpt lat="48.68826" lon="6.13128">
        <ele>340</ele>
        <time>2013-06-30T10:03:26Z</time>
      </trkpt>
      <trkpt lat="48.68824" lon="6.13122">
        <ele>342</ele>
        <time>2013-06-30T10:03:28Z</time>
      </trkpt>
      <trkpt lat="48.68824" lon="6.13116">
        <ele>342</ele>
        <time>2013-06-30T10:03:30Z</time>
      </trkpt>
      <trkpt lat="48.68824" lon="6.13114">
        <ele>342</ele>
        <time>2013-06-30T10:03:31Z</time>
      </trkpt>
      <trkpt lat="48.68823" lon="6.13111">
        <ele>342</ele>
        <time>2013-06-30T10:03:32Z</time>
      </trkpt>
      <trkpt lat="48.68823" lon="6.13109">
        <ele>342</ele>
        <time>2013-06-30T10:03:33Z</time>
      </trkpt>
      <trkpt lat="48.68821" lon="6.131">
        <ele>343</ele>
        <time>2013-06-30T10:03:36Z</time>
      </trkpt>
      <trkpt lat="48.68821" lon="6.13094">
        <ele>345</ele>
        <time>2013-06-30T10:03:38Z</time>
      </trkpt>
      <trkpt lat="48.68821" lon="6.13088">
        <ele>345</ele>
        <time>2013-06-30T10:03:40Z</time>
      </trkpt>
      <trkpt lat="48.6882" lon="6.13082">
        <ele>345</ele>
        <time>2013-06-30T10:03:42Z</time>
      </trkpt>
      <trkpt lat="48.6882" lon="6.13075">
        <ele>345</ele>
        <time>2013-06-30T10:03:44Z</time>
      </trkpt>
      <trkpt lat="48.68819" lon="6.13068">
        <ele>346</ele>
        <time>2013-06-30T10:03:46Z</time>
      </trkpt>
      <trkpt lat="48.68819" lon="6.13061">
        <ele>347</ele>
        <time>2013-06-30T10:03:48Z</time>
      </trkpt>
      <trkpt lat="48.68818" lon="6.13054">
        <ele>349</ele>
        <time>2013-06-30T10:03:50Z</time>
      </trkpt>
      <trkpt lat="48.68818" lon="6.13047">
        <ele>347</ele>
        <time>2013-06-30T10:03:52Z</time>
      </trkpt>
      <trkpt lat="48.68818" lon="6.1304">
        <ele>345</ele>
        <time>2013-06-30T10:03:54Z</time>
      </trkpt>
      <trkpt lat="48.68818" lon="6.13034">
        <ele>343</ele>
        <time>2013-06-30T10:03:56Z</time>
      </trkpt>
      <trkpt lat="48.68817" lon="6.13027">
        <ele>344</ele>
        <time>2013-06-30T10:03:58Z</time>
      </trkpt>
      <trkpt lat="48.68816" lon="6.1302">
        <ele>344</ele>
        <time>2013-06-30T10:04:00Z</time>
      </trkpt>
      <trkpt lat="48.68816" lon="6.13014">
        <ele>344</ele>
        <time>2013-06-30T10:04:02Z</time>
      </trkpt>
      <trkpt lat="48.68815" lon="6.13008">
        <ele>345</ele>
        <time>2013-06-30T10:04:04Z</time>
      </trkpt>
      <trkpt lat="48.68815" lon="6.13003">
        <ele>346</ele>
        <time>2013-06-30T10:04:06Z</time>
      </trkpt>
      <trkpt lat="48.68814" lon="6.12997">
        <ele>346</ele>
        <time>2013-06-30T10:04:08Z</time>
      </trkpt>
      <trkpt lat="48.68814" lon="6.1299">
        <ele>345</ele>
        <time>2013-06-30T10:04:10Z</time>
      </trkpt>
      <trkpt lat="48.68813" lon="6.12982">
        <ele>346</ele>
        <time>2013-06-30T10:04:12Z</time>
      </trkpt>
      <trkpt lat="48.68813" lon="6.12975">
        <ele>347</ele>
        <time>2013-06-30T10:04:14Z</time>
      </trkpt>
      <trkpt lat="48.68813" lon="6.12969">
        <ele>349</ele>
        <time>2013-06-30T10:04:16Z</time>
      </trkpt>
      <trkpt lat="48.68813" lon="6.12962">
        <ele>347</ele>
        <time>2013-06-30T10:04:18Z</time>
      </trkpt>
      <trkpt lat="48.68813" lon="6.12955">
        <ele>346</ele>
        <time>2013-06-30T10:04:20Z</time>
      </trkpt>
      <trkpt lat="48.68813" lon="6.12948">
        <ele>346</ele>
        <time>2013-06-30T10:04:22Z</time>
      </trkpt>
      <trkpt lat="48.68812" lon="6.12943">
        <ele>343</ele>
        <time>2013-06-30T10:04:24Z</time>
      </trkpt>
      <trkpt lat="48.68812" lon="6.12937">
        <ele>345</ele>
        <time>2013-06-30T10:04:26Z</time>
      </trkpt>
      <trkpt lat="48.68811" lon="6.12932">
        <ele>348</ele>
        <time>2013-06-30T10:04:28Z</time>
      </trkpt>
      <trkpt lat="48.68812" lon="6.12926">
        <ele>348</ele>
        <time>2013-06-30T10:04:30Z</time>
      </trkpt>
      <trkpt lat="48.68812" lon="6.12919">
        <ele>349</ele>
        <time>2013-06-30T10:04:32Z</time>
      </trkpt>
      <trkpt lat="48.6881" lon="6.12905">
        <ele>350</ele>
        <time>2013-06-30T10:04:36Z</time>
      </trkpt>
      <trkpt lat="48.68809" lon="6.12899">
        <ele>351</ele>
        <time>2013-06-30T10:04:38Z</time>
      </trkpt>
      <trkpt lat="48.68808" lon="6.12893">
        <ele>352</ele>
        <time>2013-06-30T10:04:40Z</time>
      </trkpt>
      <trkpt lat="48.68807" lon="6.12886">
        <ele>352</ele>
        <time>2013-06-30T10:04:42Z</time>
      </trkpt>
      <trkpt lat="48.68806" lon="6.1288">
        <ele>351</ele>
        <time>2013-06-30T10:04:44Z</time>
      </trkpt>
      <trkpt lat="48.68805" lon="6.12874">
        <ele>350</ele>
        <time>2013-06-30T10:04:46Z</time>
      </trkpt>
      <trkpt lat="48.68805" lon="6.12868">
        <ele>351</ele>
        <time>2013-06-30T10:04:48Z</time>
      </trkpt>
      <trkpt lat="48.68804" lon="6.12861">
        <ele>351</ele>
        <time>2013-06-30T10:04:50Z</time>
      </trkpt>
      <trkpt lat="48.68803" lon="6.12853">
        <ele>350</ele>
        <time>2013-06-30T10:04:52Z</time>
      </trkpt>
      <trkpt lat="48.68803" lon="6.12845">
        <ele>351</ele>
        <time>2013-06-30T10:04:54Z</time>
      </trkpt>
      <trkpt lat="48.68803" lon="6.12837">
        <ele>352</ele>
        <time>2013-06-30T10:04:56Z</time>
      </trkpt>
      <trkpt lat="48.68802" lon="6.1283">
        <ele>352</ele>
        <time>2013-06-30T10:04:58Z</time>
      </trkpt>
      <trkpt lat="48.68802" lon="6.12824">
        <ele>353</ele>
        <time>2013-06-30T10:05:00Z</time>
      </trkpt>
      <trkpt lat="48.68802" lon="6.12816">
        <ele>353</ele>
        <time>2013-06-30T10:05:02Z</time>
      </trkpt>
      <trkpt lat="48.68801" lon="6.12807">
        <ele>352</ele>
        <time>2013-06-30T10:05:04Z</time>
      </trkpt>
      <trkpt lat="48.68801" lon="6.12799">
        <ele>349</ele>
        <time>2013-06-30T10:05:06Z</time>
      </trkpt>
      <trkpt lat="48.688" lon="6.12792">
        <ele>351</ele>
        <time>2013-06-30T10:05:08Z</time>
      </trkpt>
      <trkpt lat="48.688" lon="6.12784">
        <ele>352</ele>
        <time>2013-06-30T10:05:10Z</time>
      </trkpt>
      <trkpt lat="48.688" lon="6.12776">
        <ele>355</ele>
        <time>2013-06-30T10:05:12Z</time>
      </trkpt>
      <trkpt lat="48.688" lon="6.12769">
        <ele>356</ele>
        <time>2013-06-30T10:05:14Z</time>
      </trkpt>
      <trkpt lat="48.68799" lon="6.1276">
        <ele>357</ele>
        <time>2013-06-30T10:05:16Z</time>
      </trkpt>
      <trkpt lat="48.68798" lon="6.12752">
        <ele>358</ele>
        <time>2013-06-30T10:05:18Z</time>
      </trkpt>
      <trkpt lat="48.68797" lon="6.12745">
        <ele>358</ele>
        <time>2013-06-30T10:05:20Z</time>
      </trkpt>
      <trkpt lat="48.68794" lon="6.1274">
        <ele>357</ele>
        <time>2013-06-30T10:05:22Z</time>
      </trkpt>
      <trkpt lat="48.6879" lon="6.12736">
        <ele>357</ele>
        <time>2013-06-30T10:05:24Z</time>
      </trkpt>
      <trkpt lat="48.68786" lon="6.12734">
        <ele>358</ele>
        <time>2013-06-30T10:05:26Z</time>
      </trkpt>
      <trkpt lat="48.68782" lon="6.12734">
        <ele>360</ele>
        <time>2013-06-30T10:05:28Z</time>
      </trkpt>
      <trkpt lat="48.68776" lon="6.12736">
        <ele>359</ele>
        <time>2013-06-30T10:05:30Z</time>
      </trkpt>
      <trkpt lat="48.6877" lon="6.12738">
        <ele>358</ele>
        <time>2013-06-30T10:05:32Z</time>
      </trkpt>
      <trkpt lat="48.68763" lon="6.12739">
        <ele>357</ele>
        <time>2013-06-30T10:05:34Z</time>
      </trkpt>
      <trkpt lat="48.68755" lon="6.12741">
        <ele>357</ele>
        <time>2013-06-30T10:05:36Z</time>
      </trkpt>
      <trkpt lat="48.68747" lon="6.12744">
        <ele>360</ele>
        <time>2013-06-30T10:05:38Z</time>
      </trkpt>
      <trkpt lat="48.68737" lon="6.12746">
        <ele>361</ele>
        <time>2013-06-30T10:05:40Z</time>
      </trkpt>
      <trkpt lat="48.6873" lon="6.12752">
        <ele>361</ele>
        <time>2013-06-30T10:05:42Z</time>
      </trkpt>
      <trkpt lat="48.68721" lon="6.12755">
        <ele>362</ele>
        <time>2013-06-30T10:05:44Z</time>
      </trkpt>
      <trkpt lat="48.68717" lon="6.12757">
        <ele>361</ele>
        <time>2013-06-30T10:05:45Z</time>
      </trkpt>
      <trkpt lat="48.68713" lon="6.1276">
        <ele>361</ele>
        <time>2013-06-30T10:05:46Z</time>
      </trkpt>
      <trkpt lat="48.68705" lon="6.12767">
        <ele>355</ele>
        <time>2013-06-30T10:05:48Z</time>
      </trkpt>
      <trkpt lat="48.68696" lon="6.12772">
        <ele>355</ele>
        <time>2013-06-30T10:05:50Z</time>
      </trkpt>
      <trkpt lat="48.68687" lon="6.12777">
        <ele>352</ele>
        <time>2013-06-30T10:05:52Z</time>
      </trkpt>
      <trkpt lat="48.68677" lon="6.12781">
        <ele>354</ele>
        <time>2013-06-30T10:05:54Z</time>
      </trkpt>
      <trkpt lat="48.68667" lon="6.12784">
        <ele>354</ele>
        <time>2013-06-30T10:05:56Z</time>
      </trkpt>
      <trkpt lat="48.68657" lon="6.12788">
        <ele>354</ele>
        <time>2013-06-30T10:05:58Z</time>
      </trkpt>
      <trkpt lat="48.68645" lon="6.12789">
        <ele>350</ele>
        <time>2013-06-30T10:06:00Z</time>
      </trkpt>
      <trkpt lat="48.68632" lon="6.1279">
        <ele>348</ele>
        <time>2013-06-30T10:06:02Z</time>
      </trkpt>
      <trkpt lat="48.68621" lon="6.12793">
        <ele>350</ele>
        <time>2013-06-30T10:06:04Z</time>
      </trkpt>
      <trkpt lat="48.6861" lon="6.12796">
        <ele>347</ele>
        <time>2013-06-30T10:06:06Z</time>
      </trkpt>
      <trkpt lat="48.68599" lon="6.12797">
        <ele>349</ele>
        <time>2013-06-30T10:06:08Z</time>
      </trkpt>
      <trkpt lat="48.68588" lon="6.12801">
        <ele>349</ele>
        <time>2013-06-30T10:06:10Z</time>
      </trkpt>
      <trkpt lat="48.68578" lon="6.12805">
        <ele>348</ele>
        <time>2013-06-30T10:06:12Z</time>
      </trkpt>
      <trkpt lat="48.68568" lon="6.1281">
        <ele>347</ele>
        <time>2013-06-30T10:06:14Z</time>
      </trkpt>
      <trkpt lat="48.68559" lon="6.12816">
        <ele>349</ele>
        <time>2013-06-30T10:06:16Z</time>
      </trkpt>
      <trkpt lat="48.68549" lon="6.12823">
        <ele>352</ele>
        <time>2013-06-30T10:06:18Z</time>
      </trkpt>
      <trkpt lat="48.68539" lon="6.12831">
        <ele>352</ele>
        <time>2013-06-30T10:06:20Z</time>
      </trkpt>
      <trkpt lat="48.68529" lon="6.12838">
        <ele>351</ele>
        <time>2013-06-30T10:06:22Z</time>
      </trkpt>
      <trkpt lat="48.68518" lon="6.12846">
        <ele>351</ele>
        <time>2013-06-30T10:06:24Z</time>
      </trkpt>
      <trkpt lat="48.68508" lon="6.12852">
        <ele>353</ele>
        <time>2013-06-30T10:06:26Z</time>
      </trkpt>
      <trkpt lat="48.68499" lon="6.12859">
        <ele>354</ele>
        <time>2013-06-30T10:06:28Z</time>
      </trkpt>
      <trkpt lat="48.6849" lon="6.12865">
        <ele>353</ele>
        <time>2013-06-30T10:06:30Z</time>
      </trkpt>
      <trkpt lat="48.68481" lon="6.12873">
        <ele>351</ele>
        <time>2013-06-30T10:06:32Z</time>
      </trkpt>
      <trkpt lat="48.68472" lon="6.12883">
        <ele>351</ele>
        <time>2013-06-30T10:06:34Z</time>
      </trkpt>
      <trkpt lat="48.68461" lon="6.12887">
        <ele>352</ele>
        <time>2013-06-30T10:06:36Z</time>
      </trkpt>
      <trkpt lat="48.68453" lon="6.12886">
        <ele>353</ele>
        <time>2013-06-30T10:06:38Z</time>
      </trkpt>
      <trkpt lat="48.68448" lon="6.12881">
        <ele>355</ele>
        <time>2013-06-30T10:06:40Z</time>
      </trkpt>
      <trkpt lat="48.68444" lon="6.12877">
        <ele>355</ele>
        <time>2013-06-30T10:06:42Z</time>
      </trkpt>
      <trkpt lat="48.6844" lon="6.12873">
        <ele>357</ele>
        <time>2013-06-30T10:06:44Z</time>
      </trkpt>
      <trkpt lat="48.68436" lon="6.12869">
        <ele>352</ele>
        <time>2013-06-30T10:06:46Z</time>
      </trkpt>
      <trkpt lat="48.68432" lon="6.12865">
        <ele>355</ele>
        <time>2013-06-30T10:06:48Z</time>
      </trkpt>
      <trkpt lat="48.68427" lon="6.12861">
        <ele>359</ele>
        <time>2013-06-30T10:06:50Z</time>
      </trkpt>
      <trkpt lat="48.68423" lon="6.12855">
        <ele>355</ele>
        <time>2013-06-30T10:06:52Z</time>
      </trkpt>
      <trkpt lat="48.68418" lon="6.1285">
        <ele>361</ele>
        <time>2013-06-30T10:06:54Z</time>
      </trkpt>
      <trkpt lat="48.68412" lon="6.12845">
        <ele>361</ele>
        <time>2013-06-30T10:06:56Z</time>
      </trkpt>
      <trkpt lat="48.68407" lon="6.1284">
        <ele>363</ele>
        <time>2013-06-30T10:06:58Z</time>
      </trkpt>
      <trkpt lat="48.68402" lon="6.12833">
        <ele>362</ele>
        <time>2013-06-30T10:07:00Z</time>
      </trkpt>
      <trkpt lat="48.68396" lon="6.12829">
        <ele>359</ele>
        <time>2013-06-30T10:07:02Z</time>
      </trkpt>
      <trkpt lat="48.68391" lon="6.12824">
        <ele>361</ele>
        <time>2013-06-30T10:07:04Z</time>
      </trkpt>
      <trkpt lat="48.68387" lon="6.1282">
        <ele>359</ele>
        <time>2013-06-30T10:07:06Z</time>
      </trkpt>
      <trkpt lat="48.68382" lon="6.12816">
        <ele>361</ele>
        <time>2013-06-30T10:07:08Z</time>
      </trkpt>
      <trkpt lat="48.68378" lon="6.12811">
        <ele>364</ele>
        <time>2013-06-30T10:07:10Z</time>
      </trkpt>
      <trkpt lat="48.68374" lon="6.12807">
        <ele>368</ele>
        <time>2013-06-30T10:07:12Z</time>
      </trkpt>
      <trkpt lat="48.6837" lon="6.12802">
        <ele>368</ele>
        <time>2013-06-30T10:07:14Z</time>
      </trkpt>
      <trkpt lat="48.68366" lon="6.12798">
        <ele>367</ele>
        <time>2013-06-30T10:07:16Z</time>
      </trkpt>
      <trkpt lat="48.68364" lon="6.12796">
        <ele>367</ele>
        <time>2013-06-30T10:07:17Z</time>
      </trkpt>
      <trkpt lat="48.68361" lon="6.12795">
        <ele>366</ele>
        <time>2013-06-30T10:07:18Z</time>
      </trkpt>
      <trkpt lat="48.68357" lon="6.12791">
        <ele>366</ele>
        <time>2013-06-30T10:07:20Z</time>
      </trkpt>
      <trkpt lat="48.68353" lon="6.12785">
        <ele>364</ele>
        <time>2013-06-30T10:07:22Z</time>
      </trkpt>
      <trkpt lat="48.68348" lon="6.12779">
        <ele>362</ele>
        <time>2013-06-30T10:07:24Z</time>
      </trkpt>
      <trkpt lat="48.68342" lon="6.12774">
        <ele>368</ele>
        <time>2013-06-30T10:07:26Z</time>
      </trkpt>
      <trkpt lat="48.68335" lon="6.12768">
        <ele>367</ele>
        <time>2013-06-30T10:07:28Z</time>
      </trkpt>
      <trkpt lat="48.6833" lon="6.12763">
        <ele>369</ele>
        <time>2013-06-30T10:07:30Z</time>
      </trkpt>
      <trkpt lat="48.68325" lon="6.12758">
        <ele>370</ele>
        <time>2013-06-30T10:07:32Z</time>
      </trkpt>
      <trkpt lat="48.68321" lon="6.12754">
        <ele>364</ele>
        <time>2013-06-30T10:07:34Z</time>
      </trkpt>
      <trkpt lat="48.68316" lon="6.12751">
        <ele>362</ele>
        <time>2013-06-30T10:07:36Z</time>
      </trkpt>
      <trkpt lat="48.6831" lon="6.12747">
        <ele>364</ele>
        <time>2013-06-30T10:07:38Z</time>
      </trkpt>
      <trkpt lat="48.68304" lon="6.12742">
        <ele>367</ele>
        <time>2013-06-30T10:07:40Z</time>
      </trkpt>
      <trkpt lat="48.68299" lon="6.12738">
        <ele>367</ele>
        <time>2013-06-30T10:07:42Z</time>
      </trkpt>
      <trkpt lat="48.68292" lon="6.12732">
        <ele>364</ele>
        <time>2013-06-30T10:07:44Z</time>
      </trkpt>
      <trkpt lat="48.68288" lon="6.12726">
        <ele>361</ele>
        <time>2013-06-30T10:07:46Z</time>
      </trkpt>
      <trkpt lat="48.68283" lon="6.12719">
        <ele>366</ele>
        <time>2013-06-30T10:07:48Z</time>
      </trkpt>
      <trkpt lat="48.68278" lon="6.12713">
        <ele>368</ele>
        <time>2013-06-30T10:07:50Z</time>
      </trkpt>
      <trkpt lat="48.68272" lon="6.12708">
        <ele>368</ele>
        <time>2013-06-30T10:07:52Z</time>
      </trkpt>
      <trkpt lat="48.68267" lon="6.12704">
        <ele>372</ele>
        <time>2013-06-30T10:07:54Z</time>
      </trkpt>
      <trkpt lat="48.68262" lon="6.12698">
        <ele>368</ele>
        <time>2013-06-30T10:07:56Z</time>
      </trkpt>
      <trkpt lat="48.68258" lon="6.12691">
        <ele>371</ele>
        <time>2013-06-30T10:07:58Z</time>
      </trkpt>
      <trkpt lat="48.68252" lon="6.12685">
        <ele>373</ele>
        <time>2013-06-30T10:08:00Z</time>
      </trkpt>
      <trkpt lat="48.68246" lon="6.12678">
        <ele>368</ele>
        <time>2013-06-30T10:08:02Z</time>
      </trkpt>
      <trkpt lat="48.68234" lon="6.12665">
        <ele>361</ele>
        <time>2013-06-30T10:08:06Z</time>
      </trkpt>
      <trkpt lat="48.68228" lon="6.12659">
        <ele>359</ele>
        <time>2013-06-30T10:08:08Z</time>
      </trkpt>
      <trkpt lat="48.68223" lon="6.12652">
        <ele>361</ele>
        <time>2013-06-30T10:08:10Z</time>
      </trkpt>
      <trkpt lat="48.68217" lon="6.12647">
        <ele>361</ele>
        <time>2013-06-30T10:08:12Z</time>
      </trkpt>
      <trkpt lat="48.6821" lon="6.1264">
        <ele>363</ele>
        <time>2013-06-30T10:08:14Z</time>
      </trkpt>
      <trkpt lat="48.68203" lon="6.12634">
        <ele>361</ele>
        <time>2013-06-30T10:08:16Z</time>
      </trkpt>
      <trkpt lat="48.68198" lon="6.12628">
        <ele>362</ele>
        <time>2013-06-30T10:08:18Z</time>
      </trkpt>
      <trkpt lat="48.68193" lon="6.1262">
        <ele>362</ele>
        <time>2013-06-30T10:08:20Z</time>
      </trkpt>
      <trkpt lat="48.68189" lon="6.12614">
        <ele>362</ele>
        <time>2013-06-30T10:08:22Z</time>
      </trkpt>
      <trkpt lat="48.68184" lon="6.12609">
        <ele>361</ele>
        <time>2013-06-30T10:08:24Z</time>
      </trkpt>
      <trkpt lat="48.68179" lon="6.12605">
        <ele>362</ele>
        <time>2013-06-30T10:08:26Z</time>
      </trkpt>
      <trkpt lat="48.68172" lon="6.12598">
        <ele>363</ele>
        <time>2013-06-30T10:08:28Z</time>
      </trkpt>
      <trkpt lat="48.68167" lon="6.12592">
        <ele>366</ele>
        <time>2013-06-30T10:08:30Z</time>
      </trkpt>
      <trkpt lat="48.68161" lon="6.12583">
        <ele>368</ele>
        <time>2013-06-30T10:08:32Z</time>
      </trkpt>
      <trkpt lat="48.68159" lon="6.12574">
        <ele>366</ele>
        <time>2013-06-30T10:08:34Z</time>
      </trkpt>
      <trkpt lat="48.68156" lon="6.12566">
        <ele>368</ele>
        <time>2013-06-30T10:08:36Z</time>
      </trkpt>
      <trkpt lat="48.68153" lon="6.12558">
        <ele>368</ele>
        <time>2013-06-30T10:08:38Z</time>
      </trkpt>
      <trkpt lat="48.68149" lon="6.12551">
        <ele>367</ele>
        <time>2013-06-30T10:08:40Z</time>
      </trkpt>
      <trkpt lat="48.68146" lon="6.12545">
        <ele>368</ele>
        <time>2013-06-30T10:08:42Z</time>
      </trkpt>
      <trkpt lat="48.68143" lon="6.12537">
        <ele>369</ele>
        <time>2013-06-30T10:08:44Z</time>
      </trkpt>
      <trkpt lat="48.68138" lon="6.1253">
        <ele>366</ele>
        <time>2013-06-30T10:08:46Z</time>
      </trkpt>
      <trkpt lat="48.68137" lon="6.12521">
        <ele>372</ele>
        <time>2013-06-30T10:08:48Z</time>
      </trkpt>
      <trkpt lat="48.68137" lon="6.12511">
        <ele>374</ele>
        <time>2013-06-30T10:08:50Z</time>
      </trkpt>
      <trkpt lat="48.68135" lon="6.12502">
        <ele>374</ele>
        <time>2013-06-30T10:08:52Z</time>
      </trkpt>
      <trkpt lat="48.68132" lon="6.12493">
        <ele>372</ele>
        <time>2013-06-30T10:08:54Z</time>
      </trkpt>
      <trkpt lat="48.68129" lon="6.12485">
        <ele>373</ele>
        <time>2013-06-30T10:08:56Z</time>
      </trkpt>
      <trkpt lat="48.68124" lon="6.12478">
        <ele>379</ele>
        <time>2013-06-30T10:08:58Z</time>
      </trkpt>
      <trkpt lat="48.6812" lon="6.12469">
        <ele>384</ele>
        <time>2013-06-30T10:09:00Z</time>
      </trkpt>
      <trkpt lat="48.68118" lon="6.12462">
        <ele>385</ele>
        <time>2013-06-30T10:09:02Z</time>
      </trkpt>
      <trkpt lat="48.68116" lon="6.12456">
        <ele>387</ele>
        <time>2013-06-30T10:09:04Z</time>
      </trkpt>
      <trkpt lat="48.68116" lon="6.12447">
        <ele>387</ele>
        <time>2013-06-30T10:09:06Z</time>
      </trkpt>
      <trkpt lat="48.68115" lon="6.12438">
        <ele>392</ele>
        <time>2013-06-30T10:09:08Z</time>
      </trkpt>
      <trkpt lat="48.68113" lon="6.12429">
        <ele>388</ele>
        <time>2013-06-30T10:09:10Z</time>
      </trkpt>
      <trkpt lat="48.68112" lon="6.1242">
        <ele>383</ele>
        <time>2013-06-30T10:09:12Z</time>
      </trkpt>
      <trkpt lat="48.68109" lon="6.1241">
        <ele>387</ele>
        <time>2013-06-30T10:09:14Z</time>
      </trkpt>
      <trkpt lat="48.68107" lon="6.124">
        <ele>387</ele>
        <time>2013-06-30T10:09:16Z</time>
      </trkpt>
      <trkpt lat="48.68105" lon="6.12389">
        <ele>395</ele>
        <time>2013-06-30T10:09:18Z</time>
      </trkpt>
      <trkpt lat="48.68103" lon="6.12377">
        <ele>393</ele>
        <time>2013-06-30T10:09:20Z</time>
      </trkpt>
      <trkpt lat="48.68098" lon="6.12361">
        <ele>393</ele>
        <time>2013-06-30T10:09:22Z</time>
      </trkpt>
      <trkpt lat="48.68092" lon="6.12349">
        <ele>394</ele>
        <time>2013-06-30T10:09:24Z</time>
      </trkpt>
      <trkpt lat="48.68087" lon="6.12336">
        <ele>391</ele>
        <time>2013-06-30T10:09:26Z</time>
      </trkpt>
      <trkpt lat="48.6808" lon="6.12321">
        <ele>394</ele>
        <time>2013-06-30T10:09:29Z</time>
      </trkpt>
      <trkpt lat="48.68076" lon="6.12311">
        <ele>392</ele>
        <time>2013-06-30T10:09:31Z</time>
      </trkpt>
      <trkpt lat="48.68073" lon="6.12299">
        <ele>392</ele>
        <time>2013-06-30T10:09:33Z</time>
      </trkpt>
      <trkpt lat="48.68068" lon="6.12288">
        <ele>389</ele>
        <time>2013-06-30T10:09:35Z</time>
      </trkpt>
      <trkpt lat="48.68063" lon="6.12276">
        <ele>387</ele>
        <time>2013-06-30T10:09:37Z</time>
      </trkpt>
      <trkpt lat="48.68058" lon="6.12263">
        <ele>383</ele>
        <time>2013-06-30T10:09:39Z</time>
      </trkpt>
      <trkpt lat="48.68054" lon="6.12253">
        <ele>378</ele>
        <time>2013-06-30T10:09:41Z</time>
      </trkpt>
      <trkpt lat="48.6805" lon="6.1224">
        <ele>384</ele>
        <time>2013-06-30T10:09:43Z</time>
      </trkpt>
      <trkpt lat="48.68047" lon="6.12228">
        <ele>387</ele>
        <time>2013-06-30T10:09:45Z</time>
      </trkpt>
      <trkpt lat="48.68045" lon="6.12218">
        <ele>386</ele>
        <time>2013-06-30T10:09:47Z</time>
      </trkpt>
      <trkpt lat="48.68042" lon="6.12209">
        <ele>381</ele>
        <time>2013-06-30T10:09:49Z</time>
      </trkpt>
      <trkpt lat="48.68039" lon="6.12198">
        <ele>380</ele>
        <time>2013-06-30T10:09:51Z</time>
      </trkpt>
      <trkpt lat="48.68037" lon="6.12187">
        <ele>378</ele>
        <time>2013-06-30T10:09:53Z</time>
      </trkpt>
      <trkpt lat="48.68033" lon="6.12173">
        <ele>377</ele>
        <time>2013-06-30T10:09:55Z</time>
      </trkpt>
      <trkpt lat="48.68029" lon="6.1216">
        <ele>378</ele>
        <time>2013-06-30T10:09:57Z</time>
      </trkpt>
      <trkpt lat="48.68026" lon="6.12147">
        <ele>373</ele>
        <time>2013-06-30T10:09:59Z</time>
      </trkpt>
      <trkpt lat="48.68024" lon="6.12135">
        <ele>373</ele>
        <time>2013-06-30T10:10:01Z</time>
      </trkpt>
      <trkpt lat="48.6802" lon="6.12122">
        <ele>372</ele>
        <time>2013-06-30T10:10:03Z</time>
      </trkpt>
      <trkpt lat="48.68016" lon="6.1211">
        <ele>370</ele>
        <time>2013-06-30T10:10:05Z</time>
      </trkpt>
      <trkpt lat="48.68013" lon="6.12101">
        <ele>368</ele>
        <time>2013-06-30T10:10:07Z</time>
      </trkpt>
      <trkpt lat="48.68011" lon="6.12091">
        <ele>369</ele>
        <time>2013-06-30T10:10:09Z</time>
      </trkpt>
      <trkpt lat="48.68008" lon="6.12081">
        <ele>369</ele>
        <time>2013-06-30T10:10:11Z</time>
      </trkpt>
      <trkpt lat="48.68005" lon="6.12069">
        <ele>365</ele>
        <time>2013-06-30T10:10:13Z</time>
      </trkpt>
      <trkpt lat="48.68002" lon="6.12058">
        <ele>365</ele>
        <time>2013-06-30T10:10:15Z</time>
      </trkpt>
      <trkpt lat="48.67999" lon="6.12048">
        <ele>363</ele>
        <time>2013-06-30T10:10:17Z</time>
      </trkpt>
      <trkpt lat="48.67996" lon="6.12037">
        <ele>363</ele>
        <time>2013-06-30T10:10:19Z</time>
      </trkpt>
      <trkpt lat="48.67992" lon="6.12025">
        <ele>356</ele>
        <time>2013-06-30T10:10:21Z</time>
      </trkpt>
      <trkpt lat="48.67988" lon="6.12013">
        <ele>352</ele>
        <time>2013-06-30T10:10:23Z</time>
      </trkpt>
      <trkpt lat="48.67985" lon="6.12009">
        <ele>350</ele>
        <time>2013-06-30T10:10:24Z</time>
      </trkpt>
      <trkpt lat="48.67981" lon="6.12007">
        <ele>348</ele>
        <time>2013-06-30T10:10:25Z</time>
      </trkpt>
      <trkpt lat="48.67973" lon="6.12006">
        <ele>348</ele>
        <time>2013-06-30T10:10:27Z</time>
      </trkpt>
      <trkpt lat="48.67967" lon="6.12008">
        <ele>349</ele>
        <time>2013-06-30T10:10:29Z</time>
      </trkpt>
      <trkpt lat="48.67962" lon="6.1201">
        <ele>350</ele>
        <time>2013-06-30T10:10:31Z</time>
      </trkpt>
      <trkpt lat="48.67957" lon="6.12011">
        <ele>351</ele>
        <time>2013-06-30T10:10:33Z</time>
      </trkpt>
      <trkpt lat="48.67951" lon="6.12014">
        <ele>351</ele>
        <time>2013-06-30T10:10:35Z</time>
      </trkpt>
      <trkpt lat="48.67946" lon="6.12016">
        <ele>351</ele>
        <time>2013-06-30T10:10:37Z</time>
      </trkpt>
      <trkpt lat="48.67939" lon="6.12018">
        <ele>350</ele>
        <time>2013-06-30T10:10:39Z</time>
      </trkpt>
      <trkpt lat="48.67932" lon="6.1202">
        <ele>350</ele>
        <time>2013-06-30T10:10:41Z</time>
      </trkpt>
      <trkpt lat="48.67926" lon="6.12023">
        <ele>350</ele>
        <time>2013-06-30T10:10:43Z</time>
      </trkpt>
      <trkpt lat="48.67919" lon="6.12024">
        <ele>351</ele>
        <time>2013-06-30T10:10:45Z</time>
      </trkpt>
      <trkpt lat="48.67912" lon="6.12026">
        <ele>350</ele>
        <time>2013-06-30T10:10:47Z</time>
      </trkpt>
      <trkpt lat="48.67905" lon="6.12026">
        <ele>350</ele>
        <time>2013-06-30T10:10:49Z</time>
      </trkpt>
      <trkpt lat="48.67897" lon="6.12026">
        <ele>350</ele>
        <time>2013-06-30T10:10:51Z</time>
      </trkpt>
      <trkpt lat="48.6789" lon="6.12027">
        <ele>350</ele>
        <time>2013-06-30T10:10:53Z</time>
      </trkpt>
      <trkpt lat="48.67882" lon="6.12028">
        <ele>349</ele>
        <time>2013-06-30T10:10:55Z</time>
      </trkpt>
      <trkpt lat="48.67876" lon="6.1203">
        <ele>350</ele>
        <time>2013-06-30T10:10:57Z</time>
      </trkpt>
      <trkpt lat="48.67869" lon="6.12031">
        <ele>350</ele>
        <time>2013-06-30T10:10:59Z</time>
      </trkpt>
      <trkpt lat="48.67862" lon="6.12033">
        <ele>349</ele>
        <time>2013-06-30T10:11:01Z</time>
      </trkpt>
      <trkpt lat="48.67856" lon="6.12036">
        <ele>347</ele>
        <time>2013-06-30T10:11:03Z</time>
      </trkpt>
      <trkpt lat="48.67849" lon="6.12038">
        <ele>346</ele>
        <time>2013-06-30T10:11:05Z</time>
      </trkpt>
      <trkpt lat="48.67842" lon="6.1204">
        <ele>346</ele>
        <time>2013-06-30T10:11:07Z</time>
      </trkpt>
      <trkpt lat="48.67835" lon="6.12042">
        <ele>346</ele>
        <time>2013-06-30T10:11:09Z</time>
      </trkpt>
      <trkpt lat="48.67828" lon="6.12044">
        <ele>348</ele>
        <time>2013-06-30T10:11:11Z</time>
      </trkpt>
      <trkpt lat="48.67822" lon="6.12046">
        <ele>349</ele>
        <time>2013-06-30T10:11:13Z</time>
      </trkpt>
      <trkpt lat="48.67815" lon="6.12048">
        <ele>348</ele>
        <time>2013-06-30T10:11:15Z</time>
      </trkpt>
      <trkpt lat="48.67808" lon="6.1205">
        <ele>347</ele>
        <time>2013-06-30T10:11:17Z</time>
      </trkpt>
      <trkpt lat="48.67801" lon="6.12054">
        <ele>345</ele>
        <time>2013-06-30T10:11:19Z</time>
      </trkpt>
      <trkpt lat="48.67793" lon="6.12057">
        <ele>345</ele>
        <time>2013-06-30T10:11:21Z</time>
      </trkpt>
      <trkpt lat="48.67785" lon="6.1206">
        <ele>346</ele>
        <time>2013-06-30T10:11:23Z</time>
      </trkpt>
      <trkpt lat="48.67778" lon="6.12062">
        <ele>347</ele>
        <time>2013-06-30T10:11:25Z</time>
      </trkpt>
      <trkpt lat="48.67771" lon="6.12064">
        <ele>346</ele>
        <time>2013-06-30T10:11:27Z</time>
      </trkpt>
      <trkpt lat="48.67764" lon="6.12067">
        <ele>348</ele>
        <time>2013-06-30T10:11:29Z</time>
      </trkpt>
      <trkpt lat="48.67757" lon="6.1207">
        <ele>349</ele>
        <time>2013-06-30T10:11:31Z</time>
      </trkpt>
      <trkpt lat="48.67753" lon="6.12071">
        <ele>348</ele>
        <time>2013-06-30T10:11:32Z</time>
      </trkpt>
      <trkpt lat="48.67743" lon="6.12075">
        <ele>348</ele>
        <time>2013-06-30T10:11:34Z</time>
      </trkpt>
      <trkpt lat="48.67732" lon="6.12078">
        <ele>347</ele>
        <time>2013-06-30T10:11:36Z</time>
      </trkpt>
      <trkpt lat="48.67724" lon="6.1208">
        <ele>349</ele>
        <time>2013-06-30T10:11:38Z</time>
      </trkpt>
      <trkpt lat="48.67719" lon="6.12082">
        <ele>346</ele>
        <time>2013-06-30T10:11:40Z</time>
      </trkpt>
      <trkpt lat="48.67714" lon="6.12083">
        <ele>348</ele>
        <time>2013-06-30T10:11:42Z</time>
      </trkpt>
      <trkpt lat="48.6771" lon="6.12084">
        <ele>349</ele>
        <time>2013-06-30T10:11:44Z</time>
      </trkpt>
      <trkpt lat="48.67704" lon="6.12086">
        <ele>349</ele>
        <time>2013-06-30T10:11:46Z</time>
      </trkpt>
      <trkpt lat="48.67697" lon="6.12087">
        <ele>347</ele>
        <time>2013-06-30T10:11:48Z</time>
      </trkpt>
      <trkpt lat="48.6769" lon="6.12088">
        <ele>347</ele>
        <time>2013-06-30T10:11:50Z</time>
      </trkpt>
      <trkpt lat="48.67684" lon="6.12089">
        <ele>348</ele>
        <time>2013-06-30T10:11:52Z</time>
      </trkpt>
      <trkpt lat="48.67678" lon="6.12091">
        <ele>349</ele>
        <time>2013-06-30T10:11:54Z</time>
      </trkpt>
      <trkpt lat="48.67673" lon="6.12095">
        <ele>350</ele>
        <time>2013-06-30T10:11:56Z</time>
      </trkpt>
      <trkpt lat="48.67668" lon="6.12099">
        <ele>349</ele>
        <time>2013-06-30T10:11:58Z</time>
      </trkpt>
      <trkpt lat="48.67663" lon="6.12102">
        <ele>347</ele>
        <time>2013-06-30T10:12:00Z</time>
      </trkpt>
      <trkpt lat="48.67659" lon="6.12104">
        <ele>347</ele>
        <time>2013-06-30T10:12:02Z</time>
      </trkpt>
      <trkpt lat="48.67656" lon="6.12103">
        <ele>347</ele>
        <time>2013-06-30T10:12:04Z</time>
      </trkpt>
      <trkpt lat="48.67653" lon="6.12105">
        <ele>351</ele>
        <time>2013-06-30T10:12:06Z</time>
      </trkpt>
      <trkpt lat="48.6765" lon="6.12111">
        <ele>350</ele>
        <time>2013-06-30T10:12:08Z</time>
      </trkpt>
      <trkpt lat="48.67647" lon="6.12114">
        <ele>351</ele>
        <time>2013-06-30T10:12:10Z</time>
      </trkpt>
      <trkpt lat="48.67643" lon="6.12116">
        <ele>352</ele>
        <time>2013-06-30T10:12:12Z</time>
      </trkpt>
      <trkpt lat="48.67638" lon="6.12119">
        <ele>353</ele>
        <time>2013-06-30T10:12:14Z</time>
      </trkpt>
      <trkpt lat="48.67635" lon="6.12122">
        <ele>355</ele>
        <time>2013-06-30T10:12:16Z</time>
      </trkpt>
      <trkpt lat="48.67632" lon="6.12128">
        <ele>359</ele>
        <time>2013-06-30T10:12:18Z</time>
      </trkpt>
      <trkpt lat="48.67627" lon="6.12132">
        <ele>355</ele>
        <time>2013-06-30T10:12:20Z</time>
      </trkpt>
      <trkpt lat="48.67623" lon="6.12136">
        <ele>356</ele>
        <time>2013-06-30T10:12:22Z</time>
      </trkpt>
      <trkpt lat="48.67619" lon="6.12139">
        <ele>356</ele>
        <time>2013-06-30T10:12:24Z</time>
      </trkpt>
      <trkpt lat="48.67612" lon="6.12135">
        <ele>352</ele>
        <time>2013-06-30T10:12:26Z</time>
      </trkpt>
      <trkpt lat="48.67597" lon="6.12133">
        <ele>352</ele>
        <time>2013-06-30T10:12:29Z</time>
      </trkpt>
      <trkpt lat="48.67588" lon="6.12132">
        <ele>352</ele>
        <time>2013-06-30T10:12:31Z</time>
      </trkpt>
      <trkpt lat="48.6758" lon="6.12131">
        <ele>351</ele>
        <time>2013-06-30T10:12:33Z</time>
      </trkpt>
      <trkpt lat="48.67573" lon="6.12131">
        <ele>350</ele>
        <time>2013-06-30T10:12:35Z</time>
      </trkpt>
      <trkpt lat="48.67567" lon="6.12132">
        <ele>350</ele>
        <time>2013-06-30T10:12:37Z</time>
      </trkpt>
      <trkpt lat="48.67562" lon="6.12132">
        <ele>351</ele>
        <time>2013-06-30T10:12:39Z</time>
      </trkpt>
      <trkpt lat="48.67557" lon="6.12133">
        <ele>351</ele>
        <time>2013-06-30T10:12:41Z</time>
      </trkpt>
      <trkpt lat="48.67552" lon="6.12135">
        <ele>352</ele>
        <time>2013-06-30T10:12:43Z</time>
      </trkpt>
      <trkpt lat="48.67547" lon="6.12138">
        <ele>351</ele>
        <time>2013-06-30T10:12:45Z</time>
      </trkpt>
      <trkpt lat="48.67542" lon="6.12139">
        <ele>351</ele>
        <time>2013-06-30T10:12:47Z</time>
      </trkpt>
      <trkpt lat="48.67537" lon="6.12141">
        <ele>350</ele>
        <time>2013-06-30T10:12:49Z</time>
      </trkpt>
      <trkpt lat="48.67533" lon="6.12144">
        <ele>350</ele>
        <time>2013-06-30T10:12:51Z</time>
      </trkpt>
      <trkpt lat="48.67528" lon="6.12146">
        <ele>350</ele>
        <time>2013-06-30T10:12:53Z</time>
      </trkpt>
      <trkpt lat="48.67523" lon="6.12147">
        <ele>351</ele>
        <time>2013-06-30T10:12:55Z</time>
      </trkpt>
      <trkpt lat="48.67518" lon="6.12147">
        <ele>351</ele>
        <time>2013-06-30T10:12:57Z</time>
      </trkpt>
      <trkpt lat="48.67513" lon="6.12149">
        <ele>352</ele>
        <time>2013-06-30T10:12:59Z</time>
      </trkpt>
      <trkpt lat="48.67508" lon="6.12151">
        <ele>353</ele>
        <time>2013-06-30T10:13:01Z</time>
      </trkpt>
      <trkpt lat="48.67503" lon="6.12152">
        <ele>353</ele>
        <time>2013-06-30T10:13:03Z</time>
      </trkpt>
      <trkpt lat="48.67497" lon="6.12153">
        <ele>353</ele>
        <time>2013-06-30T10:13:05Z</time>
      </trkpt>
      <trkpt lat="48.67492" lon="6.12155">
        <ele>353</ele>
        <time>2013-06-30T10:13:07Z</time>
      </trkpt>
      <trkpt lat="48.67487" lon="6.12156">
        <ele>353</ele>
        <time>2013-06-30T10:13:09Z</time>
      </trkpt>
      <trkpt lat="48.67482" lon="6.12157">
        <ele>353</ele>
        <time>2013-06-30T10:13:11Z</time>
      </trkpt>
      <trkpt lat="48.67477" lon="6.12159">
        <ele>353</ele>
        <time>2013-06-30T10:13:13Z</time>
      </trkpt>
      <trkpt lat="48.67473" lon="6.1216">
        <ele>354</ele>
        <time>2013-06-30T10:13:15Z</time>
      </trkpt>
      <trkpt lat="48.67468" lon="6.12161">
        <ele>353</ele>
        <time>2013-06-30T10:13:17Z</time>
      </trkpt>
      <trkpt lat="48.67463" lon="6.12162">
        <ele>354</ele>
        <time>2013-06-30T10:13:19Z</time>
      </trkpt>
      <trkpt lat="48.67457" lon="6.12162">
        <ele>353</ele>
        <time>2013-06-30T10:13:21Z</time>
      </trkpt>
      <trkpt lat="48.67452" lon="6.12163">
        <ele>352</ele>
        <time>2013-06-30T10:13:23Z</time>
      </trkpt>
      <trkpt lat="48.67447" lon="6.12164">
        <ele>352</ele>
        <time>2013-06-30T10:13:25Z</time>
      </trkpt>
      <trkpt lat="48.67442" lon="6.12165">
        <ele>352</ele>
        <time>2013-06-30T10:13:27Z</time>
      </trkpt>
      <trkpt lat="48.67437" lon="6.12167">
        <ele>352</ele>
        <time>2013-06-30T10:13:29Z</time>
      </trkpt>
      <trkpt lat="48.67433" lon="6.1217">
        <ele>351</ele>
        <time>2013-06-30T10:13:31Z</time>
      </trkpt>
      <trkpt lat="48.67428" lon="6.12172">
        <ele>353</ele>
        <time>2013-06-30T10:13:33Z</time>
      </trkpt>
      <trkpt lat="48.67423" lon="6.12174">
        <ele>354</ele>
        <time>2013-06-30T10:13:35Z</time>
      </trkpt>
      <trkpt lat="48.67418" lon="6.12176">
        <ele>353</ele>
        <time>2013-06-30T10:13:37Z</time>
      </trkpt>
      <trkpt lat="48.67413" lon="6.12178">
        <ele>353</ele>
        <time>2013-06-30T10:13:39Z</time>
      </trkpt>
      <trkpt lat="48.67409" lon="6.12177">
        <ele>354</ele>
        <time>2013-06-30T10:13:41Z</time>
      </trkpt>
      <trkpt lat="48.67406" lon="6.12171">
        <ele>357</ele>
        <time>2013-06-30T10:13:43Z</time>
      </trkpt>
      <trkpt lat="48.67403" lon="6.12164">
        <ele>359</ele>
        <time>2013-06-30T10:13:45Z</time>
      </trkpt>
      <trkpt lat="48.67401" lon="6.12159">
        <ele>360</ele>
        <time>2013-06-30T10:13:47Z</time>
      </trkpt>
      <trkpt lat="48.674" lon="6.12152">
        <ele>362</ele>
        <time>2013-06-30T10:13:49Z</time>
      </trkpt>
      <trkpt lat="48.67398" lon="6.12148">
        <ele>360</ele>
        <time>2013-06-30T10:13:51Z</time>
      </trkpt>
      <trkpt lat="48.67397" lon="6.12142">
        <ele>361</ele>
        <time>2013-06-30T10:13:53Z</time>
      </trkpt>
      <trkpt lat="48.67395" lon="6.12136">
        <ele>362</ele>
        <time>2013-06-30T10:13:55Z</time>
      </trkpt>
      <trkpt lat="48.67394" lon="6.1213">
        <ele>360</ele>
        <time>2013-06-30T10:13:57Z</time>
      </trkpt>
      <trkpt lat="48.67394" lon="6.12124">
        <ele>361</ele>
        <time>2013-06-30T10:13:59Z</time>
      </trkpt>
      <trkpt lat="48.67393" lon="6.12117">
        <ele>359</ele>
        <time>2013-06-30T10:14:01Z</time>
      </trkpt>
      <trkpt lat="48.67392" lon="6.12111">
        <ele>361</ele>
        <time>2013-06-30T10:14:03Z</time>
      </trkpt>
      <trkpt lat="48.67391" lon="6.12102">
        <ele>361</ele>
        <time>2013-06-30T10:14:05Z</time>
      </trkpt>
      <trkpt lat="48.6739" lon="6.12092">
        <ele>360</ele>
        <time>2013-06-30T10:14:07Z</time>
      </trkpt>
      <trkpt lat="48.6739" lon="6.12083">
        <ele>361</ele>
        <time>2013-06-30T10:14:09Z</time>
      </trkpt>
      <trkpt lat="48.67391" lon="6.12074">
        <ele>360</ele>
        <time>2013-06-30T10:14:11Z</time>
      </trkpt>
      <trkpt lat="48.67392" lon="6.12068">
        <ele>359</ele>
        <time>2013-06-30T10:14:13Z</time>
      </trkpt>
      <trkpt lat="48.67393" lon="6.12061">
        <ele>363</ele>
        <time>2013-06-30T10:14:15Z</time>
      </trkpt>
      <trkpt lat="48.67395" lon="6.12054">
        <ele>362</ele>
        <time>2013-06-30T10:14:17Z</time>
      </trkpt>
      <trkpt lat="48.67395" lon="6.12048">
        <ele>368</ele>
        <time>2013-06-30T10:14:19Z</time>
      </trkpt>
      <trkpt lat="48.67395" lon="6.12041">
        <ele>368</ele>
        <time>2013-06-30T10:14:21Z</time>
      </trkpt>
      <trkpt lat="48.67395" lon="6.12035">
        <ele>375</ele>
        <time>2013-06-30T10:14:23Z</time>
      </trkpt>
      <trkpt lat="48.67395" lon="6.1203">
        <ele>375</ele>
        <time>2013-06-30T10:14:25Z</time>
      </trkpt>
      <trkpt lat="48.67396" lon="6.12025">
        <ele>375</ele>
        <time>2013-06-30T10:14:27Z</time>
      </trkpt>
      <trkpt lat="48.67397" lon="6.1202">
        <ele>372</ele>
        <time>2013-06-30T10:14:29Z</time>
      </trkpt>
      <trkpt lat="48.67398" lon="6.12015">
        <ele>370</ele>
        <time>2013-06-30T10:14:31Z</time>
      </trkpt>
      <trkpt lat="48.674" lon="6.1201">
        <ele>366</ele>
        <time>2013-06-30T10:14:33Z</time>
      </trkpt>
      <trkpt lat="48.674" lon="6.12004">
        <ele>369</ele>
        <time>2013-06-30T10:14:35Z</time>
      </trkpt>
      <trkpt lat="48.674" lon="6.11999">
        <ele>368</ele>
        <time>2013-06-30T10:14:37Z</time>
      </trkpt>
      <trkpt lat="48.67403" lon="6.11987">
        <ele>370</ele>
        <time>2013-06-30T10:14:41Z</time>
      </trkpt>
      <trkpt lat="48.67405" lon="6.11981">
        <ele>372</ele>
        <time>2013-06-30T10:14:43Z</time>
      </trkpt>
      <trkpt lat="48.67405" lon="6.11978">
        <ele>376</ele>
        <time>2013-06-30T10:14:45Z</time>
      </trkpt>
      <trkpt lat="48.67405" lon="6.11972">
        <ele>375</ele>
        <time>2013-06-30T10:14:49Z</time>
      </trkpt>
      <trkpt lat="48.67405" lon="6.11969">
        <ele>375</ele>
        <time>2013-06-30T10:14:51Z</time>
      </trkpt>
      <trkpt lat="48.67405" lon="6.11966">
        <ele>376</ele>
        <time>2013-06-30T10:14:53Z</time>
      </trkpt>
      <trkpt lat="48.67404" lon="6.11963">
        <ele>376</ele>
        <time>2013-06-30T10:14:55Z</time>
      </trkpt>
      <trkpt lat="48.67403" lon="6.11959">
        <ele>374</ele>
        <time>2013-06-30T10:14:57Z</time>
      </trkpt>
      <trkpt lat="48.67402" lon="6.11954">
        <ele>375</ele>
        <time>2013-06-30T10:14:59Z</time>
      </trkpt>
      <trkpt lat="48.67402" lon="6.11951">
        <ele>372</ele>
        <time>2013-06-30T10:15:01Z</time>
      </trkpt>
      <trkpt lat="48.67403" lon="6.11941">
        <ele>365</ele>
        <time>2013-06-30T10:15:05Z</time>
      </trkpt>
      <trkpt lat="48.67405" lon="6.11933">
        <ele>367</ele>
        <time>2013-06-30T10:15:09Z</time>
      </trkpt>
      <trkpt lat="48.67406" lon="6.11927">
        <ele>363</ele>
        <time>2013-06-30T10:15:13Z</time>
      </trkpt>
      <trkpt lat="48.67406" lon="6.11925">
        <ele>361</ele>
        <time>2013-06-30T10:15:15Z</time>
      </trkpt>
      <trkpt lat="48.67405" lon="6.11922">
        <ele>361</ele>
        <time>2013-06-30T10:15:17Z</time>
      </trkpt>
      <trkpt lat="48.67406" lon="6.11918">
        <ele>360</ele>
        <time>2013-06-30T10:15:19Z</time>
      </trkpt>
      <trkpt lat="48.67409" lon="6.11895">
        <ele>360</ele>
        <time>2013-06-30T10:15:27Z</time>
      </trkpt>
      <trkpt lat="48.67409" lon="6.1189">
        <ele>364</ele>
        <time>2013-06-30T10:15:29Z</time>
      </trkpt>
      <trkpt lat="48.6741" lon="6.11885">
        <ele>368</ele>
        <time>2013-06-30T10:15:31Z</time>
      </trkpt>
      <trkpt lat="48.6741" lon="6.11879">
        <ele>371</ele>
        <time>2013-06-30T10:15:33Z</time>
      </trkpt>
      <trkpt lat="48.67411" lon="6.11875">
        <ele>375</ele>
        <time>2013-06-30T10:15:35Z</time>
      </trkpt>
      <trkpt lat="48.67412" lon="6.11868">
        <ele>376</ele>
        <time>2013-06-30T10:15:37Z</time>
      </trkpt>
      <trkpt lat="48.67414" lon="6.1186">
        <ele>378</ele>
        <time>2013-06-30T10:15:39Z</time>
      </trkpt>
      <trkpt lat="48.67414" lon="6.11852">
        <ele>381</ele>
        <time>2013-06-30T10:15:41Z</time>
      </trkpt>
      <trkpt lat="48.67413" lon="6.11846">
        <ele>379</ele>
        <time>2013-06-30T10:15:43Z</time>
      </trkpt>
      <trkpt lat="48.67413" lon="6.11839">
        <ele>380</ele>
        <time>2013-06-30T10:15:45Z</time>
      </trkpt>
      <trkpt lat="48.67413" lon="6.11831">
        <ele>376</ele>
        <time>2013-06-30T10:15:47Z</time>
      </trkpt>
      <trkpt lat="48.67412" lon="6.11826">
        <ele>375</ele>
        <time>2013-06-30T10:15:49Z</time>
      </trkpt>
      <trkpt lat="48.67411" lon="6.1182">
        <ele>379</ele>
        <time>2013-06-30T10:15:51Z</time>
      </trkpt>
      <trkpt lat="48.67411" lon="6.1181">
        <ele>374</ele>
        <time>2013-06-30T10:15:53Z</time>
      </trkpt>
      <trkpt lat="48.67412" lon="6.11802">
        <ele>370</ele>
        <time>2013-06-30T10:15:55Z</time>
      </trkpt>
      <trkpt lat="48.67413" lon="6.11794">
        <ele>374</ele>
        <time>2013-06-30T10:15:57Z</time>
      </trkpt>
      <trkpt lat="48.67415" lon="6.11774">
        <ele>369</ele>
        <time>2013-06-30T10:16:03Z</time>
      </trkpt>
      <trkpt lat="48.67416" lon="6.11768">
        <ele>371</ele>
        <time>2013-06-30T10:16:05Z</time>
      </trkpt>
      <trkpt lat="48.67419" lon="6.1176">
        <ele>373</ele>
        <time>2013-06-30T10:16:07Z</time>
      </trkpt>
      <trkpt lat="48.6742" lon="6.1175">
        <ele>373</ele>
        <time>2013-06-30T10:16:09Z</time>
      </trkpt>
      <trkpt lat="48.67421" lon="6.11741">
        <ele>372</ele>
        <time>2013-06-30T10:16:11Z</time>
      </trkpt>
      <trkpt lat="48.67422" lon="6.11732">
        <ele>371</ele>
        <time>2013-06-30T10:16:13Z</time>
      </trkpt>
      <trkpt lat="48.67423" lon="6.11723">
        <ele>367</ele>
        <time>2013-06-30T10:16:15Z</time>
      </trkpt>
      <trkpt lat="48.67424" lon="6.11712">
        <ele>366</ele>
        <time>2013-06-30T10:16:17Z</time>
      </trkpt>
      <trkpt lat="48.67425" lon="6.11704">
        <ele>365</ele>
        <time>2013-06-30T10:16:19Z</time>
      </trkpt>
      <trkpt lat="48.67425" lon="6.11697">
        <ele>370</ele>
        <time>2013-06-30T10:16:21Z</time>
      </trkpt>
      <trkpt lat="48.67424" lon="6.11687">
        <ele>367</ele>
        <time>2013-06-30T10:16:23Z</time>
      </trkpt>
      <trkpt lat="48.67424" lon="6.11676">
        <ele>370</ele>
        <time>2013-06-30T10:16:25Z</time>
      </trkpt>
      <trkpt lat="48.67425" lon="6.11665">
        <ele>370</ele>
        <time>2013-06-30T10:16:27Z</time>
      </trkpt>
      <trkpt lat="48.67424" lon="6.11658">
        <ele>371</ele>
        <time>2013-06-30T10:16:29Z</time>
      </trkpt>
      <trkpt lat="48.67422" lon="6.11651">
        <ele>363</ele>
        <time>2013-06-30T10:16:31Z</time>
      </trkpt>
      <trkpt lat="48.67419" lon="6.11644">
        <ele>362</ele>
        <time>2013-06-30T10:16:33Z</time>
      </trkpt>
      <trkpt lat="48.67418" lon="6.11635">
        <ele>360</ele>
        <time>2013-06-30T10:16:35Z</time>
      </trkpt>
      <trkpt lat="48.67416" lon="6.11626">
        <ele>360</ele>
        <time>2013-06-30T10:16:37Z</time>
      </trkpt>
      <trkpt lat="48.67415" lon="6.11618">
        <ele>354</ele>
        <time>2013-06-30T10:16:39Z</time>
      </trkpt>
      <trkpt lat="48.67413" lon="6.1161">
        <ele>357</ele>
        <time>2013-06-30T10:16:41Z</time>
      </trkpt>
      <trkpt lat="48.67409" lon="6.11601">
        <ele>364</ele>
        <time>2013-06-30T10:16:45Z</time>
      </trkpt>
      <trkpt lat="48.67407" lon="6.11597">
        <ele>365</ele>
        <time>2013-06-30T10:16:47Z</time>
      </trkpt>
      <trkpt lat="48.67401" lon="6.11592">
        <ele>367</ele>
        <time>2013-06-30T10:16:51Z</time>
      </trkpt>
      <trkpt lat="48.67391" lon="6.11585">
        <ele>362</ele>
        <time>2013-06-30T10:16:55Z</time>
      </trkpt>
      <trkpt lat="48.67388" lon="6.11577">
        <ele>361</ele>
        <time>2013-06-30T10:16:57Z</time>
      </trkpt>
      <trkpt lat="48.67385" lon="6.11563">
        <ele>357</ele>
        <time>2013-06-30T10:17:01Z</time>
      </trkpt>
      <trkpt lat="48.67383" lon="6.11557">
        <ele>354</ele>
        <time>2013-06-30T10:17:03Z</time>
      </trkpt>
      <trkpt lat="48.67382" lon="6.11553">
        <ele>355</ele>
        <time>2013-06-30T10:17:05Z</time>
      </trkpt>
      <trkpt lat="48.67382" lon="6.11547">
        <ele>349</ele>
        <time>2013-06-30T10:17:07Z</time>
      </trkpt>
      <trkpt lat="48.67381" lon="6.1154">
        <ele>346</ele>
        <time>2013-06-30T10:17:09Z</time>
      </trkpt>
      <trkpt lat="48.67382" lon="6.11534">
        <ele>347</ele>
        <time>2013-06-30T10:17:11Z</time>
      </trkpt>
      <trkpt lat="48.67379" lon="6.11525">
        <ele>346</ele>
        <time>2013-06-30T10:17:13Z</time>
      </trkpt>
      <trkpt lat="48.67378" lon="6.11518">
        <ele>346</ele>
        <time>2013-06-30T10:17:15Z</time>
      </trkpt>
      <trkpt lat="48.67375" lon="6.11512">
        <ele>343</ele>
        <time>2013-06-30T10:17:17Z</time>
      </trkpt>
      <trkpt lat="48.67373" lon="6.11507">
        <ele>339</ele>
        <time>2013-06-30T10:17:19Z</time>
      </trkpt>
      <trkpt lat="48.67372" lon="6.11503">
        <ele>340</ele>
        <time>2013-06-30T10:17:21Z</time>
      </trkpt>
      <trkpt lat="48.67371" lon="6.115">
        <ele>341</ele>
        <time>2013-06-30T10:17:23Z</time>
      </trkpt>
      <trkpt lat="48.67371" lon="6.11499">
        <ele>336</ele>
        <time>2013-06-30T10:17:25Z</time>
      </trkpt>
      <trkpt lat="48.6737" lon="6.11495">
        <ele>334</ele>
        <time>2013-06-30T10:17:27Z</time>
      </trkpt>
      <trkpt lat="48.67368" lon="6.11489">
        <ele>336</ele>
        <time>2013-06-30T10:17:29Z</time>
      </trkpt>
      <trkpt lat="48.6737" lon="6.11483">
        <ele>333</ele>
        <time>2013-06-30T10:17:31Z</time>
      </trkpt>
      <trkpt lat="48.6737" lon="6.11479">
        <ele>327</ele>
        <time>2013-06-30T10:17:33Z</time>
      </trkpt>
      <trkpt lat="48.6737" lon="6.11475">
        <ele>323</ele>
        <time>2013-06-30T10:17:35Z</time>
      </trkpt>
      <trkpt lat="48.6737" lon="6.11473">
        <ele>329</ele>
        <time>2013-06-30T10:17:37Z</time>
      </trkpt>
      <trkpt lat="48.67368" lon="6.11471">
        <ele>329</ele>
        <time>2013-06-30T10:17:39Z</time>
      </trkpt>
      <trkpt lat="48.67368" lon="6.1147">
        <ele>328</ele>
        <time>2013-06-30T10:17:41Z</time>
      </trkpt>
      <trkpt lat="48.67363" lon="6.11464">
        <ele>318</ele>
        <time>2013-06-30T10:17:47Z</time>
      </trkpt>
      <trkpt lat="48.67362" lon="6.11461">
        <ele>318</ele>
        <time>2013-06-30T10:17:51Z</time>
      </trkpt>
      <trkpt lat="48.6736" lon="6.1145">
        <ele>295</ele>
        <time>2013-06-30T10:17:59Z</time>
      </trkpt>
      <trkpt lat="48.67359" lon="6.11445">
        <ele>327</ele>
        <time>2013-06-30T10:18:09Z</time>
      </trkpt>
      <trkpt lat="48.67359" lon="6.11445">
        <ele>343</ele>
        <time>2013-06-30T10:18:19Z</time>
      </trkpt>
      <trkpt lat="48.6736" lon="6.11443">
        <ele>334</ele>
        <time>2013-06-30T10:18:28Z</time>
      </trkpt>
      <trkpt lat="48.67362" lon="6.1143">
        <ele>332</ele>
        <time>2013-06-30T10:18:41Z</time>
      </trkpt>
      <trkpt lat="48.67362" lon="6.11429">
        <ele>318</ele>
        <time>2013-06-30T10:18:57Z</time>
      </trkpt>
      <trkpt lat="48.67363" lon="6.11428">
        <ele>318</ele>
        <time>2013-06-30T10:18:59Z</time>
      </trkpt>
      <trkpt lat="48.67363" lon="6.11428">
        <ele>317</ele>
        <time>2013-06-30T10:19:01Z</time>
      </trkpt>
      <trkpt lat="48.67373" lon="6.11432">
        <ele>320</ele>
        <time>2013-06-30T10:19:13Z</time>
      </trkpt>
      <trkpt lat="48.67376" lon="6.11433">
        <ele>314</ele>
        <time>2013-06-30T10:19:15Z</time>
      </trkpt>
      <trkpt lat="48.6738" lon="6.11436">
        <ele>311</ele>
        <time>2013-06-30T10:19:17Z</time>
      </trkpt>
      <trkpt lat="48.67384" lon="6.11437">
        <ele>315</ele>
        <time>2013-06-30T10:19:19Z</time>
      </trkpt>
      <trkpt lat="48.67387" lon="6.11437">
        <ele>318</ele>
        <time>2013-06-30T10:19:21Z</time>
      </trkpt>
      <trkpt lat="48.67391" lon="6.11436">
        <ele>319</ele>
        <time>2013-06-30T10:19:23Z</time>
      </trkpt>
      <trkpt lat="48.67394" lon="6.11434">
        <ele>322</ele>
        <time>2013-06-30T10:19:25Z</time>
      </trkpt>
      <trkpt lat="48.67397" lon="6.11433">
        <ele>326</ele>
        <time>2013-06-30T10:19:27Z</time>
      </trkpt>
      <trkpt lat="48.67401" lon="6.11431">
        <ele>328</ele>
        <time>2013-06-30T10:19:29Z</time>
      </trkpt>
      <trkpt lat="48.67405" lon="6.11429">
        <ele>329</ele>
        <time>2013-06-30T10:19:31Z</time>
      </trkpt>
      <trkpt lat="48.67411" lon="6.11427">
        <ele>334</ele>
        <time>2013-06-30T10:19:33Z</time>
      </trkpt>
      <trkpt lat="48.67418" lon="6.11424">
        <ele>334</ele>
        <time>2013-06-30T10:19:35Z</time>
      </trkpt>
      <trkpt lat="48.67425" lon="6.11422">
        <ele>334</ele>
        <time>2013-06-30T10:19:37Z</time>
      </trkpt>
      <trkpt lat="48.67432" lon="6.11421">
        <ele>335</ele>
        <time>2013-06-30T10:19:39Z</time>
      </trkpt>
      <trkpt lat="48.67439" lon="6.1142">
        <ele>339</ele>
        <time>2013-06-30T10:19:41Z</time>
      </trkpt>
      <trkpt lat="48.67444" lon="6.11419">
        <ele>343</ele>
        <time>2013-06-30T10:19:43Z</time>
      </trkpt>
      <trkpt lat="48.6745" lon="6.11417">
        <ele>343</ele>
        <time>2013-06-30T10:19:45Z</time>
      </trkpt>
      <trkpt lat="48.67457" lon="6.11416">
        <ele>347</ele>
        <time>2013-06-30T10:19:47Z</time>
      </trkpt>
      <trkpt lat="48.67464" lon="6.11416">
        <ele>349</ele>
        <time>2013-06-30T10:19:49Z</time>
      </trkpt>
      <trkpt lat="48.6747" lon="6.11415">
        <ele>348</ele>
        <time>2013-06-30T10:19:51Z</time>
      </trkpt>
      <trkpt lat="48.67477" lon="6.11414">
        <ele>350</ele>
        <time>2013-06-30T10:19:53Z</time>
      </trkpt>
      <trkpt lat="48.67484" lon="6.11413">
        <ele>349</ele>
        <time>2013-06-30T10:19:55Z</time>
      </trkpt>
      <trkpt lat="48.67491" lon="6.11412">
        <ele>350</ele>
        <time>2013-06-30T10:19:57Z</time>
      </trkpt>
      <trkpt lat="48.67496" lon="6.11409">
        <ele>350</ele>
        <time>2013-06-30T10:19:59Z</time>
      </trkpt>
      <trkpt lat="48.675" lon="6.11407">
        <ele>345</ele>
        <time>2013-06-30T10:20:01Z</time>
      </trkpt>
      <trkpt lat="48.67507" lon="6.11406">
        <ele>344</ele>
        <time>2013-06-30T10:20:03Z</time>
      </trkpt>
      <trkpt lat="48.67514" lon="6.11406">
        <ele>340</ele>
        <time>2013-06-30T10:20:05Z</time>
      </trkpt>
      <trkpt lat="48.67522" lon="6.11404">
        <ele>340</ele>
        <time>2013-06-30T10:20:07Z</time>
      </trkpt>
      <trkpt lat="48.6753" lon="6.11401">
        <ele>344</ele>
        <time>2013-06-30T10:20:09Z</time>
      </trkpt>
      <trkpt lat="48.67539" lon="6.114">
        <ele>344</ele>
        <time>2013-06-30T10:20:11Z</time>
      </trkpt>
      <trkpt lat="48.67546" lon="6.11398">
        <ele>345</ele>
        <time>2013-06-30T10:20:13Z</time>
      </trkpt>
      <trkpt lat="48.67553" lon="6.11396">
        <ele>346</ele>
        <time>2013-06-30T10:20:15Z</time>
      </trkpt>
      <trkpt lat="48.67561" lon="6.11395">
        <ele>346</ele>
        <time>2013-06-30T10:20:17Z</time>
      </trkpt>
      <trkpt lat="48.67567" lon="6.11394">
        <ele>346</ele>
        <time>2013-06-30T10:20:19Z</time>
      </trkpt>
      <trkpt lat="48.6757" lon="6.11394">
        <ele>347</ele>
        <time>2013-06-30T10:20:20Z</time>
      </trkpt>
      <trkpt lat="48.67577" lon="6.11392">
        <ele>348</ele>
        <time>2013-06-30T10:20:22Z</time>
      </trkpt>
      <trkpt lat="48.67583" lon="6.11392">
        <ele>351</ele>
        <time>2013-06-30T10:20:24Z</time>
      </trkpt>
      <trkpt lat="48.6759" lon="6.11394">
        <ele>353</ele>
        <time>2013-06-30T10:20:26Z</time>
      </trkpt>
      <trkpt lat="48.67596" lon="6.11396">
        <ele>354</ele>
        <time>2013-06-30T10:20:28Z</time>
      </trkpt>
      <trkpt lat="48.67601" lon="6.11396">
        <ele>350</ele>
        <time>2013-06-30T10:20:30Z</time>
      </trkpt>
      <trkpt lat="48.6761" lon="6.11396">
        <ele>349</ele>
        <time>2013-06-30T10:20:32Z</time>
      </trkpt>
      <trkpt lat="48.67618" lon="6.11395">
        <ele>348</ele>
        <time>2013-06-30T10:20:34Z</time>
      </trkpt>
      <trkpt lat="48.67627" lon="6.11393">
        <ele>343</ele>
        <time>2013-06-30T10:20:36Z</time>
      </trkpt>
      <trkpt lat="48.67635" lon="6.11393">
        <ele>341</ele>
        <time>2013-06-30T10:20:38Z</time>
      </trkpt>
      <trkpt lat="48.67643" lon="6.11393">
        <ele>338</ele>
        <time>2013-06-30T10:20:40Z</time>
      </trkpt>
      <trkpt lat="48.67651" lon="6.11394">
        <ele>338</ele>
        <time>2013-06-30T10:20:42Z</time>
      </trkpt>
      <trkpt lat="48.67658" lon="6.11397">
        <ele>338</ele>
        <time>2013-06-30T10:20:44Z</time>
      </trkpt>
      <trkpt lat="48.67665" lon="6.11399">
        <ele>338</ele>
        <time>2013-06-30T10:20:46Z</time>
      </trkpt>
      <trkpt lat="48.6767" lon="6.11404">
        <ele>340</ele>
        <time>2013-06-30T10:20:48Z</time>
      </trkpt>
      <trkpt lat="48.67676" lon="6.11409">
        <ele>335</ele>
        <time>2013-06-30T10:20:50Z</time>
      </trkpt>
      <trkpt lat="48.67681" lon="6.11414">
        <ele>334</ele>
        <time>2013-06-30T10:20:52Z</time>
      </trkpt>
      <trkpt lat="48.67685" lon="6.11419">
        <ele>335</ele>
        <time>2013-06-30T10:20:54Z</time>
      </trkpt>
      <trkpt lat="48.67689" lon="6.11423">
        <ele>333</ele>
        <time>2013-06-30T10:20:56Z</time>
      </trkpt>
      <trkpt lat="48.67693" lon="6.11428">
        <ele>332</ele>
        <time>2013-06-30T10:20:58Z</time>
      </trkpt>
      <trkpt lat="48.67696" lon="6.11434">
        <ele>335</ele>
        <time>2013-06-30T10:21:00Z</time>
      </trkpt>
      <trkpt lat="48.67701" lon="6.11438">
        <ele>333</ele>
        <time>2013-06-30T10:21:02Z</time>
      </trkpt>
      <trkpt lat="48.67707" lon="6.11444">
        <ele>331</ele>
        <time>2013-06-30T10:21:04Z</time>
      </trkpt>
      <trkpt lat="48.67713" lon="6.11446">
        <ele>334</ele>
        <time>2013-06-30T10:21:06Z</time>
      </trkpt>
      <trkpt lat="48.67719" lon="6.11446">
        <ele>336</ele>
        <time>2013-06-30T10:21:08Z</time>
      </trkpt>
      <trkpt lat="48.67726" lon="6.11446">
        <ele>331</ele>
        <time>2013-06-30T10:21:10Z</time>
      </trkpt>
      <trkpt lat="48.6773" lon="6.11446">
        <ele>337</ele>
        <time>2013-06-30T10:21:12Z</time>
      </trkpt>
      <trkpt lat="48.67734" lon="6.11447">
        <ele>335</ele>
        <time>2013-06-30T10:21:14Z</time>
      </trkpt>
      <trkpt lat="48.67739" lon="6.11447">
        <ele>340</ele>
        <time>2013-06-30T10:21:16Z</time>
      </trkpt>
      <trkpt lat="48.67744" lon="6.11448">
        <ele>336</ele>
        <time>2013-06-30T10:21:18Z</time>
      </trkpt>
      <trkpt lat="48.67747" lon="6.11449">
        <ele>332</ele>
        <time>2013-06-30T10:21:20Z</time>
      </trkpt>
      <trkpt lat="48.67751" lon="6.11449">
        <ele>333</ele>
        <time>2013-06-30T10:21:22Z</time>
      </trkpt>
      <trkpt lat="48.67754" lon="6.11447">
        <ele>335</ele>
        <time>2013-06-30T10:21:24Z</time>
      </trkpt>
      <trkpt lat="48.67758" lon="6.11447">
        <ele>332</ele>
        <time>2013-06-30T10:21:26Z</time>
      </trkpt>
      <trkpt lat="48.67764" lon="6.11447">
        <ele>334</ele>
        <time>2013-06-30T10:21:30Z</time>
      </trkpt>
      <trkpt lat="48.67768" lon="6.11448">
        <ele>334</ele>
        <time>2013-06-30T10:21:34Z</time>
      </trkpt>
      <trkpt lat="48.6777" lon="6.11447">
        <ele>332</ele>
        <time>2013-06-30T10:21:36Z</time>
      </trkpt>
      <trkpt lat="48.67774" lon="6.11444">
        <ele>325</ele>
        <time>2013-06-30T10:21:40Z</time>
      </trkpt>
      <trkpt lat="48.67776" lon="6.11444">
        <ele>325</ele>
        <time>2013-06-30T10:21:42Z</time>
      </trkpt>
      <trkpt lat="48.6778" lon="6.11443">
        <ele>330</ele>
        <time>2013-06-30T10:21:44Z</time>
      </trkpt>
      <trkpt lat="48.67783" lon="6.11443">
        <ele>333</ele>
        <time>2013-06-30T10:21:46Z</time>
      </trkpt>
      <trkpt lat="48.67785" lon="6.11445">
        <ele>330</ele>
        <time>2013-06-30T10:21:50Z</time>
      </trkpt>
      <trkpt lat="48.67786" lon="6.11446">
        <ele>326</ele>
        <time>2013-06-30T10:21:52Z</time>
      </trkpt>
      <trkpt lat="48.67791" lon="6.11446">
        <ele>327</ele>
        <time>2013-06-30T10:21:54Z</time>
      </trkpt>
      <trkpt lat="48.67794" lon="6.11446">
        <ele>328</ele>
        <time>2013-06-30T10:21:56Z</time>
      </trkpt>
      <trkpt lat="48.67797" lon="6.11445">
        <ele>329</ele>
        <time>2013-06-30T10:21:58Z</time>
      </trkpt>
      <trkpt lat="48.67799" lon="6.11446">
        <ele>333</ele>
        <time>2013-06-30T10:22:00Z</time>
      </trkpt>
      <trkpt lat="48.67803" lon="6.11446">
        <ele>334</ele>
        <time>2013-06-30T10:22:02Z</time>
      </trkpt>
      <trkpt lat="48.67807" lon="6.11446">
        <ele>336</ele>
        <time>2013-06-30T10:22:04Z</time>
      </trkpt>
      <trkpt lat="48.6781" lon="6.11446">
        <ele>334</ele>
        <time>2013-06-30T10:22:06Z</time>
      </trkpt>
      <trkpt lat="48.67812" lon="6.11445">
        <ele>333</ele>
        <time>2013-06-30T10:22:08Z</time>
      </trkpt>
      <trkpt lat="48.67814" lon="6.11445">
        <ele>334</ele>
        <time>2013-06-30T10:22:10Z</time>
      </trkpt>
      <trkpt lat="48.67815" lon="6.11445">
        <ele>328</ele>
        <time>2013-06-30T10:22:12Z</time>
      </trkpt>
      <trkpt lat="48.67817" lon="6.11446">
        <ele>335</ele>
        <time>2013-06-30T10:22:14Z</time>
      </trkpt>
      <trkpt lat="48.67819" lon="6.11446">
        <ele>335</ele>
        <time>2013-06-30T10:22:16Z</time>
      </trkpt>
      <trkpt lat="48.67821" lon="6.11446">
        <ele>340</ele>
        <time>2013-06-30T10:22:20Z</time>
      </trkpt>
      <trkpt lat="48.67825" lon="6.11446">
        <ele>335</ele>
        <time>2013-06-30T10:22:22Z</time>
      </trkpt>
      <trkpt lat="48.6783" lon="6.11447">
        <ele>333</ele>
        <time>2013-06-30T10:22:24Z</time>
      </trkpt>
      <trkpt lat="48.67833" lon="6.11448">
        <ele>326</ele>
        <time>2013-06-30T10:22:26Z</time>
      </trkpt>
      <trkpt lat="48.67838" lon="6.11448">
        <ele>327</ele>
        <time>2013-06-30T10:22:28Z</time>
      </trkpt>
      <trkpt lat="48.67841" lon="6.11447">
        <ele>330</ele>
        <time>2013-06-30T10:22:30Z</time>
      </trkpt>
      <trkpt lat="48.67844" lon="6.11446">
        <ele>329</ele>
        <time>2013-06-30T10:22:32Z</time>
      </trkpt>
      <trkpt lat="48.67846" lon="6.11444">
        <ele>331</ele>
        <time>2013-06-30T10:22:34Z</time>
      </trkpt>
      <trkpt lat="48.67849" lon="6.11442">
        <ele>330</ele>
        <time>2013-06-30T10:22:36Z</time>
      </trkpt>
      <trkpt lat="48.67851" lon="6.11441">
        <ele>327</ele>
        <time>2013-06-30T10:22:38Z</time>
      </trkpt>
      <trkpt lat="48.67854" lon="6.11439">
        <ele>326</ele>
        <time>2013-06-30T10:22:42Z</time>
      </trkpt>
      <trkpt lat="48.67856" lon="6.11438">
        <ele>330</ele>
        <time>2013-06-30T10:22:44Z</time>
      </trkpt>
      <trkpt lat="48.67858" lon="6.11438">
        <ele>328</ele>
        <time>2013-06-30T10:22:46Z</time>
      </trkpt>
      <trkpt lat="48.67861" lon="6.11438">
        <ele>333</ele>
        <time>2013-06-30T10:22:48Z</time>
      </trkpt>
      <trkpt lat="48.67864" lon="6.11436">
        <ele>338</ele>
        <time>2013-06-30T10:22:50Z</time>
      </trkpt>
      <trkpt lat="48.67867" lon="6.11434">
        <ele>333</ele>
        <time>2013-06-30T10:22:52Z</time>
      </trkpt>
      <trkpt lat="48.6787" lon="6.11432">
        <ele>336</ele>
        <time>2013-06-30T10:22:54Z</time>
      </trkpt>
      <trkpt lat="48.6787" lon="6.11432">
        <ele>339</ele>
        <time>2013-06-30T10:22:56Z</time>
      </trkpt>
      <trkpt lat="48.6787" lon="6.11431">
        <ele>326</ele>
        <time>2013-06-30T10:23:00Z</time>
      </trkpt>
      <trkpt lat="48.67873" lon="6.11427">
        <ele>322</ele>
        <time>2013-06-30T10:23:04Z</time>
      </trkpt>
      <trkpt lat="48.67878" lon="6.11425">
        <ele>330</ele>
        <time>2013-06-30T10:24:10Z</time>
      </trkpt>
      <trkpt lat="48.67878" lon="6.11425">
        <ele>326</ele>
        <time>2013-06-30T10:24:18Z</time>
      </trkpt>
      <trkpt lat="48.67879" lon="6.11423">
        <ele>327</ele>
        <time>2013-06-30T10:24:20Z</time>
      </trkpt>
      <trkpt lat="48.67887" lon="6.11419">
        <ele>324</ele>
        <time>2013-06-30T10:24:24Z</time>
      </trkpt>
      <trkpt lat="48.67888" lon="6.11419">
        <ele>324</ele>
        <time>2013-06-30T10:24:26Z</time>
      </trkpt>
      <trkpt lat="48.67889" lon="6.11419">
        <ele>325</ele>
        <time>2013-06-30T10:24:30Z</time>
      </trkpt>
      <trkpt lat="48.6789" lon="6.11417">
        <ele>333</ele>
        <time>2013-06-30T10:24:38Z</time>
      </trkpt>
      <trkpt lat="48.67891" lon="6.11414">
        <ele>332</ele>
        <time>2013-06-30T10:24:40Z</time>
      </trkpt>
      <trkpt lat="48.67893" lon="6.1141">
        <ele>332</ele>
        <time>2013-06-30T10:24:42Z</time>
      </trkpt>
      <trkpt lat="48.67894" lon="6.11405">
        <ele>334</ele>
        <time>2013-06-30T10:24:44Z</time>
      </trkpt>
      <trkpt lat="48.67894" lon="6.11401">
        <ele>334</ele>
        <time>2013-06-30T10:24:46Z</time>
      </trkpt>
      <trkpt lat="48.67894" lon="6.11396">
        <ele>336</ele>
        <time>2013-06-30T10:24:48Z</time>
      </trkpt>
      <trkpt lat="48.67896" lon="6.11389">
        <ele>337</ele>
        <time>2013-06-30T10:24:50Z</time>
      </trkpt>
      <trkpt lat="48.67897" lon="6.11383">
        <ele>342</ele>
        <time>2013-06-30T10:24:52Z</time>
      </trkpt>
      <trkpt lat="48.67899" lon="6.11376">
        <ele>345</ele>
        <time>2013-06-30T10:24:54Z</time>
      </trkpt>
      <trkpt lat="48.67898" lon="6.1137">
        <ele>350</ele>
        <time>2013-06-30T10:24:56Z</time>
      </trkpt>
      <trkpt lat="48.67899" lon="6.11362">
        <ele>349</ele>
        <time>2013-06-30T10:24:58Z</time>
      </trkpt>
      <trkpt lat="48.67899" lon="6.11357">
        <ele>350</ele>
        <time>2013-06-30T10:25:00Z</time>
      </trkpt>
      <trkpt lat="48.67899" lon="6.11351">
        <ele>351</ele>
        <time>2013-06-30T10:25:02Z</time>
      </trkpt>
      <trkpt lat="48.67899" lon="6.11345">
        <ele>351</ele>
        <time>2013-06-30T10:25:04Z</time>
      </trkpt>
      <trkpt lat="48.67899" lon="6.11339">
        <ele>350</ele>
        <time>2013-06-30T10:25:06Z</time>
      </trkpt>
      <trkpt lat="48.67898" lon="6.11332">
        <ele>349</ele>
        <time>2013-06-30T10:25:08Z</time>
      </trkpt>
      <trkpt lat="48.67897" lon="6.11325">
        <ele>349</ele>
        <time>2013-06-30T10:25:10Z</time>
      </trkpt>
      <trkpt lat="48.67896" lon="6.11318">
        <ele>348</ele>
        <time>2013-06-30T10:25:12Z</time>
      </trkpt>
      <trkpt lat="48.67895" lon="6.11311">
        <ele>348</ele>
        <time>2013-06-30T10:25:14Z</time>
      </trkpt>
      <trkpt lat="48.67895" lon="6.11304">
        <ele>350</ele>
        <time>2013-06-30T10:25:16Z</time>
      </trkpt>
      <trkpt lat="48.67895" lon="6.11297">
        <ele>349</ele>
        <time>2013-06-30T10:25:18Z</time>
      </trkpt>
      <trkpt lat="48.67895" lon="6.11291">
        <ele>348</ele>
        <time>2013-06-30T10:25:20Z</time>
      </trkpt>
      <trkpt lat="48.67896" lon="6.11288">
        <ele>348</ele>
        <time>2013-06-30T10:25:21Z</time>
      </trkpt>
      <trkpt lat="48.67895" lon="6.11286">
        <ele>351</ele>
        <time>2013-06-30T10:25:22Z</time>
      </trkpt>
      <trkpt lat="48.67894" lon="6.1128">
        <ele>354</ele>
        <time>2013-06-30T10:25:24Z</time>
      </trkpt>
      <trkpt lat="48.67893" lon="6.11275">
        <ele>352</ele>
        <time>2013-06-30T10:25:26Z</time>
      </trkpt>
      <trkpt lat="48.67893" lon="6.11269">
        <ele>357</ele>
        <time>2013-06-30T10:25:28Z</time>
      </trkpt>
      <trkpt lat="48.67892" lon="6.11264">
        <ele>360</ele>
        <time>2013-06-30T10:25:30Z</time>
      </trkpt>
      <trkpt lat="48.67892" lon="6.11259">
        <ele>358</ele>
        <time>2013-06-30T10:25:32Z</time>
      </trkpt>
      <trkpt lat="48.67893" lon="6.11252">
        <ele>357</ele>
        <time>2013-06-30T10:25:34Z</time>
      </trkpt>
      <trkpt lat="48.67893" lon="6.11246">
        <ele>356</ele>
        <time>2013-06-30T10:25:36Z</time>
      </trkpt>
      <trkpt lat="48.67893" lon="6.11239">
        <ele>353</ele>
        <time>2013-06-30T10:25:38Z</time>
      </trkpt>
      <trkpt lat="48.67894" lon="6.11231">
        <ele>357</ele>
        <time>2013-06-30T10:25:40Z</time>
      </trkpt>
      <trkpt lat="48.67893" lon="6.11223">
        <ele>357</ele>
        <time>2013-06-30T10:25:42Z</time>
      </trkpt>
      <trkpt lat="48.67893" lon="6.11216">
        <ele>357</ele>
        <time>2013-06-30T10:25:44Z</time>
      </trkpt>
      <trkpt lat="48.67894" lon="6.11209">
        <ele>358</ele>
        <time>2013-06-30T10:25:46Z</time>
      </trkpt>
      <trkpt lat="48.67894" lon="6.11203">
        <ele>358</ele>
        <time>2013-06-30T10:25:48Z</time>
      </trkpt>
      <trkpt lat="48.67895" lon="6.11195">
        <ele>360</ele>
        <time>2013-06-30T10:25:50Z</time>
      </trkpt>
      <trkpt lat="48.67898" lon="6.11189">
        <ele>362</ele>
        <time>2013-06-30T10:25:52Z</time>
      </trkpt>
      <trkpt lat="48.679" lon="6.11182">
        <ele>368</ele>
        <time>2013-06-30T10:25:54Z</time>
      </trkpt>
      <trkpt lat="48.67902" lon="6.11175">
        <ele>367</ele>
        <time>2013-06-30T10:25:56Z</time>
      </trkpt>
      <trkpt lat="48.67903" lon="6.11169">
        <ele>368</ele>
        <time>2013-06-30T10:25:58Z</time>
      </trkpt>
      <trkpt lat="48.67903" lon="6.11164">
        <ele>367</ele>
        <time>2013-06-30T10:26:00Z</time>
      </trkpt>
      <trkpt lat="48.67901" lon="6.11158">
        <ele>369</ele>
        <time>2013-06-30T10:26:02Z</time>
      </trkpt>
      <trkpt lat="48.67899" lon="6.11151">
        <ele>367</ele>
        <time>2013-06-30T10:26:04Z</time>
      </trkpt>
      <trkpt lat="48.67896" lon="6.11144">
        <ele>366</ele>
        <time>2013-06-30T10:26:06Z</time>
      </trkpt>
      <trkpt lat="48.67893" lon="6.11138">
        <ele>361</ele>
        <time>2013-06-30T10:26:08Z</time>
      </trkpt>
      <trkpt lat="48.67891" lon="6.11132">
        <ele>359</ele>
        <time>2013-06-30T10:26:10Z</time>
      </trkpt>
      <trkpt lat="48.6789" lon="6.11127">
        <ele>359</ele>
        <time>2013-06-30T10:26:12Z</time>
      </trkpt>
      <trkpt lat="48.67889" lon="6.11122">
        <ele>358</ele>
        <time>2013-06-30T10:26:14Z</time>
      </trkpt>
      <trkpt lat="48.67887" lon="6.11103">
        <ele>349</ele>
        <time>2013-06-30T10:26:20Z</time>
      </trkpt>
      <trkpt lat="48.67885" lon="6.111">
        <ele>350</ele>
        <time>2013-06-30T10:26:22Z</time>
      </trkpt>
      <trkpt lat="48.67884" lon="6.11095">
        <ele>351</ele>
        <time>2013-06-30T10:26:24Z</time>
      </trkpt>
      <trkpt lat="48.67883" lon="6.11088">
        <ele>358</ele>
        <time>2013-06-30T10:26:26Z</time>
      </trkpt>
      <trkpt lat="48.67883" lon="6.11082">
        <ele>360</ele>
        <time>2013-06-30T10:26:28Z</time>
      </trkpt>
      <trkpt lat="48.67883" lon="6.11076">
        <ele>362</ele>
        <time>2013-06-30T10:26:30Z</time>
      </trkpt>
      <trkpt lat="48.67883" lon="6.11069">
        <ele>365</ele>
        <time>2013-06-30T10:26:32Z</time>
      </trkpt>
      <trkpt lat="48.67883" lon="6.11062">
        <ele>364</ele>
        <time>2013-06-30T10:26:34Z</time>
      </trkpt>
      <trkpt lat="48.67884" lon="6.11057">
        <ele>367</ele>
        <time>2013-06-30T10:26:36Z</time>
      </trkpt>
      <trkpt lat="48.67883" lon="6.1105">
        <ele>373</ele>
        <time>2013-06-30T10:26:38Z</time>
      </trkpt>
      <trkpt lat="48.67881" lon="6.11045">
        <ele>371</ele>
        <time>2013-06-30T10:26:40Z</time>
      </trkpt>
      <trkpt lat="48.67879" lon="6.11041">
        <ele>370</ele>
        <time>2013-06-30T10:26:42Z</time>
      </trkpt>
      <trkpt lat="48.67879" lon="6.11034">
        <ele>376</ele>
        <time>2013-06-30T10:26:44Z</time>
      </trkpt>
      <trkpt lat="48.67879" lon="6.11026">
        <ele>377</ele>
        <time>2013-06-30T10:26:46Z</time>
      </trkpt>
      <trkpt lat="48.67879" lon="6.11017">
        <ele>378</ele>
        <time>2013-06-30T10:26:48Z</time>
      </trkpt>
      <trkpt lat="48.67879" lon="6.11008">
        <ele>383</ele>
        <time>2013-06-30T10:26:50Z</time>
      </trkpt>
      <trkpt lat="48.67878" lon="6.10999">
        <ele>384</ele>
        <time>2013-06-30T10:26:52Z</time>
      </trkpt>
      <trkpt lat="48.67876" lon="6.10991">
        <ele>384</ele>
        <time>2013-06-30T10:26:54Z</time>
      </trkpt>
      <trkpt lat="48.67875" lon="6.10983">
        <ele>382</ele>
        <time>2013-06-30T10:26:56Z</time>
      </trkpt>
      <trkpt lat="48.67874" lon="6.10975">
        <ele>376</ele>
        <time>2013-06-30T10:26:58Z</time>
      </trkpt>
      <trkpt lat="48.67873" lon="6.10966">
        <ele>374</ele>
        <time>2013-06-30T10:27:00Z</time>
      </trkpt>
      <trkpt lat="48.67872" lon="6.10955">
        <ele>372</ele>
        <time>2013-06-30T10:27:02Z</time>
      </trkpt>
      <trkpt lat="48.6787" lon="6.10944">
        <ele>370</ele>
        <time>2013-06-30T10:27:04Z</time>
      </trkpt>
      <trkpt lat="48.67866" lon="6.10933">
        <ele>368</ele>
        <time>2013-06-30T10:27:06Z</time>
      </trkpt>
      <trkpt lat="48.67862" lon="6.10924">
        <ele>365</ele>
        <time>2013-06-30T10:27:08Z</time>
      </trkpt>
      <trkpt lat="48.67857" lon="6.10915">
        <ele>363</ele>
        <time>2013-06-30T10:27:10Z</time>
      </trkpt>
      <trkpt lat="48.67854" lon="6.10906">
        <ele>361</ele>
        <time>2013-06-30T10:27:12Z</time>
      </trkpt>
      <trkpt lat="48.67851" lon="6.10898">
        <ele>360</ele>
        <time>2013-06-30T10:27:14Z</time>
      </trkpt>
      <trkpt lat="48.67848" lon="6.10891">
        <ele>360</ele>
        <time>2013-06-30T10:27:16Z</time>
      </trkpt>
      <trkpt lat="48.67843" lon="6.10884">
        <ele>353</ele>
        <time>2013-06-30T10:27:18Z</time>
      </trkpt>
      <trkpt lat="48.67837" lon="6.10882">
        <ele>350</ele>
        <time>2013-06-30T10:27:20Z</time>
      </trkpt>
      <trkpt lat="48.67831" lon="6.10883">
        <ele>351</ele>
        <time>2013-06-30T10:27:22Z</time>
      </trkpt>
      <trkpt lat="48.67825" lon="6.10885">
        <ele>350</ele>
        <time>2013-06-30T10:27:24Z</time>
      </trkpt>
      <trkpt lat="48.67819" lon="6.10886">
        <ele>348</ele>
        <time>2013-06-30T10:27:26Z</time>
      </trkpt>
      <trkpt lat="48.67812" lon="6.10887">
        <ele>345</ele>
        <time>2013-06-30T10:27:28Z</time>
      </trkpt>
      <trkpt lat="48.67806" lon="6.10888">
        <ele>344</ele>
        <time>2013-06-30T10:27:30Z</time>
      </trkpt>
      <trkpt lat="48.67799" lon="6.10887">
        <ele>344</ele>
        <time>2013-06-30T10:27:32Z</time>
      </trkpt>
      <trkpt lat="48.67792" lon="6.10888">
        <ele>347</ele>
        <time>2013-06-30T10:27:34Z</time>
      </trkpt>
      <trkpt lat="48.67786" lon="6.10888">
        <ele>344</ele>
        <time>2013-06-30T10:27:36Z</time>
      </trkpt>
      <trkpt lat="48.6778" lon="6.10888">
        <ele>342</ele>
        <time>2013-06-30T10:27:38Z</time>
      </trkpt>
      <trkpt lat="48.67775" lon="6.10889">
        <ele>343</ele>
        <time>2013-06-30T10:27:40Z</time>
      </trkpt>
      <trkpt lat="48.67771" lon="6.1089">
        <ele>344</ele>
        <time>2013-06-30T10:27:42Z</time>
      </trkpt>
      <trkpt lat="48.67765" lon="6.10892">
        <ele>344</ele>
        <time>2013-06-30T10:27:44Z</time>
      </trkpt>
      <trkpt lat="48.67761" lon="6.10894">
        <ele>346</ele>
        <time>2013-06-30T10:27:46Z</time>
      </trkpt>
      <trkpt lat="48.67755" lon="6.10895">
        <ele>347</ele>
        <time>2013-06-30T10:27:48Z</time>
      </trkpt>
      <trkpt lat="48.6775" lon="6.10896">
        <ele>346</ele>
        <time>2013-06-30T10:27:50Z</time>
      </trkpt>
      <trkpt lat="48.67744" lon="6.10897">
        <ele>349</ele>
        <time>2013-06-30T10:27:52Z</time>
      </trkpt>
      <trkpt lat="48.6774" lon="6.10898">
        <ele>351</ele>
        <time>2013-06-30T10:27:54Z</time>
      </trkpt>
      <trkpt lat="48.67735" lon="6.10899">
        <ele>350</ele>
        <time>2013-06-30T10:27:56Z</time>
      </trkpt>
      <trkpt lat="48.6773" lon="6.109">
        <ele>351</ele>
        <time>2013-06-30T10:27:58Z</time>
      </trkpt>
      <trkpt lat="48.67724" lon="6.10901">
        <ele>348</ele>
        <time>2013-06-30T10:28:00Z</time>
      </trkpt>
      <trkpt lat="48.67719" lon="6.10902">
        <ele>349</ele>
        <time>2013-06-30T10:28:02Z</time>
      </trkpt>
      <trkpt lat="48.67713" lon="6.10904">
        <ele>351</ele>
        <time>2013-06-30T10:28:04Z</time>
      </trkpt>
      <trkpt lat="48.67707" lon="6.10906">
        <ele>354</ele>
        <time>2013-06-30T10:28:06Z</time>
      </trkpt>
      <trkpt lat="48.67701" lon="6.10908">
        <ele>356</ele>
        <time>2013-06-30T10:28:08Z</time>
      </trkpt>
      <trkpt lat="48.67694" lon="6.10909">
        <ele>357</ele>
        <time>2013-06-30T10:28:10Z</time>
      </trkpt>
      <trkpt lat="48.6769" lon="6.10911">
        <ele>357</ele>
        <time>2013-06-30T10:28:12Z</time>
      </trkpt>
      <trkpt lat="48.67684" lon="6.10913">
        <ele>359</ele>
        <time>2013-06-30T10:28:14Z</time>
      </trkpt>
      <trkpt lat="48.67677" lon="6.10915">
        <ele>364</ele>
        <time>2013-06-30T10:28:16Z</time>
      </trkpt>
      <trkpt lat="48.67669" lon="6.10917">
        <ele>364</ele>
        <time>2013-06-30T10:28:18Z</time>
      </trkpt>
      <trkpt lat="48.67661" lon="6.10918">
        <ele>363</ele>
        <time>2013-06-30T10:28:20Z</time>
      </trkpt>
      <trkpt lat="48.67652" lon="6.10918">
        <ele>363</ele>
        <time>2013-06-30T10:28:22Z</time>
      </trkpt>
      <trkpt lat="48.67643" lon="6.10922">
        <ele>365</ele>
        <time>2013-06-30T10:28:24Z</time>
      </trkpt>
      <trkpt lat="48.67636" lon="6.10926">
        <ele>365</ele>
        <time>2013-06-30T10:28:26Z</time>
      </trkpt>
      <trkpt lat="48.67627" lon="6.10929">
        <ele>369</ele>
        <time>2013-06-30T10:28:28Z</time>
      </trkpt>
      <trkpt lat="48.67618" lon="6.10933">
        <ele>370</ele>
        <time>2013-06-30T10:28:30Z</time>
      </trkpt>
      <trkpt lat="48.67609" lon="6.10935">
        <ele>372</ele>
        <time>2013-06-30T10:28:32Z</time>
      </trkpt>
      <trkpt lat="48.67603" lon="6.10937">
        <ele>373</ele>
        <time>2013-06-30T10:28:34Z</time>
      </trkpt>
      <trkpt lat="48.67597" lon="6.10937">
        <ele>371</ele>
        <time>2013-06-30T10:28:36Z</time>
      </trkpt>
      <trkpt lat="48.67588" lon="6.10939">
        <ele>369</ele>
        <time>2013-06-30T10:28:38Z</time>
      </trkpt>
      <trkpt lat="48.67582" lon="6.10942">
        <ele>367</ele>
        <time>2013-06-30T10:28:40Z</time>
      </trkpt>
      <trkpt lat="48.67574" lon="6.10944">
        <ele>367</ele>
        <time>2013-06-30T10:28:42Z</time>
      </trkpt>
      <trkpt lat="48.67567" lon="6.10944">
        <ele>364</ele>
        <time>2013-06-30T10:28:44Z</time>
      </trkpt>
      <trkpt lat="48.67561" lon="6.10945">
        <ele>367</ele>
        <time>2013-06-30T10:28:46Z</time>
      </trkpt>
      <trkpt lat="48.67555" lon="6.10946">
        <ele>366</ele>
        <time>2013-06-30T10:28:48Z</time>
      </trkpt>
      <trkpt lat="48.67549" lon="6.10948">
        <ele>367</ele>
        <time>2013-06-30T10:28:50Z</time>
      </trkpt>
      <trkpt lat="48.67543" lon="6.10948">
        <ele>366</ele>
        <time>2013-06-30T10:28:52Z</time>
      </trkpt>
      <trkpt lat="48.67537" lon="6.1095">
        <ele>366</ele>
        <time>2013-06-30T10:28:54Z</time>
      </trkpt>
      <trkpt lat="48.67531" lon="6.10952">
        <ele>364</ele>
        <time>2013-06-30T10:28:56Z</time>
      </trkpt>
      <trkpt lat="48.67523" lon="6.10955">
        <ele>368</ele>
        <time>2013-06-30T10:28:58Z</time>
      </trkpt>
      <trkpt lat="48.67514" lon="6.10959">
        <ele>369</ele>
        <time>2013-06-30T10:29:00Z</time>
      </trkpt>
      <trkpt lat="48.67505" lon="6.10963">
        <ele>369</ele>
        <time>2013-06-30T10:29:02Z</time>
      </trkpt>
      <trkpt lat="48.67495" lon="6.10965">
        <ele>365</ele>
        <time>2013-06-30T10:29:04Z</time>
      </trkpt>
      <trkpt lat="48.67485" lon="6.10966">
        <ele>367</ele>
        <time>2013-06-30T10:29:06Z</time>
      </trkpt>
      <trkpt lat="48.67476" lon="6.10968">
        <ele>366</ele>
        <time>2013-06-30T10:29:08Z</time>
      </trkpt>
      <trkpt lat="48.67464" lon="6.1097">
        <ele>366</ele>
        <time>2013-06-30T10:29:10Z</time>
      </trkpt>
      <trkpt lat="48.67453" lon="6.10975">
        <ele>367</ele>
        <time>2013-06-30T10:29:12Z</time>
      </trkpt>
      <trkpt lat="48.67441" lon="6.10979">
        <ele>366</ele>
        <time>2013-06-30T10:29:14Z</time>
      </trkpt>
      <trkpt lat="48.67427" lon="6.10982">
        <ele>364</ele>
        <time>2013-06-30T10:29:16Z</time>
      </trkpt>
      <trkpt lat="48.67417" lon="6.10982">
        <ele>362</ele>
        <time>2013-06-30T10:29:18Z</time>
      </trkpt>
      <trkpt lat="48.67411" lon="6.10984">
        <ele>363</ele>
        <time>2013-06-30T10:29:20Z</time>
      </trkpt>
      <trkpt lat="48.67406" lon="6.10987">
        <ele>366</ele>
        <time>2013-06-30T10:29:22Z</time>
      </trkpt>
      <trkpt lat="48.67388" lon="6.10991">
        <ele>366</ele>
        <time>2013-06-30T10:29:28Z</time>
      </trkpt>
      <trkpt lat="48.67384" lon="6.10993">
        <ele>366</ele>
        <time>2013-06-30T10:29:30Z</time>
      </trkpt>
      <trkpt lat="48.6738" lon="6.10994">
        <ele>365</ele>
        <time>2013-06-30T10:29:32Z</time>
      </trkpt>
      <trkpt lat="48.67376" lon="6.10994">
        <ele>359</ele>
        <time>2013-06-30T10:29:34Z</time>
      </trkpt>
      <trkpt lat="48.67373" lon="6.10994">
        <ele>358</ele>
        <time>2013-06-30T10:29:36Z</time>
      </trkpt>
      <trkpt lat="48.6737" lon="6.10995">
        <ele>362</ele>
        <time>2013-06-30T10:29:38Z</time>
      </trkpt>
      <trkpt lat="48.67364" lon="6.10996">
        <ele>355</ele>
        <time>2013-06-30T10:29:40Z</time>
      </trkpt>
      <trkpt lat="48.67357" lon="6.10997">
        <ele>352</ele>
        <time>2013-06-30T10:29:42Z</time>
      </trkpt>
      <trkpt lat="48.6735" lon="6.11">
        <ele>352</ele>
        <time>2013-06-30T10:29:44Z</time>
      </trkpt>
      <trkpt lat="48.67342" lon="6.11002">
        <ele>354</ele>
        <time>2013-06-30T10:29:46Z</time>
      </trkpt>
      <trkpt lat="48.67336" lon="6.11002">
        <ele>354</ele>
        <time>2013-06-30T10:29:48Z</time>
      </trkpt>
      <trkpt lat="48.67328" lon="6.11002">
        <ele>354</ele>
        <time>2013-06-30T10:29:50Z</time>
      </trkpt>
      <trkpt lat="48.67321" lon="6.11003">
        <ele>352</ele>
        <time>2013-06-30T10:29:52Z</time>
      </trkpt>
      <trkpt lat="48.67315" lon="6.11002">
        <ele>351</ele>
        <time>2013-06-30T10:29:54Z</time>
      </trkpt>
      <trkpt lat="48.67309" lon="6.11002">
        <ele>351</ele>
        <time>2013-06-30T10:29:56Z</time>
      </trkpt>
      <trkpt lat="48.67306" lon="6.11003">
        <ele>357</ele>
        <time>2013-06-30T10:29:57Z</time>
      </trkpt>
      <trkpt lat="48.67297" lon="6.11003">
        <ele>361</ele>
        <time>2013-06-30T10:30:00Z</time>
      </trkpt>
      <trkpt lat="48.67291" lon="6.11004">
        <ele>364</ele>
        <time>2013-06-30T10:30:02Z</time>
      </trkpt>
      <trkpt lat="48.67285" lon="6.11006">
        <ele>367</ele>
        <time>2013-06-30T10:30:04Z</time>
      </trkpt>
      <trkpt lat="48.67279" lon="6.11007">
        <ele>370</ele>
        <time>2013-06-30T10:30:06Z</time>
      </trkpt>
      <trkpt lat="48.67274" lon="6.11009">
        <ele>372</ele>
        <time>2013-06-30T10:30:08Z</time>
      </trkpt>
      <trkpt lat="48.67268" lon="6.11012">
        <ele>369</ele>
        <time>2013-06-30T10:30:10Z</time>
      </trkpt>
      <trkpt lat="48.67263" lon="6.11016">
        <ele>369</ele>
        <time>2013-06-30T10:30:12Z</time>
      </trkpt>
      <trkpt lat="48.67256" lon="6.11021">
        <ele>370</ele>
        <time>2013-06-30T10:30:14Z</time>
      </trkpt>
      <trkpt lat="48.67248" lon="6.11029">
        <ele>369</ele>
        <time>2013-06-30T10:30:16Z</time>
      </trkpt>
      <trkpt lat="48.67238" lon="6.11038">
        <ele>370</ele>
        <time>2013-06-30T10:30:18Z</time>
      </trkpt>
      <trkpt lat="48.67231" lon="6.11042">
        <ele>369</ele>
        <time>2013-06-30T10:30:20Z</time>
      </trkpt>
      <trkpt lat="48.67221" lon="6.11042">
        <ele>370</ele>
        <time>2013-06-30T10:30:22Z</time>
      </trkpt>
      <trkpt lat="48.67213" lon="6.11043">
        <ele>370</ele>
        <time>2013-06-30T10:30:24Z</time>
      </trkpt>
      <trkpt lat="48.67204" lon="6.11043">
        <ele>370</ele>
        <time>2013-06-30T10:30:26Z</time>
      </trkpt>
      <trkpt lat="48.67195" lon="6.1104">
        <ele>369</ele>
        <time>2013-06-30T10:30:28Z</time>
      </trkpt>
      <trkpt lat="48.67186" lon="6.11038">
        <ele>367</ele>
        <time>2013-06-30T10:30:30Z</time>
      </trkpt>
      <trkpt lat="48.67178" lon="6.11037">
        <ele>373</ele>
        <time>2013-06-30T10:30:32Z</time>
      </trkpt>
      <trkpt lat="48.67169" lon="6.11037">
        <ele>368</ele>
        <time>2013-06-30T10:30:34Z</time>
      </trkpt>
      <trkpt lat="48.67162" lon="6.11038">
        <ele>365</ele>
        <time>2013-06-30T10:30:36Z</time>
      </trkpt>
      <trkpt lat="48.67158" lon="6.11039">
        <ele>361</ele>
        <time>2013-06-30T10:30:38Z</time>
      </trkpt>
      <trkpt lat="48.67151" lon="6.1104">
        <ele>364</ele>
        <time>2013-06-30T10:30:40Z</time>
      </trkpt>
      <trkpt lat="48.67143" lon="6.11042">
        <ele>363</ele>
        <time>2013-06-30T10:30:42Z</time>
      </trkpt>
      <trkpt lat="48.67135" lon="6.11043">
        <ele>360</ele>
        <time>2013-06-30T10:30:44Z</time>
      </trkpt>
      <trkpt lat="48.67126" lon="6.11045">
        <ele>360</ele>
        <time>2013-06-30T10:30:46Z</time>
      </trkpt>
      <trkpt lat="48.67118" lon="6.11047">
        <ele>359</ele>
        <time>2013-06-30T10:30:48Z</time>
      </trkpt>
      <trkpt lat="48.6711" lon="6.11052">
        <ele>359</ele>
        <time>2013-06-30T10:30:50Z</time>
      </trkpt>
      <trkpt lat="48.67101" lon="6.11055">
        <ele>362</ele>
        <time>2013-06-30T10:30:52Z</time>
      </trkpt>
      <trkpt lat="48.67092" lon="6.11058">
        <ele>362</ele>
        <time>2013-06-30T10:30:54Z</time>
      </trkpt>
      <trkpt lat="48.67084" lon="6.11062">
        <ele>363</ele>
        <time>2013-06-30T10:30:56Z</time>
      </trkpt>
      <trkpt lat="48.67073" lon="6.11066">
        <ele>365</ele>
        <time>2013-06-30T10:30:58Z</time>
      </trkpt>
      <trkpt lat="48.67064" lon="6.11069">
        <ele>365</ele>
        <time>2013-06-30T10:31:00Z</time>
      </trkpt>
      <trkpt lat="48.67054" lon="6.11071">
        <ele>365</ele>
        <time>2013-06-30T10:31:02Z</time>
      </trkpt>
      <trkpt lat="48.67045" lon="6.11072">
        <ele>365</ele>
        <time>2013-06-30T10:31:04Z</time>
      </trkpt>
      <trkpt lat="48.67036" lon="6.11072">
        <ele>365</ele>
        <time>2013-06-30T10:31:06Z</time>
      </trkpt>
      <trkpt lat="48.67029" lon="6.11073">
        <ele>366</ele>
        <time>2013-06-30T10:31:08Z</time>
      </trkpt>
      <trkpt lat="48.67021" lon="6.11074">
        <ele>365</ele>
        <time>2013-06-30T10:31:10Z</time>
      </trkpt>
      <trkpt lat="48.67012" lon="6.11076">
        <ele>364</ele>
        <time>2013-06-30T10:31:12Z</time>
      </trkpt>
      <trkpt lat="48.67004" lon="6.1108">
        <ele>363</ele>
        <time>2013-06-30T10:31:14Z</time>
      </trkpt>
      <trkpt lat="48.66996" lon="6.11082">
        <ele>360</ele>
        <time>2013-06-30T10:31:16Z</time>
      </trkpt>
      <trkpt lat="48.66989" lon="6.11083">
        <ele>361</ele>
        <time>2013-06-30T10:31:18Z</time>
      </trkpt>
      <trkpt lat="48.66981" lon="6.11085">
        <ele>364</ele>
        <time>2013-06-30T10:31:20Z</time>
      </trkpt>
      <trkpt lat="48.66972" lon="6.11088">
        <ele>364</ele>
        <time>2013-06-30T10:31:22Z</time>
      </trkpt>
      <trkpt lat="48.66964" lon="6.1109">
        <ele>363</ele>
        <time>2013-06-30T10:31:24Z</time>
      </trkpt>
      <trkpt lat="48.66955" lon="6.11093">
        <ele>363</ele>
        <time>2013-06-30T10:31:26Z</time>
      </trkpt>
      <trkpt lat="48.66946" lon="6.11096">
        <ele>361</ele>
        <time>2013-06-30T10:31:28Z</time>
      </trkpt>
      <trkpt lat="48.66939" lon="6.11098">
        <ele>358</ele>
        <time>2013-06-30T10:31:30Z</time>
      </trkpt>
      <trkpt lat="48.6693" lon="6.11099">
        <ele>360</ele>
        <time>2013-06-30T10:31:32Z</time>
      </trkpt>
      <trkpt lat="48.66918" lon="6.11101">
        <ele>361</ele>
        <time>2013-06-30T10:31:34Z</time>
      </trkpt>
      <trkpt lat="48.6691" lon="6.11102">
        <ele>359</ele>
        <time>2013-06-30T10:31:36Z</time>
      </trkpt>
      <trkpt lat="48.66899" lon="6.11101">
        <ele>362</ele>
        <time>2013-06-30T10:31:38Z</time>
      </trkpt>
      <trkpt lat="48.66888" lon="6.11101">
        <ele>362</ele>
        <time>2013-06-30T10:31:40Z</time>
      </trkpt>
      <trkpt lat="48.66879" lon="6.11104">
        <ele>363</ele>
        <time>2013-06-30T10:31:42Z</time>
      </trkpt>
      <trkpt lat="48.66869" lon="6.11104">
        <ele>363</ele>
        <time>2013-06-30T10:31:44Z</time>
      </trkpt>
      <trkpt lat="48.6686" lon="6.11106">
        <ele>362</ele>
        <time>2013-06-30T10:31:46Z</time>
      </trkpt>
      <trkpt lat="48.66851" lon="6.11111">
        <ele>362</ele>
        <time>2013-06-30T10:31:48Z</time>
      </trkpt>
      <trkpt lat="48.66845" lon="6.11112">
        <ele>362</ele>
        <time>2013-06-30T10:31:50Z</time>
      </trkpt>
      <trkpt lat="48.66837" lon="6.11113">
        <ele>362</ele>
        <time>2013-06-30T10:31:52Z</time>
      </trkpt>
      <trkpt lat="48.66829" lon="6.11114">
        <ele>360</ele>
        <time>2013-06-30T10:31:54Z</time>
      </trkpt>
      <trkpt lat="48.66822" lon="6.11115">
        <ele>361</ele>
        <time>2013-06-30T10:31:56Z</time>
      </trkpt>
      <trkpt lat="48.66813" lon="6.1112">
        <ele>362</ele>
        <time>2013-06-30T10:31:58Z</time>
      </trkpt>
      <trkpt lat="48.66805" lon="6.11121">
        <ele>363</ele>
        <time>2013-06-30T10:32:00Z</time>
      </trkpt>
      <trkpt lat="48.66799" lon="6.11122">
        <ele>364</ele>
        <time>2013-06-30T10:32:02Z</time>
      </trkpt>
      <trkpt lat="48.66793" lon="6.11123">
        <ele>366</ele>
        <time>2013-06-30T10:32:04Z</time>
      </trkpt>
      <trkpt lat="48.66786" lon="6.11124">
        <ele>364</ele>
        <time>2013-06-30T10:32:06Z</time>
      </trkpt>
      <trkpt lat="48.66779" lon="6.11126">
        <ele>366</ele>
        <time>2013-06-30T10:32:08Z</time>
      </trkpt>
      <trkpt lat="48.66773" lon="6.1113">
        <ele>364</ele>
        <time>2013-06-30T10:32:10Z</time>
      </trkpt>
      <trkpt lat="48.66766" lon="6.11133">
        <ele>360</ele>
        <time>2013-06-30T10:32:12Z</time>
      </trkpt>
      <trkpt lat="48.6676" lon="6.11134">
        <ele>361</ele>
        <time>2013-06-30T10:32:14Z</time>
      </trkpt>
      <trkpt lat="48.66753" lon="6.11137">
        <ele>361</ele>
        <time>2013-06-30T10:32:16Z</time>
      </trkpt>
      <trkpt lat="48.66745" lon="6.11137">
        <ele>360</ele>
        <time>2013-06-30T10:32:18Z</time>
      </trkpt>
      <trkpt lat="48.66735" lon="6.1114">
        <ele>359</ele>
        <time>2013-06-30T10:32:20Z</time>
      </trkpt>
      <trkpt lat="48.66725" lon="6.11142">
        <ele>359</ele>
        <time>2013-06-30T10:32:22Z</time>
      </trkpt>
      <trkpt lat="48.66716" lon="6.11144">
        <ele>357</ele>
        <time>2013-06-30T10:32:24Z</time>
      </trkpt>
      <trkpt lat="48.66707" lon="6.11147">
        <ele>356</ele>
        <time>2013-06-30T10:32:26Z</time>
      </trkpt>
      <trkpt lat="48.66699" lon="6.11149">
        <ele>355</ele>
        <time>2013-06-30T10:32:28Z</time>
      </trkpt>
      <trkpt lat="48.66689" lon="6.11149">
        <ele>356</ele>
        <time>2013-06-30T10:32:30Z</time>
      </trkpt>
      <trkpt lat="48.66678" lon="6.11152">
        <ele>357</ele>
        <time>2013-06-30T10:32:32Z</time>
      </trkpt>
      <trkpt lat="48.66669" lon="6.11155">
        <ele>353</ele>
        <time>2013-06-30T10:32:34Z</time>
      </trkpt>
      <trkpt lat="48.6666" lon="6.11158">
        <ele>355</ele>
        <time>2013-06-30T10:32:36Z</time>
      </trkpt>
      <trkpt lat="48.66652" lon="6.1116">
        <ele>356</ele>
        <time>2013-06-30T10:32:38Z</time>
      </trkpt>
      <trkpt lat="48.66644" lon="6.11163">
        <ele>354</ele>
        <time>2013-06-30T10:32:40Z</time>
      </trkpt>
      <trkpt lat="48.66636" lon="6.11164">
        <ele>352</ele>
        <time>2013-06-30T10:32:42Z</time>
      </trkpt>
      <trkpt lat="48.66628" lon="6.11167">
        <ele>349</ele>
        <time>2013-06-30T10:32:44Z</time>
      </trkpt>
      <trkpt lat="48.6662" lon="6.1117">
        <ele>347</ele>
        <time>2013-06-30T10:32:46Z</time>
      </trkpt>
      <trkpt lat="48.66612" lon="6.11172">
        <ele>347</ele>
        <time>2013-06-30T10:32:48Z</time>
      </trkpt>
      <trkpt lat="48.66604" lon="6.11174">
        <ele>349</ele>
        <time>2013-06-30T10:32:50Z</time>
      </trkpt>
      <trkpt lat="48.66597" lon="6.11175">
        <ele>350</ele>
        <time>2013-06-30T10:32:52Z</time>
      </trkpt>
      <trkpt lat="48.66591" lon="6.11176">
        <ele>351</ele>
        <time>2013-06-30T10:32:54Z</time>
      </trkpt>
      <trkpt lat="48.66583" lon="6.11178">
        <ele>350</ele>
        <time>2013-06-30T10:32:56Z</time>
      </trkpt>
      <trkpt lat="48.66573" lon="6.11179">
        <ele>351</ele>
        <time>2013-06-30T10:32:58Z</time>
      </trkpt>
      <trkpt lat="48.66563" lon="6.11182">
        <ele>353</ele>
        <time>2013-06-30T10:33:00Z</time>
      </trkpt>
      <trkpt lat="48.66553" lon="6.11186">
        <ele>354</ele>
        <time>2013-06-30T10:33:02Z</time>
      </trkpt>
      <trkpt lat="48.66541" lon="6.11189">
        <ele>354</ele>
        <time>2013-06-30T10:33:04Z</time>
      </trkpt>
      <trkpt lat="48.6653" lon="6.11192">
        <ele>354</ele>
        <time>2013-06-30T10:33:06Z</time>
      </trkpt>
      <trkpt lat="48.66519" lon="6.11195">
        <ele>355</ele>
        <time>2013-06-30T10:33:08Z</time>
      </trkpt>
      <trkpt lat="48.6651" lon="6.11196">
        <ele>353</ele>
        <time>2013-06-30T10:33:10Z</time>
      </trkpt>
      <trkpt lat="48.66501" lon="6.112">
        <ele>351</ele>
        <time>2013-06-30T10:33:12Z</time>
      </trkpt>
      <trkpt lat="48.66491" lon="6.11204">
        <ele>351</ele>
        <time>2013-06-30T10:33:14Z</time>
      </trkpt>
      <trkpt lat="48.6648" lon="6.11205">
        <ele>355</ele>
        <time>2013-06-30T10:33:16Z</time>
      </trkpt>
      <trkpt lat="48.66469" lon="6.11204">
        <ele>356</ele>
        <time>2013-06-30T10:33:18Z</time>
      </trkpt>
      <trkpt lat="48.66459" lon="6.11204">
        <ele>356</ele>
        <time>2013-06-30T10:33:20Z</time>
      </trkpt>
      <trkpt lat="48.66452" lon="6.11205">
        <ele>357</ele>
        <time>2013-06-30T10:33:22Z</time>
      </trkpt>
      <trkpt lat="48.66445" lon="6.11209">
        <ele>357</ele>
        <time>2013-06-30T10:33:24Z</time>
      </trkpt>
      <trkpt lat="48.66439" lon="6.11214">
        <ele>357</ele>
        <time>2013-06-30T10:33:26Z</time>
      </trkpt>
      <trkpt lat="48.66432" lon="6.11216">
        <ele>357</ele>
        <time>2013-06-30T10:33:28Z</time>
      </trkpt>
      <trkpt lat="48.6643" lon="6.11217">
        <ele>355</ele>
        <time>2013-06-30T10:33:29Z</time>
      </trkpt>
      <trkpt lat="48.66427" lon="6.11218">
        <ele>355</ele>
        <time>2013-06-30T10:33:30Z</time>
      </trkpt>
      <trkpt lat="48.66423" lon="6.11218">
        <ele>355</ele>
        <time>2013-06-30T10:33:31Z</time>
      </trkpt>
      <trkpt lat="48.66419" lon="6.11218">
        <ele>355</ele>
        <time>2013-06-30T10:33:32Z</time>
      </trkpt>
      <trkpt lat="48.6641" lon="6.11218">
        <ele>356</ele>
        <time>2013-06-30T10:33:34Z</time>
      </trkpt>
      <trkpt lat="48.664" lon="6.1122">
        <ele>356</ele>
        <time>2013-06-30T10:33:36Z</time>
      </trkpt>
      <trkpt lat="48.66391" lon="6.11222">
        <ele>358</ele>
        <time>2013-06-30T10:33:38Z</time>
      </trkpt>
      <trkpt lat="48.6638" lon="6.11226">
        <ele>361</ele>
        <time>2013-06-30T10:33:40Z</time>
      </trkpt>
      <trkpt lat="48.66371" lon="6.11229">
        <ele>360</ele>
        <time>2013-06-30T10:33:42Z</time>
      </trkpt>
      <trkpt lat="48.66362" lon="6.11233">
        <ele>360</ele>
        <time>2013-06-30T10:33:44Z</time>
      </trkpt>
      <trkpt lat="48.66353" lon="6.11237">
        <ele>361</ele>
        <time>2013-06-30T10:33:46Z</time>
      </trkpt>
      <trkpt lat="48.66344" lon="6.11239">
        <ele>359</ele>
        <time>2013-06-30T10:33:48Z</time>
      </trkpt>
      <trkpt lat="48.66336" lon="6.11241">
        <ele>361</ele>
        <time>2013-06-30T10:33:50Z</time>
      </trkpt>
      <trkpt lat="48.66333" lon="6.11241">
        <ele>358</ele>
        <time>2013-06-30T10:33:56Z</time>
      </trkpt>
      <trkpt lat="48.6633" lon="6.1124">
        <ele>354</ele>
        <time>2013-06-30T10:33:58Z</time>
      </trkpt>
      <trkpt lat="48.66325" lon="6.1124">
        <ele>357</ele>
        <time>2013-06-30T10:34:00Z</time>
      </trkpt>
      <trkpt lat="48.66317" lon="6.11241">
        <ele>358</ele>
        <time>2013-06-30T10:34:02Z</time>
      </trkpt>
      <trkpt lat="48.66309" lon="6.11244">
        <ele>357</ele>
        <time>2013-06-30T10:34:05Z</time>
      </trkpt>
      <trkpt lat="48.66303" lon="6.11247">
        <ele>354</ele>
        <time>2013-06-30T10:34:07Z</time>
      </trkpt>
      <trkpt lat="48.66298" lon="6.11247">
        <ele>355</ele>
        <time>2013-06-30T10:34:09Z</time>
      </trkpt>
      <trkpt lat="48.66294" lon="6.11248">
        <ele>359</ele>
        <time>2013-06-30T10:34:11Z</time>
      </trkpt>
      <trkpt lat="48.66289" lon="6.11248">
        <ele>356</ele>
        <time>2013-06-30T10:34:13Z</time>
      </trkpt>
      <trkpt lat="48.66284" lon="6.11248">
        <ele>357</ele>
        <time>2013-06-30T10:34:15Z</time>
      </trkpt>
      <trkpt lat="48.66279" lon="6.11249">
        <ele>355</ele>
        <time>2013-06-30T10:34:17Z</time>
      </trkpt>
      <trkpt lat="48.66274" lon="6.11251">
        <ele>352</ele>
        <time>2013-06-30T10:34:19Z</time>
      </trkpt>
      <trkpt lat="48.66264" lon="6.11252">
        <ele>354</ele>
        <time>2013-06-30T10:34:21Z</time>
      </trkpt>
      <trkpt lat="48.66254" lon="6.1125">
        <ele>354</ele>
        <time>2013-06-30T10:34:23Z</time>
      </trkpt>
      <trkpt lat="48.66245" lon="6.11248">
        <ele>355</ele>
        <time>2013-06-30T10:34:25Z</time>
      </trkpt>
      <trkpt lat="48.66238" lon="6.11244">
        <ele>358</ele>
        <time>2013-06-30T10:34:27Z</time>
      </trkpt>
      <trkpt lat="48.66233" lon="6.11237">
        <ele>361</ele>
        <time>2013-06-30T10:34:29Z</time>
      </trkpt>
      <trkpt lat="48.66227" lon="6.11232">
        <ele>363</ele>
        <time>2013-06-30T10:34:31Z</time>
      </trkpt>
      <trkpt lat="48.66222" lon="6.11226">
        <ele>359</ele>
        <time>2013-06-30T10:34:33Z</time>
      </trkpt>
      <trkpt lat="48.6622" lon="6.11218">
        <ele>358</ele>
        <time>2013-06-30T10:34:35Z</time>
      </trkpt>
      <trkpt lat="48.66216" lon="6.11211">
        <ele>359</ele>
        <time>2013-06-30T10:34:37Z</time>
      </trkpt>
      <trkpt lat="48.66213" lon="6.11205">
        <ele>359</ele>
        <time>2013-06-30T10:34:39Z</time>
      </trkpt>
      <trkpt lat="48.66212" lon="6.11199">
        <ele>363</ele>
        <time>2013-06-30T10:34:41Z</time>
      </trkpt>
      <trkpt lat="48.66205" lon="6.11194">
        <ele>362</ele>
        <time>2013-06-30T10:34:43Z</time>
      </trkpt>
      <trkpt lat="48.66196" lon="6.11192">
        <ele>359</ele>
        <time>2013-06-30T10:34:45Z</time>
      </trkpt>
      <trkpt lat="48.66185" lon="6.11193">
        <ele>359</ele>
        <time>2013-06-30T10:34:47Z</time>
      </trkpt>
      <trkpt lat="48.66176" lon="6.112">
        <ele>357</ele>
        <time>2013-06-30T10:34:49Z</time>
      </trkpt>
      <trkpt lat="48.66169" lon="6.1121">
        <ele>357</ele>
        <time>2013-06-30T10:34:51Z</time>
      </trkpt>
      <trkpt lat="48.66164" lon="6.1122">
        <ele>356</ele>
        <time>2013-06-30T10:34:53Z</time>
      </trkpt>
      <trkpt lat="48.6616" lon="6.11231">
        <ele>355</ele>
        <time>2013-06-30T10:34:55Z</time>
      </trkpt>
      <trkpt lat="48.66156" lon="6.1124">
        <ele>354</ele>
        <time>2013-06-30T10:34:57Z</time>
      </trkpt>
      <trkpt lat="48.66153" lon="6.11249">
        <ele>355</ele>
        <time>2013-06-30T10:34:59Z</time>
      </trkpt>
      <trkpt lat="48.66149" lon="6.11259">
        <ele>355</ele>
        <time>2013-06-30T10:35:01Z</time>
      </trkpt>
      <trkpt lat="48.66145" lon="6.11268">
        <ele>355</ele>
        <time>2013-06-30T10:35:03Z</time>
      </trkpt>
      <trkpt lat="48.6614" lon="6.11278">
        <ele>355</ele>
        <time>2013-06-30T10:35:05Z</time>
      </trkpt>
      <trkpt lat="48.66135" lon="6.11288">
        <ele>355</ele>
        <time>2013-06-30T10:35:07Z</time>
      </trkpt>
      <trkpt lat="48.6613" lon="6.11297">
        <ele>355</ele>
        <time>2013-06-30T10:35:09Z</time>
      </trkpt>
      <trkpt lat="48.66124" lon="6.11306">
        <ele>355</ele>
        <time>2013-06-30T10:35:11Z</time>
      </trkpt>
      <trkpt lat="48.66118" lon="6.11313">
        <ele>356</ele>
        <time>2013-06-30T10:35:13Z</time>
      </trkpt>
      <trkpt lat="48.6611" lon="6.11321">
        <ele>356</ele>
        <time>2013-06-30T10:35:15Z</time>
      </trkpt>
      <trkpt lat="48.66102" lon="6.11327">
        <ele>354</ele>
        <time>2013-06-30T10:35:17Z</time>
      </trkpt>
      <trkpt lat="48.66094" lon="6.11332">
        <ele>356</ele>
        <time>2013-06-30T10:35:19Z</time>
      </trkpt>
      <trkpt lat="48.66086" lon="6.11337">
        <ele>357</ele>
        <time>2013-06-30T10:35:21Z</time>
      </trkpt>
      <trkpt lat="48.66079" lon="6.11343">
        <ele>358</ele>
        <time>2013-06-30T10:35:23Z</time>
      </trkpt>
      <trkpt lat="48.66071" lon="6.11348">
        <ele>356</ele>
        <time>2013-06-30T10:35:25Z</time>
      </trkpt>
      <trkpt lat="48.66063" lon="6.11352">
        <ele>355</ele>
        <time>2013-06-30T10:35:27Z</time>
      </trkpt>
      <trkpt lat="48.66055" lon="6.11356">
        <ele>356</ele>
        <time>2013-06-30T10:35:29Z</time>
      </trkpt>
      <trkpt lat="48.66046" lon="6.11361">
        <ele>358</ele>
        <time>2013-06-30T10:35:31Z</time>
      </trkpt>
      <trkpt lat="48.66038" lon="6.11365">
        <ele>357</ele>
        <time>2013-06-30T10:35:33Z</time>
      </trkpt>
      <trkpt lat="48.66029" lon="6.1137">
        <ele>357</ele>
        <time>2013-06-30T10:35:35Z</time>
      </trkpt>
      <trkpt lat="48.66021" lon="6.11376">
        <ele>357</ele>
        <time>2013-06-30T10:35:37Z</time>
      </trkpt>
      <trkpt lat="48.66012" lon="6.11383">
        <ele>360</ele>
        <time>2013-06-30T10:35:39Z</time>
      </trkpt>
      <trkpt lat="48.66003" lon="6.11388">
        <ele>360</ele>
        <time>2013-06-30T10:35:41Z</time>
      </trkpt>
      <trkpt lat="48.65994" lon="6.11392">
        <ele>359</ele>
        <time>2013-06-30T10:35:43Z</time>
      </trkpt>
      <trkpt lat="48.65985" lon="6.11398">
        <ele>357</ele>
        <time>2013-06-30T10:35:45Z</time>
      </trkpt>
      <trkpt lat="48.65976" lon="6.11405">
        <ele>356</ele>
        <time>2013-06-30T10:35:47Z</time>
      </trkpt>
      <trkpt lat="48.65966" lon="6.11415">
        <ele>353</ele>
        <time>2013-06-30T10:35:49Z</time>
      </trkpt>
      <trkpt lat="48.65955" lon="6.11426">
        <ele>352</ele>
        <time>2013-06-30T10:35:51Z</time>
      </trkpt>
      <trkpt lat="48.65944" lon="6.11438">
        <ele>352</ele>
        <time>2013-06-30T10:35:53Z</time>
      </trkpt>
      <trkpt lat="48.65934" lon="6.11452">
        <ele>355</ele>
        <time>2013-06-30T10:35:55Z</time>
      </trkpt>
      <trkpt lat="48.65924" lon="6.11467">
        <ele>356</ele>
        <time>2013-06-30T10:35:57Z</time>
      </trkpt>
      <trkpt lat="48.65918" lon="6.11473">
        <ele>354</ele>
        <time>2013-06-30T10:35:58Z</time>
      </trkpt>
      <trkpt lat="48.65913" lon="6.11478">
        <ele>351</ele>
        <time>2013-06-30T10:35:59Z</time>
      </trkpt>
      <trkpt lat="48.65903" lon="6.11482">
        <ele>349</ele>
        <time>2013-06-30T10:36:01Z</time>
      </trkpt>
      <trkpt lat="48.65893" lon="6.11483">
        <ele>349</ele>
        <time>2013-06-30T10:36:03Z</time>
      </trkpt>
      <trkpt lat="48.65889" lon="6.11483">
        <ele>348</ele>
        <time>2013-06-30T10:36:04Z</time>
      </trkpt>
      <trkpt lat="48.65885" lon="6.11482">
        <ele>347</ele>
        <time>2013-06-30T10:36:05Z</time>
      </trkpt>
      <trkpt lat="48.65879" lon="6.1148">
        <ele>350</ele>
        <time>2013-06-30T10:36:07Z</time>
      </trkpt>
      <trkpt lat="48.65875" lon="6.11478">
        <ele>354</ele>
        <time>2013-06-30T10:36:09Z</time>
      </trkpt>
      <trkpt lat="48.65867" lon="6.11486">
        <ele>347</ele>
        <time>2013-06-30T10:36:13Z</time>
      </trkpt>
      <trkpt lat="48.65869" lon="6.11498">
        <ele>349</ele>
        <time>2013-06-30T10:36:15Z</time>
      </trkpt>
      <trkpt lat="48.6587" lon="6.11521">
        <ele>347</ele>
        <time>2013-06-30T10:36:18Z</time>
      </trkpt>
      <trkpt lat="48.6587" lon="6.1153">
        <ele>347</ele>
        <time>2013-06-30T10:36:19Z</time>
      </trkpt>
      <trkpt lat="48.65868" lon="6.11548">
        <ele>346</ele>
        <time>2013-06-30T10:36:21Z</time>
      </trkpt>
      <trkpt lat="48.65869" lon="6.11567">
        <ele>344</ele>
        <time>2013-06-30T10:36:23Z</time>
      </trkpt>
      <trkpt lat="48.6587" lon="6.11577">
        <ele>344</ele>
        <time>2013-06-30T10:36:24Z</time>
      </trkpt>
      <trkpt lat="48.65874" lon="6.11607">
        <ele>342</ele>
        <time>2013-06-30T10:36:27Z</time>
      </trkpt>
      <trkpt lat="48.65876" lon="6.11626">
        <ele>342</ele>
        <time>2013-06-30T10:36:29Z</time>
      </trkpt>
      <trkpt lat="48.65879" lon="6.11648">
        <ele>344</ele>
        <time>2013-06-30T10:36:31Z</time>
      </trkpt>
      <trkpt lat="48.65881" lon="6.1167">
        <ele>343</ele>
        <time>2013-06-30T10:36:33Z</time>
      </trkpt>
      <trkpt lat="48.65883" lon="6.11692">
        <ele>343</ele>
        <time>2013-06-30T10:36:35Z</time>
      </trkpt>
      <trkpt lat="48.65884" lon="6.11703">
        <ele>343</ele>
        <time>2013-06-30T10:36:36Z</time>
      </trkpt>
      <trkpt lat="48.65886" lon="6.11734">
        <ele>344</ele>
        <time>2013-06-30T10:36:39Z</time>
      </trkpt>
      <trkpt lat="48.65888" lon="6.11754">
        <ele>347</ele>
        <time>2013-06-30T10:36:41Z</time>
      </trkpt>
      <trkpt lat="48.65887" lon="6.11792">
        <ele>343</ele>
        <time>2013-06-30T10:36:45Z</time>
      </trkpt>
      <trkpt lat="48.65885" lon="6.11806">
        <ele>341</ele>
        <time>2013-06-30T10:36:47Z</time>
      </trkpt>
      <trkpt lat="48.65884" lon="6.11817">
        <ele>342</ele>
        <time>2013-06-30T10:36:49Z</time>
      </trkpt>
      <trkpt lat="48.65883" lon="6.11828">
        <ele>339</ele>
        <time>2013-06-30T10:36:51Z</time>
      </trkpt>
      <trkpt lat="48.65881" lon="6.11838">
        <ele>342</ele>
        <time>2013-06-30T10:36:53Z</time>
      </trkpt>
      <trkpt lat="48.65875" lon="6.11863">
        <ele>349</ele>
        <time>2013-06-30T10:36:59Z</time>
      </trkpt>
      <trkpt lat="48.65873" lon="6.11872">
        <ele>350</ele>
        <time>2013-06-30T10:37:01Z</time>
      </trkpt>
      <trkpt lat="48.65873" lon="6.11876">
        <ele>351</ele>
        <time>2013-06-30T10:37:02Z</time>
      </trkpt>
      <trkpt lat="48.65869" lon="6.11892">
        <ele>352</ele>
        <time>2013-06-30T10:37:05Z</time>
      </trkpt>
      <trkpt lat="48.65866" lon="6.11902">
        <ele>354</ele>
        <time>2013-06-30T10:37:07Z</time>
      </trkpt>
      <trkpt lat="48.65862" lon="6.11913">
        <ele>357</ele>
        <time>2013-06-30T10:37:09Z</time>
      </trkpt>
      <trkpt lat="48.6586" lon="6.11919">
        <ele>356</ele>
        <time>2013-06-30T10:37:10Z</time>
      </trkpt>
      <trkpt lat="48.65859" lon="6.11925">
        <ele>356</ele>
        <time>2013-06-30T10:37:11Z</time>
      </trkpt>
      <trkpt lat="48.65856" lon="6.11936">
        <ele>356</ele>
        <time>2013-06-30T10:37:13Z</time>
      </trkpt>
      <trkpt lat="48.65854" lon="6.1194">
        <ele>355</ele>
        <time>2013-06-30T10:37:14Z</time>
      </trkpt>
      <trkpt lat="48.6585" lon="6.11952">
        <ele>364</ele>
        <time>2013-06-30T10:37:17Z</time>
      </trkpt>
      <trkpt lat="48.65848" lon="6.1196">
        <ele>365</ele>
        <time>2013-06-30T10:37:19Z</time>
      </trkpt>
      <trkpt lat="48.65845" lon="6.11969">
        <ele>366</ele>
        <time>2013-06-30T10:37:21Z</time>
      </trkpt>
      <trkpt lat="48.65844" lon="6.11974">
        <ele>367</ele>
        <time>2013-06-30T10:37:22Z</time>
      </trkpt>
      <trkpt lat="48.65842" lon="6.11979">
        <ele>366</ele>
        <time>2013-06-30T10:37:23Z</time>
      </trkpt>
      <trkpt lat="48.65839" lon="6.11989">
        <ele>371</ele>
        <time>2013-06-30T10:37:25Z</time>
      </trkpt>
      <trkpt lat="48.65837" lon="6.11997">
        <ele>369</ele>
        <time>2013-06-30T10:37:27Z</time>
      </trkpt>
      <trkpt lat="48.65836" lon="6.12002">
        <ele>370</ele>
        <time>2013-06-30T10:37:28Z</time>
      </trkpt>
      <trkpt lat="48.65835" lon="6.12007">
        <ele>371</ele>
        <time>2013-06-30T10:37:29Z</time>
      </trkpt>
      <trkpt lat="48.65834" lon="6.12019">
        <ele>371</ele>
        <time>2013-06-30T10:37:31Z</time>
      </trkpt>
      <trkpt lat="48.65834" lon="6.12036">
        <ele>367</ele>
        <time>2013-06-30T10:37:34Z</time>
      </trkpt>
      <trkpt lat="48.65834" lon="6.12043">
        <ele>367</ele>
        <time>2013-06-30T10:37:35Z</time>
      </trkpt>
      <trkpt lat="48.65834" lon="6.12053">
        <ele>366</ele>
        <time>2013-06-30T10:37:37Z</time>
      </trkpt>
      <trkpt lat="48.65835" lon="6.12061">
        <ele>366</ele>
        <time>2013-06-30T10:37:39Z</time>
      </trkpt>
      <trkpt lat="48.65836" lon="6.12067">
        <ele>368</ele>
        <time>2013-06-30T10:37:40Z</time>
      </trkpt>
      <trkpt lat="48.65837" lon="6.12071">
        <ele>368</ele>
        <time>2013-06-30T10:37:41Z</time>
      </trkpt>
      <trkpt lat="48.65839" lon="6.1208">
        <ele>368</ele>
        <time>2013-06-30T10:37:43Z</time>
      </trkpt>
      <trkpt lat="48.65841" lon="6.12089">
        <ele>366</ele>
        <time>2013-06-30T10:37:45Z</time>
      </trkpt>
      <trkpt lat="48.65842" lon="6.12093">
        <ele>366</ele>
        <time>2013-06-30T10:37:46Z</time>
      </trkpt>
      <trkpt lat="48.65844" lon="6.12107">
        <ele>368</ele>
        <time>2013-06-30T10:37:49Z</time>
      </trkpt>
      <trkpt lat="48.65846" lon="6.12118">
        <ele>369</ele>
        <time>2013-06-30T10:37:51Z</time>
      </trkpt>
      <trkpt lat="48.65847" lon="6.12127">
        <ele>369</ele>
        <time>2013-06-30T10:37:53Z</time>
      </trkpt>
      <trkpt lat="48.65849" lon="6.12132">
        <ele>369</ele>
        <time>2013-06-30T10:37:54Z</time>
      </trkpt>
      <trkpt lat="48.65849" lon="6.12137">
        <ele>369</ele>
        <time>2013-06-30T10:37:55Z</time>
      </trkpt>
      <trkpt lat="48.65851" lon="6.12147">
        <ele>372</ele>
        <time>2013-06-30T10:37:57Z</time>
      </trkpt>
      <trkpt lat="48.65853" lon="6.12156">
        <ele>374</ele>
        <time>2013-06-30T10:37:59Z</time>
      </trkpt>
      <trkpt lat="48.65855" lon="6.12161">
        <ele>373</ele>
        <time>2013-06-30T10:38:00Z</time>
      </trkpt>
      <trkpt lat="48.65856" lon="6.12166">
        <ele>372</ele>
        <time>2013-06-30T10:38:01Z</time>
      </trkpt>
      <trkpt lat="48.65858" lon="6.12177">
        <ele>369</ele>
        <time>2013-06-30T10:38:03Z</time>
      </trkpt>
      <trkpt lat="48.65861" lon="6.12193">
        <ele>371</ele>
        <time>2013-06-30T10:38:06Z</time>
      </trkpt>
      <trkpt lat="48.65862" lon="6.12199">
        <ele>371</ele>
        <time>2013-06-30T10:38:07Z</time>
      </trkpt>
      <trkpt lat="48.65865" lon="6.12212">
        <ele>367</ele>
        <time>2013-06-30T10:38:09Z</time>
      </trkpt>
      <trkpt lat="48.65868" lon="6.12223">
        <ele>366</ele>
        <time>2013-06-30T10:38:11Z</time>
      </trkpt>
      <trkpt lat="48.6587" lon="6.12227">
        <ele>366</ele>
        <time>2013-06-30T10:38:12Z</time>
      </trkpt>
      <trkpt lat="48.65872" lon="6.12232">
        <ele>367</ele>
        <time>2013-06-30T10:38:13Z</time>
      </trkpt>
      <trkpt lat="48.65875" lon="6.12244">
        <ele>369</ele>
        <time>2013-06-30T10:38:15Z</time>
      </trkpt>
      <trkpt lat="48.65877" lon="6.1225">
        <ele>368</ele>
        <time>2013-06-30T10:38:16Z</time>
      </trkpt>
      <trkpt lat="48.65881" lon="6.12267">
        <ele>361</ele>
        <time>2013-06-30T10:38:19Z</time>
      </trkpt>
      <trkpt lat="48.65886" lon="6.1228">
        <ele>362</ele>
        <time>2013-06-30T10:38:21Z</time>
      </trkpt>
      <trkpt lat="48.6589" lon="6.12293">
        <ele>363</ele>
        <time>2013-06-30T10:38:23Z</time>
      </trkpt>
      <trkpt lat="48.65892" lon="6.12299">
        <ele>363</ele>
        <time>2013-06-30T10:38:24Z</time>
      </trkpt>
      <trkpt lat="48.65894" lon="6.12305">
        <ele>362</ele>
        <time>2013-06-30T10:38:25Z</time>
      </trkpt>
      <trkpt lat="48.65897" lon="6.12315">
        <ele>362</ele>
        <time>2013-06-30T10:38:27Z</time>
      </trkpt>
      <trkpt lat="48.65902" lon="6.12336">
        <ele>362</ele>
        <time>2013-06-30T10:38:31Z</time>
      </trkpt>
      <trkpt lat="48.65907" lon="6.12347">
        <ele>364</ele>
        <time>2013-06-30T10:38:33Z</time>
      </trkpt>
      <trkpt lat="48.65911" lon="6.12358">
        <ele>363</ele>
        <time>2013-06-30T10:38:35Z</time>
      </trkpt>
      <trkpt lat="48.65914" lon="6.12368">
        <ele>364</ele>
        <time>2013-06-30T10:38:37Z</time>
      </trkpt>
      <trkpt lat="48.65916" lon="6.12373">
        <ele>366</ele>
        <time>2013-06-30T10:38:38Z</time>
      </trkpt>
      <trkpt lat="48.65918" lon="6.12378">
        <ele>367</ele>
        <time>2013-06-30T10:38:39Z</time>
      </trkpt>
      <trkpt lat="48.6592" lon="6.12391">
        <ele>371</ele>
        <time>2013-06-30T10:38:41Z</time>
      </trkpt>
      <trkpt lat="48.65925" lon="6.12409">
        <ele>373</ele>
        <time>2013-06-30T10:38:44Z</time>
      </trkpt>
      <trkpt lat="48.65926" lon="6.12415">
        <ele>373</ele>
        <time>2013-06-30T10:38:45Z</time>
      </trkpt>
      <trkpt lat="48.65931" lon="6.12428">
        <ele>370</ele>
        <time>2013-06-30T10:38:47Z</time>
      </trkpt>
      <trkpt lat="48.65934" lon="6.1244">
        <ele>370</ele>
        <time>2013-06-30T10:38:49Z</time>
      </trkpt>
      <trkpt lat="48.65936" lon="6.12446">
        <ele>369</ele>
        <time>2013-06-30T10:38:50Z</time>
      </trkpt>
      <trkpt lat="48.65942" lon="6.12462">
        <ele>368</ele>
        <time>2013-06-30T10:38:53Z</time>
      </trkpt>
      <trkpt lat="48.65945" lon="6.12472">
        <ele>368</ele>
        <time>2013-06-30T10:38:55Z</time>
      </trkpt>
      <trkpt lat="48.65949" lon="6.12482">
        <ele>369</ele>
        <time>2013-06-30T10:38:57Z</time>
      </trkpt>
      <trkpt lat="48.6595" lon="6.12487">
        <ele>370</ele>
        <time>2013-06-30T10:38:58Z</time>
      </trkpt>
      <trkpt lat="48.65952" lon="6.12492">
        <ele>370</ele>
        <time>2013-06-30T10:38:59Z</time>
      </trkpt>
      <trkpt lat="48.65957" lon="6.125">
        <ele>368</ele>
        <time>2013-06-30T10:39:01Z</time>
      </trkpt>
      <trkpt lat="48.65959" lon="6.12503">
        <ele>368</ele>
        <time>2013-06-30T10:39:02Z</time>
      </trkpt>
      <trkpt lat="48.65961" lon="6.12507">
        <ele>367</ele>
        <time>2013-06-30T10:39:03Z</time>
      </trkpt>
      <trkpt lat="48.65964" lon="6.12516">
        <ele>365</ele>
        <time>2013-06-30T10:39:05Z</time>
      </trkpt>
      <trkpt lat="48.65969" lon="6.12523">
        <ele>365</ele>
        <time>2013-06-30T10:39:07Z</time>
      </trkpt>
      <trkpt lat="48.65971" lon="6.12527">
        <ele>364</ele>
        <time>2013-06-30T10:39:08Z</time>
      </trkpt>
      <trkpt lat="48.65973" lon="6.12531">
        <ele>362</ele>
        <time>2013-06-30T10:39:09Z</time>
      </trkpt>
      <trkpt lat="48.65976" lon="6.12539">
        <ele>362</ele>
        <time>2013-06-30T10:39:11Z</time>
      </trkpt>
      <trkpt lat="48.65979" lon="6.12544">
        <ele>365</ele>
        <time>2013-06-30T10:39:13Z</time>
      </trkpt>
      <trkpt lat="48.65988" lon="6.12562">
        <ele>368</ele>
        <time>2013-06-30T10:39:17Z</time>
      </trkpt>
      <trkpt lat="48.65993" lon="6.12572">
        <ele>367</ele>
        <time>2013-06-30T10:39:19Z</time>
      </trkpt>
      <trkpt lat="48.65995" lon="6.12578">
        <ele>366</ele>
        <time>2013-06-30T10:39:20Z</time>
      </trkpt>
      <trkpt lat="48.65997" lon="6.12583">
        <ele>366</ele>
        <time>2013-06-30T10:39:21Z</time>
      </trkpt>
      <trkpt lat="48.66" lon="6.12593">
        <ele>369</ele>
        <time>2013-06-30T10:39:23Z</time>
      </trkpt>
      <trkpt lat="48.66003" lon="6.12601">
        <ele>368</ele>
        <time>2013-06-30T10:39:25Z</time>
      </trkpt>
      <trkpt lat="48.66005" lon="6.12605">
        <ele>367</ele>
        <time>2013-06-30T10:39:26Z</time>
      </trkpt>
      <trkpt lat="48.66009" lon="6.12617">
        <ele>369</ele>
        <time>2013-06-30T10:39:29Z</time>
      </trkpt>
      <trkpt lat="48.66012" lon="6.12625">
        <ele>370</ele>
        <time>2013-06-30T10:39:31Z</time>
      </trkpt>
      <trkpt lat="48.66018" lon="6.12642">
        <ele>372</ele>
        <time>2013-06-30T10:39:35Z</time>
      </trkpt>
      <trkpt lat="48.66021" lon="6.1265">
        <ele>372</ele>
        <time>2013-06-30T10:39:37Z</time>
      </trkpt>
      <trkpt lat="48.66024" lon="6.12659">
        <ele>372</ele>
        <time>2013-06-30T10:39:39Z</time>
      </trkpt>
      <trkpt lat="48.66027" lon="6.12664">
        <ele>372</ele>
        <time>2013-06-30T10:39:40Z</time>
      </trkpt>
      <trkpt lat="48.66029" lon="6.12669">
        <ele>372</ele>
        <time>2013-06-30T10:39:41Z</time>
      </trkpt>
      <trkpt lat="48.66032" lon="6.12678">
        <ele>373</ele>
        <time>2013-06-30T10:39:43Z</time>
      </trkpt>
      <trkpt lat="48.66035" lon="6.12686">
        <ele>372</ele>
        <time>2013-06-30T10:39:45Z</time>
      </trkpt>
      <trkpt lat="48.66037" lon="6.12691">
        <ele>372</ele>
        <time>2013-06-30T10:39:46Z</time>
      </trkpt>
      <trkpt lat="48.66041" lon="6.12707">
        <ele>373</ele>
        <time>2013-06-30T10:39:49Z</time>
      </trkpt>
      <trkpt lat="48.66043" lon="6.12718">
        <ele>373</ele>
        <time>2013-06-30T10:39:51Z</time>
      </trkpt>
      <trkpt lat="48.66047" lon="6.12733">
        <ele>373</ele>
        <time>2013-06-30T10:39:54Z</time>
      </trkpt>
      <trkpt lat="48.66048" lon="6.12738">
        <ele>374</ele>
        <time>2013-06-30T10:39:55Z</time>
      </trkpt>
      <trkpt lat="48.66052" lon="6.12748">
        <ele>375</ele>
        <time>2013-06-30T10:39:57Z</time>
      </trkpt>
      <trkpt lat="48.66054" lon="6.12759">
        <ele>379</ele>
        <time>2013-06-30T10:39:59Z</time>
      </trkpt>
      <trkpt lat="48.66058" lon="6.12776">
        <ele>380</ele>
        <time>2013-06-30T10:40:02Z</time>
      </trkpt>
      <trkpt lat="48.6606" lon="6.12788">
        <ele>380</ele>
        <time>2013-06-30T10:40:04Z</time>
      </trkpt>
      <trkpt lat="48.66062" lon="6.12799">
        <ele>380</ele>
        <time>2013-06-30T10:40:06Z</time>
      </trkpt>
      <trkpt lat="48.66063" lon="6.12805">
        <ele>381</ele>
        <time>2013-06-30T10:40:07Z</time>
      </trkpt>
      <trkpt lat="48.66063" lon="6.1281">
        <ele>382</ele>
        <time>2013-06-30T10:40:08Z</time>
      </trkpt>
      <trkpt lat="48.66066" lon="6.12822">
        <ele>380</ele>
        <time>2013-06-30T10:40:10Z</time>
      </trkpt>
      <trkpt lat="48.66068" lon="6.12828">
        <ele>379</ele>
        <time>2013-06-30T10:40:11Z</time>
      </trkpt>
      <trkpt lat="48.66069" lon="6.12835">
        <ele>379</ele>
        <time>2013-06-30T10:40:12Z</time>
      </trkpt>
      <trkpt lat="48.66071" lon="6.12848">
        <ele>379</ele>
        <time>2013-06-30T10:40:14Z</time>
      </trkpt>
      <trkpt lat="48.66073" lon="6.1286">
        <ele>377</ele>
        <time>2013-06-30T10:40:16Z</time>
      </trkpt>
      <trkpt lat="48.66074" lon="6.12866">
        <ele>375</ele>
        <time>2013-06-30T10:40:17Z</time>
      </trkpt>
      <trkpt lat="48.66075" lon="6.12872">
        <ele>373</ele>
        <time>2013-06-30T10:40:18Z</time>
      </trkpt>
      <trkpt lat="48.66076" lon="6.12884">
        <ele>372</ele>
        <time>2013-06-30T10:40:20Z</time>
      </trkpt>
      <trkpt lat="48.66077" lon="6.12894">
        <ele>371</ele>
        <time>2013-06-30T10:40:22Z</time>
      </trkpt>
      <trkpt lat="48.66078" lon="6.12899">
        <ele>373</ele>
        <time>2013-06-30T10:40:23Z</time>
      </trkpt>
      <trkpt lat="48.66079" lon="6.12905">
        <ele>374</ele>
        <time>2013-06-30T10:40:24Z</time>
      </trkpt>
      <trkpt lat="48.66083" lon="6.12916">
        <ele>374</ele>
        <time>2013-06-30T10:40:26Z</time>
      </trkpt>
      <trkpt lat="48.66087" lon="6.12928">
        <ele>375</ele>
        <time>2013-06-30T10:40:28Z</time>
      </trkpt>
      <trkpt lat="48.66092" lon="6.12938">
        <ele>374</ele>
        <time>2013-06-30T10:40:30Z</time>
      </trkpt>
      <trkpt lat="48.66098" lon="6.12955">
        <ele>374</ele>
        <time>2013-06-30T10:40:33Z</time>
      </trkpt>
      <trkpt lat="48.66101" lon="6.12961">
        <ele>375</ele>
        <time>2013-06-30T10:40:34Z</time>
      </trkpt>
      <trkpt lat="48.66103" lon="6.12967">
        <ele>376</ele>
        <time>2013-06-30T10:40:35Z</time>
      </trkpt>
      <trkpt lat="48.66106" lon="6.12973">
        <ele>375</ele>
        <time>2013-06-30T10:40:36Z</time>
      </trkpt>
      <trkpt lat="48.66109" lon="6.12978">
        <ele>375</ele>
        <time>2013-06-30T10:40:37Z</time>
      </trkpt>
      <trkpt lat="48.66112" lon="6.12983">
        <ele>375</ele>
        <time>2013-06-30T10:40:38Z</time>
      </trkpt>
      <trkpt lat="48.66117" lon="6.12995">
        <ele>374</ele>
        <time>2013-06-30T10:40:40Z</time>
      </trkpt>
      <trkpt lat="48.66122" lon="6.13007">
        <ele>374</ele>
        <time>2013-06-30T10:40:42Z</time>
      </trkpt>
      <trkpt lat="48.66125" lon="6.13013">
        <ele>374</ele>
        <time>2013-06-30T10:40:43Z</time>
      </trkpt>
      <trkpt lat="48.66127" lon="6.1302">
        <ele>375</ele>
        <time>2013-06-30T10:40:44Z</time>
      </trkpt>
      <trkpt lat="48.66132" lon="6.13033">
        <ele>377</ele>
        <time>2013-06-30T10:40:46Z</time>
      </trkpt>
      <trkpt lat="48.66137" lon="6.13045">
        <ele>376</ele>
        <time>2013-06-30T10:40:48Z</time>
      </trkpt>
      <trkpt lat="48.6614" lon="6.1305">
        <ele>375</ele>
        <time>2013-06-30T10:40:49Z</time>
      </trkpt>
      <trkpt lat="48.66142" lon="6.13057">
        <ele>374</ele>
        <time>2013-06-30T10:40:50Z</time>
      </trkpt>
      <trkpt lat="48.66148" lon="6.1307">
        <ele>373</ele>
        <time>2013-06-30T10:40:52Z</time>
      </trkpt>
      <trkpt lat="48.66155" lon="6.13084">
        <ele>372</ele>
        <time>2013-06-30T10:40:54Z</time>
      </trkpt>
      <trkpt lat="48.66159" lon="6.13091">
        <ele>372</ele>
        <time>2013-06-30T10:40:55Z</time>
      </trkpt>
      <trkpt lat="48.66162" lon="6.13098">
        <ele>372</ele>
        <time>2013-06-30T10:40:56Z</time>
      </trkpt>
      <trkpt lat="48.66168" lon="6.13113">
        <ele>372</ele>
        <time>2013-06-30T10:40:58Z</time>
      </trkpt>
      <trkpt lat="48.66182" lon="6.13143">
        <ele>372</ele>
        <time>2013-06-30T10:41:02Z</time>
      </trkpt>
      <trkpt lat="48.66189" lon="6.13156">
        <ele>369</ele>
        <time>2013-06-30T10:41:04Z</time>
      </trkpt>
      <trkpt lat="48.66204" lon="6.13175">
        <ele>368</ele>
        <time>2013-06-30T10:41:07Z</time>
      </trkpt>
      <trkpt lat="48.66209" lon="6.13182">
        <ele>367</ele>
        <time>2013-06-30T10:41:08Z</time>
      </trkpt>
      <trkpt lat="48.66219" lon="6.13196">
        <ele>370</ele>
        <time>2013-06-30T10:41:10Z</time>
      </trkpt>
      <trkpt lat="48.66229" lon="6.13209">
        <ele>371</ele>
        <time>2013-06-30T10:41:12Z</time>
      </trkpt>
      <trkpt lat="48.66234" lon="6.13217">
        <ele>372</ele>
        <time>2013-06-30T10:41:13Z</time>
      </trkpt>
      <trkpt lat="48.66239" lon="6.13225">
        <ele>369</ele>
        <time>2013-06-30T10:41:14Z</time>
      </trkpt>
      <trkpt lat="48.66249" lon="6.1324">
        <ele>367</ele>
        <time>2013-06-30T10:41:16Z</time>
      </trkpt>
      <trkpt lat="48.66267" lon="6.13267">
        <ele>365</ele>
        <time>2013-06-30T10:41:19Z</time>
      </trkpt>
      <trkpt lat="48.66274" lon="6.13276">
        <ele>365</ele>
        <time>2013-06-30T10:41:20Z</time>
      </trkpt>
      <trkpt lat="48.66303" lon="6.13298">
        <ele>364</ele>
        <time>2013-06-30T10:41:24Z</time>
      </trkpt>
      <trkpt lat="48.66311" lon="6.13305">
        <ele>363</ele>
        <time>2013-06-30T10:41:25Z</time>
      </trkpt>
      <trkpt lat="48.66319" lon="6.13311">
        <ele>363</ele>
        <time>2013-06-30T10:41:26Z</time>
      </trkpt>
      <trkpt lat="48.66335" lon="6.13325">
        <ele>365</ele>
        <time>2013-06-30T10:41:28Z</time>
      </trkpt>
      <trkpt lat="48.66369" lon="6.1335">
        <ele>363</ele>
        <time>2013-06-30T10:41:32Z</time>
      </trkpt>
      <trkpt lat="48.6639" lon="6.13357">
        <ele>360</ele>
        <time>2013-06-30T10:41:34Z</time>
      </trkpt>
      <trkpt lat="48.66412" lon="6.13362">
        <ele>363</ele>
        <time>2013-06-30T10:41:36Z</time>
      </trkpt>
      <trkpt lat="48.66424" lon="6.13364">
        <ele>362</ele>
        <time>2013-06-30T10:41:37Z</time>
      </trkpt>
      <trkpt lat="48.66472" lon="6.1338">
        <ele>365</ele>
        <time>2013-06-30T10:41:41Z</time>
      </trkpt>
      <trkpt lat="48.66484" lon="6.13388">
        <ele>361</ele>
        <time>2013-06-30T10:41:42Z</time>
      </trkpt>
      <trkpt lat="48.6651" lon="6.13409">
        <ele>358</ele>
        <time>2013-06-30T10:41:44Z</time>
      </trkpt>
      <trkpt lat="48.66536" lon="6.13433">
        <ele>354</ele>
        <time>2013-06-30T10:41:46Z</time>
      </trkpt>
      <trkpt lat="48.66548" lon="6.13445">
        <ele>354</ele>
        <time>2013-06-30T10:41:47Z</time>
      </trkpt>
      <trkpt lat="48.66557" lon="6.13454">
        <ele>350</ele>
        <time>2013-06-30T10:41:48Z</time>
      </trkpt>
      <trkpt lat="48.66571" lon="6.13464">
        <ele>345</ele>
        <time>2013-06-30T10:41:50Z</time>
      </trkpt>
      <trkpt lat="48.66582" lon="6.13472">
        <ele>341</ele>
        <time>2013-06-30T10:41:52Z</time>
      </trkpt>
      <trkpt lat="48.66585" lon="6.13473">
        <ele>339</ele>
        <time>2013-06-30T10:41:53Z</time>
      </trkpt>
      <trkpt lat="48.66594" lon="6.13471">
        <ele>336</ele>
        <time>2013-06-30T10:41:56Z</time>
      </trkpt>
      <trkpt lat="48.66597" lon="6.13467">
        <ele>335</ele>
        <time>2013-06-30T10:41:58Z</time>
      </trkpt>
      <trkpt lat="48.66609" lon="6.13439">
        <ele>342</ele>
        <time>2013-06-30T10:42:12Z</time>
      </trkpt>
      <trkpt lat="48.66611" lon="6.13435">
        <ele>349</ele>
        <time>2013-06-30T10:42:14Z</time>
      </trkpt>
      <trkpt lat="48.66624" lon="6.13418">
        <ele>342</ele>
        <time>2013-06-30T10:42:26Z</time>
      </trkpt>
      <trkpt lat="48.66636" lon="6.13407">
        <ele>348</ele>
        <time>2013-06-30T10:42:34Z</time>
      </trkpt>
      <trkpt lat="48.66638" lon="6.13406">
        <ele>348</ele>
        <time>2013-06-30T10:42:35Z</time>
      </trkpt>
      <trkpt lat="48.66639" lon="6.13405">
        <ele>347</ele>
        <time>2013-06-30T10:42:36Z</time>
      </trkpt>
      <trkpt lat="48.66647" lon="6.13397">
        <ele>349</ele>
        <time>2013-06-30T10:42:40Z</time>
      </trkpt>
      <trkpt lat="48.66651" lon="6.13393">
        <ele>352</ele>
        <time>2013-06-30T10:42:42Z</time>
      </trkpt>
      <trkpt lat="48.66653" lon="6.13391">
        <ele>352</ele>
        <time>2013-06-30T10:42:43Z</time>
      </trkpt>
      <trkpt lat="48.66664" lon="6.13375">
        <ele>352</ele>
        <time>2013-06-30T10:42:52Z</time>
      </trkpt>
      <trkpt lat="48.66687" lon="6.13307">
        <ele>359</ele>
        <time>2013-06-30T10:43:26Z</time>
      </trkpt>
      <trkpt lat="48.66694" lon="6.13295">
        <ele>359</ele>
        <time>2013-06-30T10:43:31Z</time>
      </trkpt>
      <trkpt lat="48.66702" lon="6.13281">
        <ele>355</ele>
        <time>2013-06-30T10:43:36Z</time>
      </trkpt>
      <trkpt lat="48.6671" lon="6.13263">
        <ele>355</ele>
        <time>2013-06-30T10:43:42Z</time>
      </trkpt>
      <trkpt lat="48.6672" lon="6.13238">
        <ele>356</ele>
        <time>2013-06-30T10:43:56Z</time>
      </trkpt>
      <trkpt lat="48.66724" lon="6.13226">
        <ele>355</ele>
        <time>2013-06-30T10:44:00Z</time>
      </trkpt>
      <trkpt lat="48.66729" lon="6.13213">
        <ele>358</ele>
        <time>2013-06-30T10:44:07Z</time>
      </trkpt>
      <trkpt lat="48.66739" lon="6.13157">
        <ele>376</ele>
        <time>2013-06-30T10:44:31Z</time>
      </trkpt>
      <trkpt lat="48.66742" lon="6.13141">
        <ele>368</ele>
        <time>2013-06-30T10:44:36Z</time>
      </trkpt>
      <trkpt lat="48.66745" lon="6.13128">
        <ele>372</ele>
        <time>2013-06-30T10:44:40Z</time>
      </trkpt>
      <trkpt lat="48.66744" lon="6.13117">
        <ele>377</ele>
        <time>2013-06-30T10:44:44Z</time>
      </trkpt>
      <trkpt lat="48.66742" lon="6.13082">
        <ele>369</ele>
        <time>2013-06-30T10:44:56Z</time>
      </trkpt>
      <trkpt lat="48.66742" lon="6.13064">
        <ele>362</ele>
        <time>2013-06-30T10:45:02Z</time>
      </trkpt>
      <trkpt lat="48.66744" lon="6.13058">
        <ele>370</ele>
        <time>2013-06-30T10:45:04Z</time>
      </trkpt>
      <trkpt lat="48.66753" lon="6.13048">
        <ele>371</ele>
        <time>2013-06-30T10:45:10Z</time>
      </trkpt>
      <trkpt lat="48.66757" lon="6.13044">
        <ele>375</ele>
        <time>2013-06-30T10:45:12Z</time>
      </trkpt>
      <trkpt lat="48.66759" lon="6.13042">
        <ele>377</ele>
        <time>2013-06-30T10:45:13Z</time>
      </trkpt>
      <trkpt lat="48.66765" lon="6.13037">
        <ele>370</ele>
        <time>2013-06-30T10:45:16Z</time>
      </trkpt>
      <trkpt lat="48.66773" lon="6.13031">
        <ele>366</ele>
        <time>2013-06-30T10:45:20Z</time>
      </trkpt>
      <trkpt lat="48.6678" lon="6.13026">
        <ele>372</ele>
        <time>2013-06-30T10:45:24Z</time>
      </trkpt>
      <trkpt lat="48.66782" lon="6.13025">
        <ele>373</ele>
        <time>2013-06-30T10:45:25Z</time>
      </trkpt>
      <trkpt lat="48.66796" lon="6.13012">
        <ele>367</ele>
        <time>2013-06-30T10:45:34Z</time>
      </trkpt>
      <trkpt lat="48.668" lon="6.1301">
        <ele>373</ele>
        <time>2013-06-30T10:45:36Z</time>
      </trkpt>
      <trkpt lat="48.66828" lon="6.13001">
        <ele>383</ele>
        <time>2013-06-30T10:45:50Z</time>
      </trkpt>
      <trkpt lat="48.66832" lon="6.12999">
        <ele>384</ele>
        <time>2013-06-30T10:45:52Z</time>
      </trkpt>
      <trkpt lat="48.66843" lon="6.12989">
        <ele>387</ele>
        <time>2013-06-30T10:45:58Z</time>
      </trkpt>
      <trkpt lat="48.66848" lon="6.12983">
        <ele>385</ele>
        <time>2013-06-30T10:46:00Z</time>
      </trkpt>
      <trkpt lat="48.66859" lon="6.1298">
        <ele>383</ele>
        <time>2013-06-30T10:46:04Z</time>
      </trkpt>
      <trkpt lat="48.66863" lon="6.12979">
        <ele>383</ele>
        <time>2013-06-30T10:46:05Z</time>
      </trkpt>
      <trkpt lat="48.6687" lon="6.12978">
        <ele>383</ele>
        <time>2013-06-30T10:46:08Z</time>
      </trkpt>
      <trkpt lat="48.66876" lon="6.12976">
        <ele>383</ele>
        <time>2013-06-30T10:46:10Z</time>
      </trkpt>
      <trkpt lat="48.66885" lon="6.12974">
        <ele>382</ele>
        <time>2013-06-30T10:46:13Z</time>
      </trkpt>
      <trkpt lat="48.66888" lon="6.12973">
        <ele>383</ele>
        <time>2013-06-30T10:46:14Z</time>
      </trkpt>
      <trkpt lat="48.66895" lon="6.12974">
        <ele>384</ele>
        <time>2013-06-30T10:46:16Z</time>
      </trkpt>
      <trkpt lat="48.66898" lon="6.12973">
        <ele>384</ele>
        <time>2013-06-30T10:46:17Z</time>
      </trkpt>
      <trkpt lat="48.66909" lon="6.12973">
        <ele>381</ele>
        <time>2013-06-30T10:46:20Z</time>
      </trkpt>
      <trkpt lat="48.66913" lon="6.12973">
        <ele>381</ele>
        <time>2013-06-30T10:46:21Z</time>
      </trkpt>
      <trkpt lat="48.66916" lon="6.12972">
        <ele>380</ele>
        <time>2013-06-30T10:46:22Z</time>
      </trkpt>
      <trkpt lat="48.6692" lon="6.12972">
        <ele>382</ele>
        <time>2013-06-30T10:46:23Z</time>
      </trkpt>
      <trkpt lat="48.66926" lon="6.12971">
        <ele>383</ele>
        <time>2013-06-30T10:46:25Z</time>
      </trkpt>
      <trkpt lat="48.66929" lon="6.1297">
        <ele>384</ele>
        <time>2013-06-30T10:46:26Z</time>
      </trkpt>
      <trkpt lat="48.66934" lon="6.12969">
        <ele>383</ele>
        <time>2013-06-30T10:46:28Z</time>
      </trkpt>
      <trkpt lat="48.6694" lon="6.12968">
        <ele>380</ele>
        <time>2013-06-30T10:46:30Z</time>
      </trkpt>
      <trkpt lat="48.66943" lon="6.12967">
        <ele>380</ele>
        <time>2013-06-30T10:46:31Z</time>
      </trkpt>
      <trkpt lat="48.66946" lon="6.12966">
        <ele>380</ele>
        <time>2013-06-30T10:46:32Z</time>
      </trkpt>
      <trkpt lat="48.6695" lon="6.12966">
        <ele>381</ele>
        <time>2013-06-30T10:46:33Z</time>
      </trkpt>
      <trkpt lat="48.66953" lon="6.12966">
        <ele>381</ele>
        <time>2013-06-30T10:46:34Z</time>
      </trkpt>
      <trkpt lat="48.66961" lon="6.12963">
        <ele>376</ele>
        <time>2013-06-30T10:46:36Z</time>
      </trkpt>
      <trkpt lat="48.66975" lon="6.12959">
        <ele>377</ele>
        <time>2013-06-30T10:46:40Z</time>
      </trkpt>
      <trkpt lat="48.66981" lon="6.12957">
        <ele>383</ele>
        <time>2013-06-30T10:46:42Z</time>
      </trkpt>
      <trkpt lat="48.66991" lon="6.12951">
        <ele>381</ele>
        <time>2013-06-30T10:46:45Z</time>
      </trkpt>
      <trkpt lat="48.66994" lon="6.1295">
        <ele>384</ele>
        <time>2013-06-30T10:46:46Z</time>
      </trkpt>
      <trkpt lat="48.67001" lon="6.12948">
        <ele>383</ele>
        <time>2013-06-30T10:46:48Z</time>
      </trkpt>
      <trkpt lat="48.67006" lon="6.12947">
        <ele>382</ele>
        <time>2013-06-30T10:46:49Z</time>
      </trkpt>
      <trkpt lat="48.67014" lon="6.12947">
        <ele>382</ele>
        <time>2013-06-30T10:46:51Z</time>
      </trkpt>
      <trkpt lat="48.67018" lon="6.12946">
        <ele>381</ele>
        <time>2013-06-30T10:46:52Z</time>
      </trkpt>
      <trkpt lat="48.67025" lon="6.12944">
        <ele>383</ele>
        <time>2013-06-30T10:46:54Z</time>
      </trkpt>
      <trkpt lat="48.67038" lon="6.12941">
        <ele>381</ele>
        <time>2013-06-30T10:46:57Z</time>
      </trkpt>
      <trkpt lat="48.67042" lon="6.1294">
        <ele>382</ele>
        <time>2013-06-30T10:46:58Z</time>
      </trkpt>
      <trkpt lat="48.6705" lon="6.12938">
        <ele>383</ele>
        <time>2013-06-30T10:47:00Z</time>
      </trkpt>
      <trkpt lat="48.67057" lon="6.12936">
        <ele>383</ele>
        <time>2013-06-30T10:47:02Z</time>
      </trkpt>
      <trkpt lat="48.67062" lon="6.12933">
        <ele>382</ele>
        <time>2013-06-30T10:47:03Z</time>
      </trkpt>
      <trkpt lat="48.67066" lon="6.12932">
        <ele>382</ele>
        <time>2013-06-30T10:47:04Z</time>
      </trkpt>
      <trkpt lat="48.6707" lon="6.12931">
        <ele>381</ele>
        <time>2013-06-30T10:47:05Z</time>
      </trkpt>
      <trkpt lat="48.67074" lon="6.12929">
        <ele>381</ele>
        <time>2013-06-30T10:47:06Z</time>
      </trkpt>
      <trkpt lat="48.67086" lon="6.12924">
        <ele>381</ele>
        <time>2013-06-30T10:47:09Z</time>
      </trkpt>
      <trkpt lat="48.6709" lon="6.12924">
        <ele>381</ele>
        <time>2013-06-30T10:47:10Z</time>
      </trkpt>
      <trkpt lat="48.67094" lon="6.12922">
        <ele>380</ele>
        <time>2013-06-30T10:47:11Z</time>
      </trkpt>
      <trkpt lat="48.67098" lon="6.1292">
        <ele>380</ele>
        <time>2013-06-30T10:47:12Z</time>
      </trkpt>
      <trkpt lat="48.67106" lon="6.12919">
        <ele>378</ele>
        <time>2013-06-30T10:47:14Z</time>
      </trkpt>
      <trkpt lat="48.67114" lon="6.12915">
        <ele>378</ele>
        <time>2013-06-30T10:47:16Z</time>
      </trkpt>
      <trkpt lat="48.67117" lon="6.12913">
        <ele>378</ele>
        <time>2013-06-30T10:47:17Z</time>
      </trkpt>
      <trkpt lat="48.67121" lon="6.12911">
        <ele>377</ele>
        <time>2013-06-30T10:47:18Z</time>
      </trkpt>
      <trkpt lat="48.67129" lon="6.12908">
        <ele>376</ele>
        <time>2013-06-30T10:47:20Z</time>
      </trkpt>
      <trkpt lat="48.67137" lon="6.12904">
        <ele>375</ele>
        <time>2013-06-30T10:47:22Z</time>
      </trkpt>
      <trkpt lat="48.67146" lon="6.12899">
        <ele>374</ele>
        <time>2013-06-30T10:47:24Z</time>
      </trkpt>
      <trkpt lat="48.67155" lon="6.12896">
        <ele>375</ele>
        <time>2013-06-30T10:47:26Z</time>
      </trkpt>
      <trkpt lat="48.67165" lon="6.12893">
        <ele>373</ele>
        <time>2013-06-30T10:47:28Z</time>
      </trkpt>
      <trkpt lat="48.67169" lon="6.12892">
        <ele>373</ele>
        <time>2013-06-30T10:47:29Z</time>
      </trkpt>
      <trkpt lat="48.67173" lon="6.12891">
        <ele>373</ele>
        <time>2013-06-30T10:47:30Z</time>
      </trkpt>
      <trkpt lat="48.67184" lon="6.1289">
        <ele>372</ele>
        <time>2013-06-30T10:47:32Z</time>
      </trkpt>
      <trkpt lat="48.67202" lon="6.12885">
        <ele>371</ele>
        <time>2013-06-30T10:47:36Z</time>
      </trkpt>
      <trkpt lat="48.67211" lon="6.12884">
        <ele>370</ele>
        <time>2013-06-30T10:47:38Z</time>
      </trkpt>
      <trkpt lat="48.67215" lon="6.12883">
        <ele>370</ele>
        <time>2013-06-30T10:47:39Z</time>
      </trkpt>
      <trkpt lat="48.6722" lon="6.12882">
        <ele>370</ele>
        <time>2013-06-30T10:47:40Z</time>
      </trkpt>
      <trkpt lat="48.67228" lon="6.1288">
        <ele>370</ele>
        <time>2013-06-30T10:47:42Z</time>
      </trkpt>
      <trkpt lat="48.67236" lon="6.12876">
        <ele>370</ele>
        <time>2013-06-30T10:47:44Z</time>
      </trkpt>
      <trkpt lat="48.67241" lon="6.12874">
        <ele>370</ele>
        <time>2013-06-30T10:47:45Z</time>
      </trkpt>
      <trkpt lat="48.67246" lon="6.12873">
        <ele>369</ele>
        <time>2013-06-30T10:47:46Z</time>
      </trkpt>
      <trkpt lat="48.67254" lon="6.12869">
        <ele>368</ele>
        <time>2013-06-30T10:47:48Z</time>
      </trkpt>
      <trkpt lat="48.67263" lon="6.12866">
        <ele>370</ele>
        <time>2013-06-30T10:47:50Z</time>
      </trkpt>
      <trkpt lat="48.67268" lon="6.12864">
        <ele>370</ele>
        <time>2013-06-30T10:47:51Z</time>
      </trkpt>
      <trkpt lat="48.67272" lon="6.12862">
        <ele>370</ele>
        <time>2013-06-30T10:47:52Z</time>
      </trkpt>
      <trkpt lat="48.67289" lon="6.12858">
        <ele>372</ele>
        <time>2013-06-30T10:47:56Z</time>
      </trkpt>
      <trkpt lat="48.67294" lon="6.12856">
        <ele>372</ele>
        <time>2013-06-30T10:47:57Z</time>
      </trkpt>
      <trkpt lat="48.67299" lon="6.12855">
        <ele>372</ele>
        <time>2013-06-30T10:47:58Z</time>
      </trkpt>
      <trkpt lat="48.67307" lon="6.12853">
        <ele>371</ele>
        <time>2013-06-30T10:48:00Z</time>
      </trkpt>
      <trkpt lat="48.67314" lon="6.12848">
        <ele>376</ele>
        <time>2013-06-30T10:48:02Z</time>
      </trkpt>
      <trkpt lat="48.67318" lon="6.12846">
        <ele>375</ele>
        <time>2013-06-30T10:48:03Z</time>
      </trkpt>
      <trkpt lat="48.67322" lon="6.12844">
        <ele>374</ele>
        <time>2013-06-30T10:48:04Z</time>
      </trkpt>
      <trkpt lat="48.67326" lon="6.12843">
        <ele>373</ele>
        <time>2013-06-30T10:48:05Z</time>
      </trkpt>
      <trkpt lat="48.67338" lon="6.1284">
        <ele>373</ele>
        <time>2013-06-30T10:48:08Z</time>
      </trkpt>
      <trkpt lat="48.67345" lon="6.12835">
        <ele>377</ele>
        <time>2013-06-30T10:48:10Z</time>
      </trkpt>
      <trkpt lat="48.67356" lon="6.12835">
        <ele>381</ele>
        <time>2013-06-30T10:48:13Z</time>
      </trkpt>
      <trkpt lat="48.6736" lon="6.12834">
        <ele>380</ele>
        <time>2013-06-30T10:48:14Z</time>
      </trkpt>
      <trkpt lat="48.67368" lon="6.12833">
        <ele>379</ele>
        <time>2013-06-30T10:48:16Z</time>
      </trkpt>
      <trkpt lat="48.67379" lon="6.12831">
        <ele>379</ele>
        <time>2013-06-30T10:48:19Z</time>
      </trkpt>
      <trkpt lat="48.67383" lon="6.1283">
        <ele>377</ele>
        <time>2013-06-30T10:48:20Z</time>
      </trkpt>
      <trkpt lat="48.67389" lon="6.12826">
        <ele>376</ele>
        <time>2013-06-30T10:48:22Z</time>
      </trkpt>
      <trkpt lat="48.67399" lon="6.12823">
        <ele>385</ele>
        <time>2013-06-30T10:48:25Z</time>
      </trkpt>
      <trkpt lat="48.67403" lon="6.12823">
        <ele>386</ele>
        <time>2013-06-30T10:48:26Z</time>
      </trkpt>
      <trkpt lat="48.6741" lon="6.12822">
        <ele>388</ele>
        <time>2013-06-30T10:48:28Z</time>
      </trkpt>
      <trkpt lat="48.67418" lon="6.12821">
        <ele>386</ele>
        <time>2013-06-30T10:48:30Z</time>
      </trkpt>
      <trkpt lat="48.67422" lon="6.12822">
        <ele>385</ele>
        <time>2013-06-30T10:48:31Z</time>
      </trkpt>
      <trkpt lat="48.67425" lon="6.12821">
        <ele>386</ele>
        <time>2013-06-30T10:48:32Z</time>
      </trkpt>
      <trkpt lat="48.67432" lon="6.12817">
        <ele>382</ele>
        <time>2013-06-30T10:48:34Z</time>
      </trkpt>
      <trkpt lat="48.67435" lon="6.12816">
        <ele>379</ele>
        <time>2013-06-30T10:48:35Z</time>
      </trkpt>
      <trkpt lat="48.67438" lon="6.12815">
        <ele>380</ele>
        <time>2013-06-30T10:48:36Z</time>
      </trkpt>
      <trkpt lat="48.67447" lon="6.12812">
        <ele>380</ele>
        <time>2013-06-30T10:48:38Z</time>
      </trkpt>
      <trkpt lat="48.67454" lon="6.12808">
        <ele>374</ele>
        <time>2013-06-30T10:48:40Z</time>
      </trkpt>
      <trkpt lat="48.67459" lon="6.12807">
        <ele>378</ele>
        <time>2013-06-30T10:48:41Z</time>
      </trkpt>
      <trkpt lat="48.67464" lon="6.12807">
        <ele>376</ele>
        <time>2013-06-30T10:48:42Z</time>
      </trkpt>
      <trkpt lat="48.67474" lon="6.12805">
        <ele>378</ele>
        <time>2013-06-30T10:48:44Z</time>
      </trkpt>
      <trkpt lat="48.67486" lon="6.12801">
        <ele>382</ele>
        <time>2013-06-30T10:48:47Z</time>
      </trkpt>
      <trkpt lat="48.6749" lon="6.12801">
        <ele>383</ele>
        <time>2013-06-30T10:48:48Z</time>
      </trkpt>
      <trkpt lat="48.67498" lon="6.12799">
        <ele>381</ele>
        <time>2013-06-30T10:48:50Z</time>
      </trkpt>
      <trkpt lat="48.67506" lon="6.12795">
        <ele>379</ele>
        <time>2013-06-30T10:48:52Z</time>
      </trkpt>
      <trkpt lat="48.6751" lon="6.12793">
        <ele>381</ele>
        <time>2013-06-30T10:48:53Z</time>
      </trkpt>
      <trkpt lat="48.67513" lon="6.12791">
        <ele>382</ele>
        <time>2013-06-30T10:48:54Z</time>
      </trkpt>
      <trkpt lat="48.6752" lon="6.12789">
        <ele>383</ele>
        <time>2013-06-30T10:48:56Z</time>
      </trkpt>
      <trkpt lat="48.67524" lon="6.12789">
        <ele>382</ele>
        <time>2013-06-30T10:48:57Z</time>
      </trkpt>
      <trkpt lat="48.67529" lon="6.12787">
        <ele>383</ele>
        <time>2013-06-30T10:48:58Z</time>
      </trkpt>
      <trkpt lat="48.67537" lon="6.12784">
        <ele>384</ele>
        <time>2013-06-30T10:49:00Z</time>
      </trkpt>
      <trkpt lat="48.67548" lon="6.12782">
        <ele>382</ele>
        <time>2013-06-30T10:49:02Z</time>
      </trkpt>
      <trkpt lat="48.67553" lon="6.12782">
        <ele>383</ele>
        <time>2013-06-30T10:49:03Z</time>
      </trkpt>
      <trkpt lat="48.67557" lon="6.12782">
        <ele>383</ele>
        <time>2013-06-30T10:49:04Z</time>
      </trkpt>
      <trkpt lat="48.67562" lon="6.12782">
        <ele>383</ele>
        <time>2013-06-30T10:49:05Z</time>
      </trkpt>
      <trkpt lat="48.67574" lon="6.12777">
        <ele>379</ele>
        <time>2013-06-30T10:49:08Z</time>
      </trkpt>
      <trkpt lat="48.67584" lon="6.12773">
        <ele>377</ele>
        <time>2013-06-30T10:49:10Z</time>
      </trkpt>
      <trkpt lat="48.67588" lon="6.12771">
        <ele>377</ele>
        <time>2013-06-30T10:49:11Z</time>
      </trkpt>
      <trkpt lat="48.67592" lon="6.12768">
        <ele>377</ele>
        <time>2013-06-30T10:49:12Z</time>
      </trkpt>
      <trkpt lat="48.67601" lon="6.12766">
        <ele>373</ele>
        <time>2013-06-30T10:49:14Z</time>
      </trkpt>
      <trkpt lat="48.67613" lon="6.12766">
        <ele>372</ele>
        <time>2013-06-30T10:49:17Z</time>
      </trkpt>
      <trkpt lat="48.67616" lon="6.12765">
        <ele>372</ele>
        <time>2013-06-30T10:49:18Z</time>
      </trkpt>
      <trkpt lat="48.67625" lon="6.12764">
        <ele>370</ele>
        <time>2013-06-30T10:49:20Z</time>
      </trkpt>
      <trkpt lat="48.67633" lon="6.12761">
        <ele>371</ele>
        <time>2013-06-30T10:49:22Z</time>
      </trkpt>
      <trkpt lat="48.67638" lon="6.1276">
        <ele>373</ele>
        <time>2013-06-30T10:49:23Z</time>
      </trkpt>
      <trkpt lat="48.67642" lon="6.12758">
        <ele>375</ele>
        <time>2013-06-30T10:49:24Z</time>
      </trkpt>
      <trkpt lat="48.6765" lon="6.12754">
        <ele>377</ele>
        <time>2013-06-30T10:49:26Z</time>
      </trkpt>
      <trkpt lat="48.67658" lon="6.12751">
        <ele>379</ele>
        <time>2013-06-30T10:49:28Z</time>
      </trkpt>
      <trkpt lat="48.67662" lon="6.1275">
        <ele>379</ele>
        <time>2013-06-30T10:49:29Z</time>
      </trkpt>
      <trkpt lat="48.67666" lon="6.12748">
        <ele>379</ele>
        <time>2013-06-30T10:49:30Z</time>
      </trkpt>
      <trkpt lat="48.67674" lon="6.12746">
        <ele>378</ele>
        <time>2013-06-30T10:49:32Z</time>
      </trkpt>
      <trkpt lat="48.67701" lon="6.12736">
        <ele>377</ele>
        <time>2013-06-30T10:49:39Z</time>
      </trkpt>
      <trkpt lat="48.67705" lon="6.12735">
        <ele>376</ele>
        <time>2013-06-30T10:49:40Z</time>
      </trkpt>
      <trkpt lat="48.67709" lon="6.12732">
        <ele>376</ele>
        <time>2013-06-30T10:49:41Z</time>
      </trkpt>
      <trkpt lat="48.67753" lon="6.12725">
        <ele>375</ele>
        <time>2013-06-30T10:49:51Z</time>
      </trkpt>
      <trkpt lat="48.67762" lon="6.12723">
        <ele>377</ele>
        <time>2013-06-30T10:49:53Z</time>
      </trkpt>
      <trkpt lat="48.67773" lon="6.12715">
        <ele>378</ele>
        <time>2013-06-30T10:49:56Z</time>
      </trkpt>
      <trkpt lat="48.67776" lon="6.12714">
        <ele>380</ele>
        <time>2013-06-30T10:49:57Z</time>
      </trkpt>
      <trkpt lat="48.67783" lon="6.12709">
        <ele>380</ele>
        <time>2013-06-30T10:49:59Z</time>
      </trkpt>
      <trkpt lat="48.67832" lon="6.12698">
        <ele>382</ele>
        <time>2013-06-30T10:50:11Z</time>
      </trkpt>
      <trkpt lat="48.67836" lon="6.12697">
        <ele>382</ele>
        <time>2013-06-30T10:50:12Z</time>
      </trkpt>
      <trkpt lat="48.67839" lon="6.12696">
        <ele>380</ele>
        <time>2013-06-30T10:50:13Z</time>
      </trkpt>
      <trkpt lat="48.67847" lon="6.12694">
        <ele>380</ele>
        <time>2013-06-30T10:50:15Z</time>
      </trkpt>
      <trkpt lat="48.67855" lon="6.1269">
        <ele>380</ele>
        <time>2013-06-30T10:50:17Z</time>
      </trkpt>
      <trkpt lat="48.67859" lon="6.12688">
        <ele>380</ele>
        <time>2013-06-30T10:50:18Z</time>
      </trkpt>
      <trkpt lat="48.67863" lon="6.12686">
        <ele>379</ele>
        <time>2013-06-30T10:50:19Z</time>
      </trkpt>
      <trkpt lat="48.6787" lon="6.12681">
        <ele>377</ele>
        <time>2013-06-30T10:50:21Z</time>
      </trkpt>
      <trkpt lat="48.67883" lon="6.12675">
        <ele>378</ele>
        <time>2013-06-30T10:50:24Z</time>
      </trkpt>
      <trkpt lat="48.67888" lon="6.12674">
        <ele>378</ele>
        <time>2013-06-30T10:50:25Z</time>
      </trkpt>
      <trkpt lat="48.67896" lon="6.12669">
        <ele>380</ele>
        <time>2013-06-30T10:50:27Z</time>
      </trkpt>
      <trkpt lat="48.67905" lon="6.12666">
        <ele>379</ele>
        <time>2013-06-30T10:50:29Z</time>
      </trkpt>
      <trkpt lat="48.67909" lon="6.12665">
        <ele>379</ele>
        <time>2013-06-30T10:50:30Z</time>
      </trkpt>
      <trkpt lat="48.67912" lon="6.12664">
        <ele>378</ele>
        <time>2013-06-30T10:50:31Z</time>
      </trkpt>
      <trkpt lat="48.67919" lon="6.12661">
        <ele>378</ele>
        <time>2013-06-30T10:50:33Z</time>
      </trkpt>
      <trkpt lat="48.67922" lon="6.12661">
        <ele>377</ele>
        <time>2013-06-30T10:50:34Z</time>
      </trkpt>
      <trkpt lat="48.67925" lon="6.12661">
        <ele>376</ele>
        <time>2013-06-30T10:50:35Z</time>
      </trkpt>
      <trkpt lat="48.67933" lon="6.12661">
        <ele>377</ele>
        <time>2013-06-30T10:50:37Z</time>
      </trkpt>
      <trkpt lat="48.67946" lon="6.1266">
        <ele>379</ele>
        <time>2013-06-30T10:50:40Z</time>
      </trkpt>
      <trkpt lat="48.67954" lon="6.12658">
        <ele>381</ele>
        <time>2013-06-30T10:50:43Z</time>
      </trkpt>
      <trkpt lat="48.67974" lon="6.12654">
        <ele>383</ele>
        <time>2013-06-30T10:50:49Z</time>
      </trkpt>
      <trkpt lat="48.67981" lon="6.12651">
        <ele>383</ele>
        <time>2013-06-30T10:50:51Z</time>
      </trkpt>
      <trkpt lat="48.67996" lon="6.1265">
        <ele>384</ele>
        <time>2013-06-30T10:50:55Z</time>
      </trkpt>
      <trkpt lat="48.68002" lon="6.12645">
        <ele>384</ele>
        <time>2013-06-30T10:50:57Z</time>
      </trkpt>
      <trkpt lat="48.68009" lon="6.12641">
        <ele>383</ele>
        <time>2013-06-30T10:50:59Z</time>
      </trkpt>
      <trkpt lat="48.68017" lon="6.1264">
        <ele>382</ele>
        <time>2013-06-30T10:51:01Z</time>
      </trkpt>
      <trkpt lat="48.68021" lon="6.1264">
        <ele>385</ele>
        <time>2013-06-30T10:51:02Z</time>
      </trkpt>
      <trkpt lat="48.68028" lon="6.12639">
        <ele>383</ele>
        <time>2013-06-30T10:51:04Z</time>
      </trkpt>
      <trkpt lat="48.68032" lon="6.12639">
        <ele>383</ele>
        <time>2013-06-30T10:51:05Z</time>
      </trkpt>
      <trkpt lat="48.68036" lon="6.12639">
        <ele>384</ele>
        <time>2013-06-30T10:51:06Z</time>
      </trkpt>
      <trkpt lat="48.68044" lon="6.12635">
        <ele>383</ele>
        <time>2013-06-30T10:51:08Z</time>
      </trkpt>
      <trkpt lat="48.68061" lon="6.1263">
        <ele>381</ele>
        <time>2013-06-30T10:51:12Z</time>
      </trkpt>
      <trkpt lat="48.68069" lon="6.12629">
        <ele>381</ele>
        <time>2013-06-30T10:51:14Z</time>
      </trkpt>
      <trkpt lat="48.68073" lon="6.12627">
        <ele>382</ele>
        <time>2013-06-30T10:51:15Z</time>
      </trkpt>
      <trkpt lat="48.68082" lon="6.12622">
        <ele>379</ele>
        <time>2013-06-30T10:51:18Z</time>
      </trkpt>
      <trkpt lat="48.68089" lon="6.12622">
        <ele>379</ele>
        <time>2013-06-30T10:51:20Z</time>
      </trkpt>
      <trkpt lat="48.681" lon="6.12617">
        <ele>381</ele>
        <time>2013-06-30T10:51:23Z</time>
      </trkpt>
      <trkpt lat="48.68105" lon="6.12616">
        <ele>381</ele>
        <time>2013-06-30T10:51:24Z</time>
      </trkpt>
      <trkpt lat="48.68113" lon="6.12612">
        <ele>384</ele>
        <time>2013-06-30T10:51:26Z</time>
      </trkpt>
      <trkpt lat="48.68123" lon="6.12607">
        <ele>390</ele>
        <time>2013-06-30T10:51:29Z</time>
      </trkpt>
      <trkpt lat="48.68126" lon="6.12606">
        <ele>391</ele>
        <time>2013-06-30T10:51:30Z</time>
      </trkpt>
      <trkpt lat="48.68131" lon="6.12605">
        <ele>391</ele>
        <time>2013-06-30T10:51:32Z</time>
      </trkpt>
      <trkpt lat="48.68133" lon="6.12605">
        <ele>391</ele>
        <time>2013-06-30T10:51:33Z</time>
      </trkpt>
      <trkpt lat="48.68143" lon="6.12604">
        <ele>387</ele>
        <time>2013-06-30T10:51:36Z</time>
      </trkpt>
      <trkpt lat="48.68153" lon="6.12602">
        <ele>385</ele>
        <time>2013-06-30T10:51:39Z</time>
      </trkpt>
      <trkpt lat="48.68166" lon="6.126">
        <ele>375</ele>
        <time>2013-06-30T10:51:42Z</time>
      </trkpt>
      <trkpt lat="48.68173" lon="6.12602">
        <ele>373</ele>
        <time>2013-06-30T10:51:44Z</time>
      </trkpt>
      <trkpt lat="48.68182" lon="6.12607">
        <ele>367</ele>
        <time>2013-06-30T10:51:47Z</time>
      </trkpt>
      <trkpt lat="48.68185" lon="6.12609">
        <ele>367</ele>
        <time>2013-06-30T10:51:48Z</time>
      </trkpt>
      <trkpt lat="48.68197" lon="6.1262">
        <ele>364</ele>
        <time>2013-06-30T10:51:51Z</time>
      </trkpt>
      <trkpt lat="48.682" lon="6.12625">
        <ele>364</ele>
        <time>2013-06-30T10:51:52Z</time>
      </trkpt>
      <trkpt lat="48.68213" lon="6.12635">
        <ele>365</ele>
        <time>2013-06-30T10:51:55Z</time>
      </trkpt>
      <trkpt lat="48.68219" lon="6.12643">
        <ele>364</ele>
        <time>2013-06-30T10:51:57Z</time>
      </trkpt>
      <trkpt lat="48.68229" lon="6.12653">
        <ele>363</ele>
        <time>2013-06-30T10:52:00Z</time>
      </trkpt>
      <trkpt lat="48.68233" lon="6.12657">
        <ele>364</ele>
        <time>2013-06-30T10:52:01Z</time>
      </trkpt>
      <trkpt lat="48.68239" lon="6.12664">
        <ele>358</ele>
        <time>2013-06-30T10:52:03Z</time>
      </trkpt>
      <trkpt lat="48.68252" lon="6.12679">
        <ele>355</ele>
        <time>2013-06-30T10:52:07Z</time>
      </trkpt>
      <trkpt lat="48.68255" lon="6.12683">
        <ele>355</ele>
        <time>2013-06-30T10:52:08Z</time>
      </trkpt>
      <trkpt lat="48.68265" lon="6.12693">
        <ele>359</ele>
        <time>2013-06-30T10:52:11Z</time>
      </trkpt>
      <trkpt lat="48.68272" lon="6.127">
        <ele>359</ele>
        <time>2013-06-30T10:52:13Z</time>
      </trkpt>
      <trkpt lat="48.68276" lon="6.12704">
        <ele>360</ele>
        <time>2013-06-30T10:52:14Z</time>
      </trkpt>
      <trkpt lat="48.6828" lon="6.12707">
        <ele>361</ele>
        <time>2013-06-30T10:52:15Z</time>
      </trkpt>
      <trkpt lat="48.68286" lon="6.12713">
        <ele>361</ele>
        <time>2013-06-30T10:52:17Z</time>
      </trkpt>
      <trkpt lat="48.68289" lon="6.12717">
        <ele>358</ele>
        <time>2013-06-30T10:52:18Z</time>
      </trkpt>
      <trkpt lat="48.68292" lon="6.1272">
        <ele>358</ele>
        <time>2013-06-30T10:52:19Z</time>
      </trkpt>
      <trkpt lat="48.68295" lon="6.12723">
        <ele>358</ele>
        <time>2013-06-30T10:52:20Z</time>
      </trkpt>
      <trkpt lat="48.68298" lon="6.12725">
        <ele>357</ele>
        <time>2013-06-30T10:52:21Z</time>
      </trkpt>
      <trkpt lat="48.68311" lon="6.12735">
        <ele>358</ele>
        <time>2013-06-30T10:52:25Z</time>
      </trkpt>
      <trkpt lat="48.68317" lon="6.12742">
        <ele>357</ele>
        <time>2013-06-30T10:52:27Z</time>
      </trkpt>
      <trkpt lat="48.68329" lon="6.12752">
        <ele>357</ele>
        <time>2013-06-30T10:52:30Z</time>
      </trkpt>
      <trkpt lat="48.68353" lon="6.12776">
        <ele>351</ele>
        <time>2013-06-30T10:52:36Z</time>
      </trkpt>
      <trkpt lat="48.68357" lon="6.12779">
        <ele>352</ele>
        <time>2013-06-30T10:52:37Z</time>
      </trkpt>
      <trkpt lat="48.68365" lon="6.12788">
        <ele>354</ele>
        <time>2013-06-30T10:52:39Z</time>
      </trkpt>
      <trkpt lat="48.68369" lon="6.12792">
        <ele>356</ele>
        <time>2013-06-30T10:52:40Z</time>
      </trkpt>
      <trkpt lat="48.68376" lon="6.12801">
        <ele>358</ele>
        <time>2013-06-30T10:52:42Z</time>
      </trkpt>
      <trkpt lat="48.6838" lon="6.12807">
        <ele>357</ele>
        <time>2013-06-30T10:52:43Z</time>
      </trkpt>
      <trkpt lat="48.68388" lon="6.12818">
        <ele>357</ele>
        <time>2013-06-30T10:52:45Z</time>
      </trkpt>
      <trkpt lat="48.68393" lon="6.12822">
        <ele>356</ele>
        <time>2013-06-30T10:52:46Z</time>
      </trkpt>
      <trkpt lat="48.68397" lon="6.12827">
        <ele>355</ele>
        <time>2013-06-30T10:52:47Z</time>
      </trkpt>
      <trkpt lat="48.68405" lon="6.12835">
        <ele>352</ele>
        <time>2013-06-30T10:52:49Z</time>
      </trkpt>
      <trkpt lat="48.68418" lon="6.12851">
        <ele>349</ele>
        <time>2013-06-30T10:52:51Z</time>
      </trkpt>
      <trkpt lat="48.68432" lon="6.12871">
        <ele>347</ele>
        <time>2013-06-30T10:52:54Z</time>
      </trkpt>
      <trkpt lat="48.68435" lon="6.12878">
        <ele>348</ele>
        <time>2013-06-30T10:52:55Z</time>
      </trkpt>
      <trkpt lat="48.68439" lon="6.12884">
        <ele>348</ele>
        <time>2013-06-30T10:52:56Z</time>
      </trkpt>
      <trkpt lat="48.68453" lon="6.12896">
        <ele>347</ele>
        <time>2013-06-30T10:53:00Z</time>
      </trkpt>
      <trkpt lat="48.69115" lon="6.12704">
        <ele>351</ele>
        <time>2013-06-30T11:00:39Z</time>
      </trkpt>
      <trkpt lat="48.68459" lon="6.12921">
        <ele>388</ele>
        <time>2013-06-30T11:00:57Z</time>
      </trkpt>
      <trkpt lat="48.68475" lon="6.12901">
        <ele>384</ele>
        <time>2013-06-30T11:01:02Z</time>
      </trkpt>
      <trkpt lat="48.68486" lon="6.1289">
        <ele>370</ele>
        <time>2013-06-30T11:01:04Z</time>
      </trkpt>
      <trkpt lat="48.68496" lon="6.12877">
        <ele>366</ele>
        <time>2013-06-30T11:01:06Z</time>
      </trkpt>
      <trkpt lat="48.68504" lon="6.12868">
        <ele>360</ele>
        <time>2013-06-30T11:01:08Z</time>
      </trkpt>
      <trkpt lat="48.68511" lon="6.1286">
        <ele>356</ele>
        <time>2013-06-30T11:01:10Z</time>
      </trkpt>
      <trkpt lat="48.68518" lon="6.12854">
        <ele>351</ele>
        <time>2013-06-30T11:01:12Z</time>
      </trkpt>
      <trkpt lat="48.68523" lon="6.12849">
        <ele>351</ele>
        <time>2013-06-30T11:01:14Z</time>
      </trkpt>
      <trkpt lat="48.68529" lon="6.12844">
        <ele>350</ele>
        <time>2013-06-30T11:01:16Z</time>
      </trkpt>
      <trkpt lat="48.68535" lon="6.12839">
        <ele>350</ele>
        <time>2013-06-30T11:01:18Z</time>
      </trkpt>
      <trkpt lat="48.68541" lon="6.12834">
        <ele>351</ele>
        <time>2013-06-30T11:01:20Z</time>
      </trkpt>
      <trkpt lat="48.68548" lon="6.1283">
        <ele>350</ele>
        <time>2013-06-30T11:01:22Z</time>
      </trkpt>
      <trkpt lat="48.68554" lon="6.12825">
        <ele>347</ele>
        <time>2013-06-30T11:01:24Z</time>
      </trkpt>
      <trkpt lat="48.6856" lon="6.12821">
        <ele>347</ele>
        <time>2013-06-30T11:01:26Z</time>
      </trkpt>
      <trkpt lat="48.68567" lon="6.12817">
        <ele>345</ele>
        <time>2013-06-30T11:01:28Z</time>
      </trkpt>
      <trkpt lat="48.68573" lon="6.12813">
        <ele>347</ele>
        <time>2013-06-30T11:01:30Z</time>
      </trkpt>
      <trkpt lat="48.6858" lon="6.12811">
        <ele>346</ele>
        <time>2013-06-30T11:01:32Z</time>
      </trkpt>
      <trkpt lat="48.68587" lon="6.12809">
        <ele>346</ele>
        <time>2013-06-30T11:01:34Z</time>
      </trkpt>
      <trkpt lat="48.68593" lon="6.12807">
        <ele>345</ele>
        <time>2013-06-30T11:01:36Z</time>
      </trkpt>
      <trkpt lat="48.686" lon="6.12804">
        <ele>347</ele>
        <time>2013-06-30T11:01:38Z</time>
      </trkpt>
      <trkpt lat="48.68607" lon="6.12802">
        <ele>347</ele>
        <time>2013-06-30T11:01:40Z</time>
      </trkpt>
      <trkpt lat="48.68614" lon="6.12799">
        <ele>347</ele>
        <time>2013-06-30T11:01:42Z</time>
      </trkpt>
      <trkpt lat="48.6862" lon="6.12797">
        <ele>349</ele>
        <time>2013-06-30T11:01:44Z</time>
      </trkpt>
      <trkpt lat="48.68627" lon="6.12795">
        <ele>349</ele>
        <time>2013-06-30T11:01:46Z</time>
      </trkpt>
      <trkpt lat="48.68633" lon="6.12794">
        <ele>356</ele>
        <time>2013-06-30T11:01:48Z</time>
      </trkpt>
      <trkpt lat="48.68638" lon="6.12791">
        <ele>358</ele>
        <time>2013-06-30T11:01:50Z</time>
      </trkpt>
      <trkpt lat="48.68644" lon="6.12789">
        <ele>359</ele>
        <time>2013-06-30T11:01:52Z</time>
      </trkpt>
      <trkpt lat="48.6865" lon="6.12787">
        <ele>363</ele>
        <time>2013-06-30T11:01:54Z</time>
      </trkpt>
      <trkpt lat="48.68658" lon="6.12786">
        <ele>358</ele>
        <time>2013-06-30T11:01:56Z</time>
      </trkpt>
      <trkpt lat="48.68665" lon="6.12784">
        <ele>358</ele>
        <time>2013-06-30T11:01:58Z</time>
      </trkpt>
      <trkpt lat="48.68671" lon="6.12782">
        <ele>361</ele>
        <time>2013-06-30T11:02:00Z</time>
      </trkpt>
      <trkpt lat="48.68677" lon="6.12779">
        <ele>360</ele>
        <time>2013-06-30T11:02:02Z</time>
      </trkpt>
      <trkpt lat="48.68683" lon="6.12776">
        <ele>362</ele>
        <time>2013-06-30T11:02:04Z</time>
      </trkpt>
      <trkpt lat="48.68691" lon="6.12774">
        <ele>360</ele>
        <time>2013-06-30T11:02:06Z</time>
      </trkpt>
      <trkpt lat="48.68699" lon="6.12772">
        <ele>357</ele>
        <time>2013-06-30T11:02:08Z</time>
      </trkpt>
      <trkpt lat="48.68705" lon="6.1277">
        <ele>360</ele>
        <time>2013-06-30T11:02:10Z</time>
      </trkpt>
      <trkpt lat="48.6871" lon="6.12767">
        <ele>362</ele>
        <time>2013-06-30T11:02:12Z</time>
      </trkpt>
      <trkpt lat="48.68716" lon="6.12764">
        <ele>364</ele>
        <time>2013-06-30T11:02:14Z</time>
      </trkpt>
      <trkpt lat="48.68722" lon="6.1276">
        <ele>366</ele>
        <time>2013-06-30T11:02:16Z</time>
      </trkpt>
      <trkpt lat="48.68728" lon="6.12756">
        <ele>365</ele>
        <time>2013-06-30T11:02:18Z</time>
      </trkpt>
      <trkpt lat="48.68736" lon="6.12753">
        <ele>362</ele>
        <time>2013-06-30T11:02:20Z</time>
      </trkpt>
      <trkpt lat="48.68743" lon="6.1275">
        <ele>362</ele>
        <time>2013-06-30T11:02:22Z</time>
      </trkpt>
      <trkpt lat="48.68749" lon="6.12747">
        <ele>364</ele>
        <time>2013-06-30T11:02:24Z</time>
      </trkpt>
      <trkpt lat="48.68755" lon="6.12744">
        <ele>365</ele>
        <time>2013-06-30T11:02:26Z</time>
      </trkpt>
      <trkpt lat="48.68761" lon="6.12741">
        <ele>366</ele>
        <time>2013-06-30T11:02:28Z</time>
      </trkpt>
      <trkpt lat="48.68768" lon="6.12739">
        <ele>364</ele>
        <time>2013-06-30T11:02:30Z</time>
      </trkpt>
      <trkpt lat="48.68776" lon="6.12739">
        <ele>358</ele>
        <time>2013-06-30T11:02:32Z</time>
      </trkpt>
      <trkpt lat="48.68782" lon="6.12743">
        <ele>358</ele>
        <time>2013-06-30T11:02:34Z</time>
      </trkpt>
      <trkpt lat="48.68787" lon="6.12748">
        <ele>356</ele>
        <time>2013-06-30T11:02:36Z</time>
      </trkpt>
      <trkpt lat="48.68791" lon="6.12754">
        <ele>353</ele>
        <time>2013-06-30T11:02:38Z</time>
      </trkpt>
      <trkpt lat="48.68793" lon="6.12762">
        <ele>352</ele>
        <time>2013-06-30T11:02:40Z</time>
      </trkpt>
      <trkpt lat="48.68794" lon="6.12771">
        <ele>352</ele>
        <time>2013-06-30T11:02:42Z</time>
      </trkpt>
      <trkpt lat="48.68795" lon="6.12782">
        <ele>352</ele>
        <time>2013-06-30T11:02:44Z</time>
      </trkpt>
      <trkpt lat="48.68796" lon="6.12795">
        <ele>352</ele>
        <time>2013-06-30T11:02:46Z</time>
      </trkpt>
      <trkpt lat="48.68797" lon="6.12809">
        <ele>349</ele>
        <time>2013-06-30T11:02:48Z</time>
      </trkpt>
      <trkpt lat="48.68798" lon="6.12825">
        <ele>349</ele>
        <time>2013-06-30T11:02:50Z</time>
      </trkpt>
      <trkpt lat="48.68799" lon="6.12841">
        <ele>351</ele>
        <time>2013-06-30T11:02:52Z</time>
      </trkpt>
      <trkpt lat="48.688" lon="6.12858">
        <ele>350</ele>
        <time>2013-06-30T11:02:54Z</time>
      </trkpt>
      <trkpt lat="48.68802" lon="6.12877">
        <ele>350</ele>
        <time>2013-06-30T11:02:56Z</time>
      </trkpt>
      <trkpt lat="48.68804" lon="6.12897">
        <ele>350</ele>
        <time>2013-06-30T11:02:58Z</time>
      </trkpt>
      <trkpt lat="48.68806" lon="6.12918">
        <ele>349</ele>
        <time>2013-06-30T11:03:00Z</time>
      </trkpt>
      <trkpt lat="48.68807" lon="6.1293">
        <ele>348</ele>
        <time>2013-06-30T11:03:01Z</time>
      </trkpt>
      <trkpt lat="48.68808" lon="6.12942">
        <ele>347</ele>
        <time>2013-06-30T11:03:02Z</time>
      </trkpt>
      <trkpt lat="48.6881" lon="6.12967">
        <ele>347</ele>
        <time>2013-06-30T11:03:04Z</time>
      </trkpt>
      <trkpt lat="48.68811" lon="6.1298">
        <ele>347</ele>
        <time>2013-06-30T11:03:05Z</time>
      </trkpt>
      <trkpt lat="48.68812" lon="6.1302">
        <ele>346</ele>
        <time>2013-06-30T11:03:08Z</time>
      </trkpt>
      <trkpt lat="48.68813" lon="6.13049">
        <ele>345</ele>
        <time>2013-06-30T11:03:10Z</time>
      </trkpt>
      <trkpt lat="48.68818" lon="6.13108">
        <ele>343</ele>
        <time>2013-06-30T11:03:14Z</time>
      </trkpt>
      <trkpt lat="48.6882" lon="6.13137">
        <ele>343</ele>
        <time>2013-06-30T11:03:16Z</time>
      </trkpt>
      <trkpt lat="48.68823" lon="6.13167">
        <ele>344</ele>
        <time>2013-06-30T11:03:19Z</time>
      </trkpt>
      <trkpt lat="48.68819" lon="6.13175">
        <ele>343</ele>
        <time>2013-06-30T11:03:21Z</time>
      </trkpt>
      <trkpt lat="48.68813" lon="6.13175">
        <ele>339</ele>
        <time>2013-06-30T11:03:23Z</time>
      </trkpt>
      <trkpt lat="48.68803" lon="6.13168">
        <ele>336</ele>
        <time>2013-06-30T11:03:25Z</time>
      </trkpt>
      <trkpt lat="48.68798" lon="6.13163">
        <ele>335</ele>
        <time>2013-06-30T11:03:26Z</time>
      </trkpt>
      <trkpt lat="48.68791" lon="6.13157">
        <ele>332</ele>
        <time>2013-06-30T11:03:27Z</time>
      </trkpt>
      <trkpt lat="48.68777" lon="6.13148">
        <ele>330</ele>
        <time>2013-06-30T11:03:29Z</time>
      </trkpt>
      <trkpt lat="48.68761" lon="6.13143">
        <ele>331</ele>
        <time>2013-06-30T11:03:31Z</time>
      </trkpt>
      <trkpt lat="48.68751" lon="6.13141">
        <ele>331</ele>
        <time>2013-06-30T11:03:32Z</time>
      </trkpt>
      <trkpt lat="48.68741" lon="6.1314">
        <ele>332</ele>
        <time>2013-06-30T11:03:33Z</time>
      </trkpt>
      <trkpt lat="48.68718" lon="6.13137">
        <ele>329</ele>
        <time>2013-06-30T11:03:35Z</time>
      </trkpt>
      <trkpt lat="48.68688" lon="6.13132">
        <ele>324</ele>
        <time>2013-06-30T11:03:38Z</time>
      </trkpt>
      <trkpt lat="48.68678" lon="6.13132">
        <ele>322</ele>
        <time>2013-06-30T11:03:39Z</time>
      </trkpt>
      <trkpt lat="48.68658" lon="6.13132">
        <ele>320</ele>
        <time>2013-06-30T11:03:41Z</time>
      </trkpt>
      <trkpt lat="48.68633" lon="6.13133">
        <ele>317</ele>
        <time>2013-06-30T11:03:44Z</time>
      </trkpt>
      <trkpt lat="48.68621" lon="6.13137">
        <ele>317</ele>
        <time>2013-06-30T11:03:45Z</time>
      </trkpt>
      <trkpt lat="48.68596" lon="6.13158">
        <ele>318</ele>
        <time>2013-06-30T11:03:47Z</time>
      </trkpt>
      <trkpt lat="48.68583" lon="6.13172">
        <ele>318</ele>
        <time>2013-06-30T11:03:48Z</time>
      </trkpt>
      <trkpt lat="48.6857" lon="6.13185">
        <ele>317</ele>
        <time>2013-06-30T11:03:49Z</time>
      </trkpt>
      <trkpt lat="48.68545" lon="6.1321">
        <ele>315</ele>
        <time>2013-06-30T11:03:51Z</time>
      </trkpt>
      <trkpt lat="48.68507" lon="6.13268">
        <ele>312</ele>
        <time>2013-06-30T11:03:55Z</time>
      </trkpt>
      <trkpt lat="48.68492" lon="6.13302">
        <ele>311</ele>
        <time>2013-06-30T11:03:57Z</time>
      </trkpt>
      <trkpt lat="48.68474" lon="6.13383">
        <ele>309</ele>
        <time>2013-06-30T11:04:01Z</time>
      </trkpt>
      <trkpt lat="48.6847" lon="6.13426">
        <ele>311</ele>
        <time>2013-06-30T11:04:03Z</time>
      </trkpt>
      <trkpt lat="48.68471" lon="6.1347">
        <ele>309</ele>
        <time>2013-06-30T11:04:05Z</time>
      </trkpt>
      <trkpt lat="48.68472" lon="6.13492">
        <ele>309</ele>
        <time>2013-06-30T11:04:06Z</time>
      </trkpt>
      <trkpt lat="48.68474" lon="6.13515">
        <ele>308</ele>
        <time>2013-06-30T11:04:07Z</time>
      </trkpt>
      <trkpt lat="48.68477" lon="6.1356">
        <ele>304</ele>
        <time>2013-06-30T11:04:09Z</time>
      </trkpt>
      <trkpt lat="48.6848" lon="6.1363">
        <ele>298</ele>
        <time>2013-06-30T11:04:12Z</time>
      </trkpt>
      <trkpt lat="48.6848" lon="6.13652">
        <ele>297</ele>
        <time>2013-06-30T11:04:13Z</time>
      </trkpt>
      <trkpt lat="48.68476" lon="6.13697">
        <ele>296</ele>
        <time>2013-06-30T11:04:15Z</time>
      </trkpt>
      <trkpt lat="48.68473" lon="6.13719">
        <ele>296</ele>
        <time>2013-06-30T11:04:16Z</time>
      </trkpt>
      <trkpt lat="48.6847" lon="6.13741">
        <ele>295</ele>
        <time>2013-06-30T11:04:17Z</time>
      </trkpt>
      <trkpt lat="48.68459" lon="6.13784">
        <ele>294</ele>
        <time>2013-06-30T11:04:19Z</time>
      </trkpt>
      <trkpt lat="48.68429" lon="6.13839">
        <ele>289</ele>
        <time>2013-06-30T11:04:22Z</time>
      </trkpt>
      <trkpt lat="48.68418" lon="6.13855">
        <ele>290</ele>
        <time>2013-06-30T11:04:23Z</time>
      </trkpt>
      <trkpt lat="48.68396" lon="6.13883">
        <ele>288</ele>
        <time>2013-06-30T11:04:25Z</time>
      </trkpt>
      <trkpt lat="48.68376" lon="6.13903">
        <ele>286</ele>
        <time>2013-06-30T11:04:27Z</time>
      </trkpt>
      <trkpt lat="48.68359" lon="6.13917">
        <ele>285</ele>
        <time>2013-06-30T11:04:29Z</time>
      </trkpt>
      <trkpt lat="48.68341" lon="6.13925">
        <ele>284</ele>
        <time>2013-06-30T11:04:31Z</time>
      </trkpt>
      <trkpt lat="48.68329" lon="6.13922">
        <ele>283</ele>
        <time>2013-06-30T11:04:33Z</time>
      </trkpt>
      <trkpt lat="48.68319" lon="6.13922">
        <ele>279</ele>
        <time>2013-06-30T11:04:35Z</time>
      </trkpt>
      <trkpt lat="48.68311" lon="6.13927">
        <ele>278</ele>
        <time>2013-06-30T11:04:37Z</time>
      </trkpt>
      <trkpt lat="48.68307" lon="6.1393">
        <ele>278</ele>
        <time>2013-06-30T11:04:38Z</time>
      </trkpt>
      <trkpt lat="48.68301" lon="6.13935">
        <ele>277</ele>
        <time>2013-06-30T11:04:39Z</time>
      </trkpt>
      <trkpt lat="48.68289" lon="6.13946">
        <ele>278</ele>
        <time>2013-06-30T11:04:41Z</time>
      </trkpt>
      <trkpt lat="48.68274" lon="6.1396">
        <ele>277</ele>
        <time>2013-06-30T11:04:43Z</time>
      </trkpt>
      <trkpt lat="48.68246" lon="6.13985">
        <ele>272</ele>
        <time>2013-06-30T11:04:46Z</time>
      </trkpt>
      <trkpt lat="48.68224" lon="6.14002">
        <ele>269</ele>
        <time>2013-06-30T11:04:48Z</time>
      </trkpt>
      <trkpt lat="48.68201" lon="6.1402">
        <ele>267</ele>
        <time>2013-06-30T11:04:50Z</time>
      </trkpt>
      <trkpt lat="48.68179" lon="6.14039">
        <ele>264</ele>
        <time>2013-06-30T11:04:52Z</time>
      </trkpt>
      <trkpt lat="48.68158" lon="6.14056">
        <ele>262</ele>
        <time>2013-06-30T11:04:54Z</time>
      </trkpt>
      <trkpt lat="48.68147" lon="6.14065">
        <ele>262</ele>
        <time>2013-06-30T11:04:55Z</time>
      </trkpt>
      <trkpt lat="48.68136" lon="6.14073">
        <ele>261</ele>
        <time>2013-06-30T11:04:56Z</time>
      </trkpt>
      <trkpt lat="48.68115" lon="6.1409">
        <ele>262</ele>
        <time>2013-06-30T11:04:58Z</time>
      </trkpt>
      <trkpt lat="48.68093" lon="6.14104">
        <ele>260</ele>
        <time>2013-06-30T11:05:00Z</time>
      </trkpt>
      <trkpt lat="48.68082" lon="6.14111">
        <ele>261</ele>
        <time>2013-06-30T11:05:01Z</time>
      </trkpt>
      <trkpt lat="48.6807" lon="6.14117">
        <ele>261</ele>
        <time>2013-06-30T11:05:02Z</time>
      </trkpt>
      <trkpt lat="48.68046" lon="6.14129">
        <ele>258</ele>
        <time>2013-06-30T11:05:04Z</time>
      </trkpt>
      <trkpt lat="48.68024" lon="6.14139">
        <ele>258</ele>
        <time>2013-06-30T11:05:06Z</time>
      </trkpt>
      <trkpt lat="48.68" lon="6.14148">
        <ele>254</ele>
        <time>2013-06-30T11:05:08Z</time>
      </trkpt>
      <trkpt lat="48.67976" lon="6.14158">
        <ele>252</ele>
        <time>2013-06-30T11:05:10Z</time>
      </trkpt>
      <trkpt lat="48.67953" lon="6.14158">
        <ele>250</ele>
        <time>2013-06-30T11:05:12Z</time>
      </trkpt>
      <trkpt lat="48.67944" lon="6.1415">
        <ele>250</ele>
        <time>2013-06-30T11:05:13Z</time>
      </trkpt>
      <trkpt lat="48.67918" lon="6.14139">
        <ele>247</ele>
        <time>2013-06-30T11:05:16Z</time>
      </trkpt>
      <trkpt lat="48.67909" lon="6.14142">
        <ele>248</ele>
        <time>2013-06-30T11:05:17Z</time>
      </trkpt>
      <trkpt lat="48.67888" lon="6.14157">
        <ele>249</ele>
        <time>2013-06-30T11:05:20Z</time>
      </trkpt>
      <trkpt lat="48.67877" lon="6.14167">
        <ele>250</ele>
        <time>2013-06-30T11:05:22Z</time>
      </trkpt>
      <trkpt lat="48.67882" lon="6.14191">
        <ele>248</ele>
        <time>2013-06-30T11:05:26Z</time>
      </trkpt>
      <trkpt lat="48.67891" lon="6.14198">
        <ele>248</ele>
        <time>2013-06-30T11:05:28Z</time>
      </trkpt>
      <trkpt lat="48.67904" lon="6.14216">
        <ele>248</ele>
        <time>2013-06-30T11:05:31Z</time>
      </trkpt>
      <trkpt lat="48.67908" lon="6.14223">
        <ele>248</ele>
        <time>2013-06-30T11:05:32Z</time>
      </trkpt>
      <trkpt lat="48.67917" lon="6.14239">
        <ele>247</ele>
        <time>2013-06-30T11:05:34Z</time>
      </trkpt>
      <trkpt lat="48.67921" lon="6.14248">
        <ele>246</ele>
        <time>2013-06-30T11:05:35Z</time>
      </trkpt>
      <trkpt lat="48.67926" lon="6.14256">
        <ele>245</ele>
        <time>2013-06-30T11:05:36Z</time>
      </trkpt>
      <trkpt lat="48.67937" lon="6.14274">
        <ele>244</ele>
        <time>2013-06-30T11:05:38Z</time>
      </trkpt>
      <trkpt lat="48.67947" lon="6.14292">
        <ele>244</ele>
        <time>2013-06-30T11:05:40Z</time>
      </trkpt>
      <trkpt lat="48.67953" lon="6.14302">
        <ele>244</ele>
        <time>2013-06-30T11:05:41Z</time>
      </trkpt>
      <trkpt lat="48.67959" lon="6.14313">
        <ele>243</ele>
        <time>2013-06-30T11:05:42Z</time>
      </trkpt>
      <trkpt lat="48.6797" lon="6.14334">
        <ele>243</ele>
        <time>2013-06-30T11:05:44Z</time>
      </trkpt>
      <trkpt lat="48.67976" lon="6.14345">
        <ele>242</ele>
        <time>2013-06-30T11:05:45Z</time>
      </trkpt>
      <trkpt lat="48.67983" lon="6.14356">
        <ele>242</ele>
        <time>2013-06-30T11:05:46Z</time>
      </trkpt>
      <trkpt lat="48.67995" lon="6.14378">
        <ele>242</ele>
        <time>2013-06-30T11:05:48Z</time>
      </trkpt>
      <trkpt lat="48.68007" lon="6.14401">
        <ele>242</ele>
        <time>2013-06-30T11:05:50Z</time>
      </trkpt>
      <trkpt lat="48.68019" lon="6.14423">
        <ele>241</ele>
        <time>2013-06-30T11:05:52Z</time>
      </trkpt>
      <trkpt lat="48.68032" lon="6.14446">
        <ele>240</ele>
        <time>2013-06-30T11:05:54Z</time>
      </trkpt>
      <trkpt lat="48.68044" lon="6.14469">
        <ele>240</ele>
        <time>2013-06-30T11:05:56Z</time>
      </trkpt>
      <trkpt lat="48.68049" lon="6.1448">
        <ele>240</ele>
        <time>2013-06-30T11:05:57Z</time>
      </trkpt>
      <trkpt lat="48.68055" lon="6.14491">
        <ele>239</ele>
        <time>2013-06-30T11:05:58Z</time>
      </trkpt>
      <trkpt lat="48.68066" lon="6.14514">
        <ele>239</ele>
        <time>2013-06-30T11:06:00Z</time>
      </trkpt>
      <trkpt lat="48.68084" lon="6.14548">
        <ele>239</ele>
        <time>2013-06-30T11:06:03Z</time>
      </trkpt>
      <trkpt lat="48.6809" lon="6.14559">
        <ele>238</ele>
        <time>2013-06-30T11:06:04Z</time>
      </trkpt>
      <trkpt lat="48.68102" lon="6.14582">
        <ele>238</ele>
        <time>2013-06-30T11:06:06Z</time>
      </trkpt>
      <trkpt lat="48.68113" lon="6.14604">
        <ele>237</ele>
        <time>2013-06-30T11:06:08Z</time>
      </trkpt>
      <trkpt lat="48.68119" lon="6.14615">
        <ele>238</ele>
        <time>2013-06-30T11:06:09Z</time>
      </trkpt>
      <trkpt lat="48.68124" lon="6.14625">
        <ele>237</ele>
        <time>2013-06-30T11:06:10Z</time>
      </trkpt>
      <trkpt lat="48.68135" lon="6.14645">
        <ele>238</ele>
        <time>2013-06-30T11:06:12Z</time>
      </trkpt>
      <trkpt lat="48.68145" lon="6.14664">
        <ele>239</ele>
        <time>2013-06-30T11:06:14Z</time>
      </trkpt>
      <trkpt lat="48.6815" lon="6.14674">
        <ele>239</ele>
        <time>2013-06-30T11:06:15Z</time>
      </trkpt>
      <trkpt lat="48.68154" lon="6.14683">
        <ele>239</ele>
        <time>2013-06-30T11:06:16Z</time>
      </trkpt>
      <trkpt lat="48.68162" lon="6.14699">
        <ele>239</ele>
        <time>2013-06-30T11:06:18Z</time>
      </trkpt>
      <trkpt lat="48.68166" lon="6.14708">
        <ele>240</ele>
        <time>2013-06-30T11:06:19Z</time>
      </trkpt>
      <trkpt lat="48.68169" lon="6.14717">
        <ele>240</ele>
        <time>2013-06-30T11:06:20Z</time>
      </trkpt>
      <trkpt lat="48.68178" lon="6.14734">
        <ele>239</ele>
        <time>2013-06-30T11:06:22Z</time>
      </trkpt>
      <trkpt lat="48.68187" lon="6.1475">
        <ele>240</ele>
        <time>2013-06-30T11:06:24Z</time>
      </trkpt>
      <trkpt lat="48.68192" lon="6.14758">
        <ele>239</ele>
        <time>2013-06-30T11:06:25Z</time>
      </trkpt>
      <trkpt lat="48.68197" lon="6.14767">
        <ele>239</ele>
        <time>2013-06-30T11:06:26Z</time>
      </trkpt>
      <trkpt lat="48.68206" lon="6.14785">
        <ele>238</ele>
        <time>2013-06-30T11:06:28Z</time>
      </trkpt>
      <trkpt lat="48.68216" lon="6.14803">
        <ele>238</ele>
        <time>2013-06-30T11:06:30Z</time>
      </trkpt>
      <trkpt lat="48.68222" lon="6.14812">
        <ele>237</ele>
        <time>2013-06-30T11:06:31Z</time>
      </trkpt>
      <trkpt lat="48.68227" lon="6.14822">
        <ele>236</ele>
        <time>2013-06-30T11:06:32Z</time>
      </trkpt>
      <trkpt lat="48.68232" lon="6.14832">
        <ele>236</ele>
        <time>2013-06-30T11:06:33Z</time>
      </trkpt>
      <trkpt lat="48.6825" lon="6.14859">
        <ele>239</ele>
        <time>2013-06-30T11:06:36Z</time>
      </trkpt>
      <trkpt lat="48.68258" lon="6.1488">
        <ele>239</ele>
        <time>2013-06-30T11:06:38Z</time>
      </trkpt>
      <trkpt lat="48.68262" lon="6.14893">
        <ele>238</ele>
        <time>2013-06-30T11:06:39Z</time>
      </trkpt>
      <trkpt lat="48.68267" lon="6.14905">
        <ele>236</ele>
        <time>2013-06-30T11:06:40Z</time>
      </trkpt>
      <trkpt lat="48.68281" lon="6.14924">
        <ele>237</ele>
        <time>2013-06-30T11:06:42Z</time>
      </trkpt>
      <trkpt lat="48.68297" lon="6.14942">
        <ele>236</ele>
        <time>2013-06-30T11:06:44Z</time>
      </trkpt>
      <trkpt lat="48.68305" lon="6.14951">
        <ele>235</ele>
        <time>2013-06-30T11:06:45Z</time>
      </trkpt>
      <trkpt lat="48.68313" lon="6.1496">
        <ele>234</ele>
        <time>2013-06-30T11:06:46Z</time>
      </trkpt>
      <trkpt lat="48.68327" lon="6.1498">
        <ele>233</ele>
        <time>2013-06-30T11:06:48Z</time>
      </trkpt>
      <trkpt lat="48.68333" lon="6.14989">
        <ele>233</ele>
        <time>2013-06-30T11:06:49Z</time>
      </trkpt>
      <trkpt lat="48.68352" lon="6.15019">
        <ele>233</ele>
        <time>2013-06-30T11:06:52Z</time>
      </trkpt>
      <trkpt lat="48.68364" lon="6.15038">
        <ele>233</ele>
        <time>2013-06-30T11:06:54Z</time>
      </trkpt>
      <trkpt lat="48.68387" lon="6.1508">
        <ele>229</ele>
        <time>2013-06-30T11:06:58Z</time>
      </trkpt>
      <trkpt lat="48.68398" lon="6.15102">
        <ele>228</ele>
        <time>2013-06-30T11:07:00Z</time>
      </trkpt>
      <trkpt lat="48.68409" lon="6.15137">
        <ele>228</ele>
        <time>2013-06-30T11:07:03Z</time>
      </trkpt>
      <trkpt lat="48.68412" lon="6.15149">
        <ele>228</ele>
        <time>2013-06-30T11:07:04Z</time>
      </trkpt>
      <trkpt lat="48.68417" lon="6.15174">
        <ele>228</ele>
        <time>2013-06-30T11:07:06Z</time>
      </trkpt>
      <trkpt lat="48.68426" lon="6.15209">
        <ele>228</ele>
        <time>2013-06-30T11:07:09Z</time>
      </trkpt>
      <trkpt lat="48.68429" lon="6.15221">
        <ele>227</ele>
        <time>2013-06-30T11:07:10Z</time>
      </trkpt>
      <trkpt lat="48.68434" lon="6.15246">
        <ele>227</ele>
        <time>2013-06-30T11:07:12Z</time>
      </trkpt>
      <trkpt lat="48.6844" lon="6.15269">
        <ele>228</ele>
        <time>2013-06-30T11:07:14Z</time>
      </trkpt>
      <trkpt lat="48.68445" lon="6.15292">
        <ele>228</ele>
        <time>2013-06-30T11:07:16Z</time>
      </trkpt>
      <trkpt lat="48.6845" lon="6.15314">
        <ele>229</ele>
        <time>2013-06-30T11:07:18Z</time>
      </trkpt>
      <trkpt lat="48.68453" lon="6.15326">
        <ele>229</ele>
        <time>2013-06-30T11:07:19Z</time>
      </trkpt>
      <trkpt lat="48.68455" lon="6.15337">
        <ele>228</ele>
        <time>2013-06-30T11:07:20Z</time>
      </trkpt>
      <trkpt lat="48.68459" lon="6.15359">
        <ele>228</ele>
        <time>2013-06-30T11:07:22Z</time>
      </trkpt>
      <trkpt lat="48.68464" lon="6.15383">
        <ele>228</ele>
        <time>2013-06-30T11:07:24Z</time>
      </trkpt>
      <trkpt lat="48.68466" lon="6.15394">
        <ele>228</ele>
        <time>2013-06-30T11:07:25Z</time>
      </trkpt>
      <trkpt lat="48.68468" lon="6.15406">
        <ele>228</ele>
        <time>2013-06-30T11:07:26Z</time>
      </trkpt>
      <trkpt lat="48.68472" lon="6.1544">
        <ele>228</ele>
        <time>2013-06-30T11:07:29Z</time>
      </trkpt>
      <trkpt lat="48.68473" lon="6.15451">
        <ele>227</ele>
        <time>2013-06-30T11:07:30Z</time>
      </trkpt>
      <trkpt lat="48.68475" lon="6.15474">
        <ele>227</ele>
        <time>2013-06-30T11:07:32Z</time>
      </trkpt>
      <trkpt lat="48.68478" lon="6.15494">
        <ele>228</ele>
        <time>2013-06-30T11:07:34Z</time>
      </trkpt>
      <trkpt lat="48.68479" lon="6.15505">
        <ele>229</ele>
        <time>2013-06-30T11:07:35Z</time>
      </trkpt>
      <trkpt lat="48.6848" lon="6.15516">
        <ele>230</ele>
        <time>2013-06-30T11:07:36Z</time>
      </trkpt>
      <trkpt lat="48.6848" lon="6.15539">
        <ele>230</ele>
        <time>2013-06-30T11:07:38Z</time>
      </trkpt>
      <trkpt lat="48.68478" lon="6.15563">
        <ele>228</ele>
        <time>2013-06-30T11:07:40Z</time>
      </trkpt>
      <trkpt lat="48.68478" lon="6.15575">
        <ele>227</ele>
        <time>2013-06-30T11:07:41Z</time>
      </trkpt>
      <trkpt lat="48.68478" lon="6.15586">
        <ele>228</ele>
        <time>2013-06-30T11:07:42Z</time>
      </trkpt>
      <trkpt lat="48.68475" lon="6.15609">
        <ele>226</ele>
        <time>2013-06-30T11:07:44Z</time>
      </trkpt>
      <trkpt lat="48.68472" lon="6.15632">
        <ele>226</ele>
        <time>2013-06-30T11:07:46Z</time>
      </trkpt>
      <trkpt lat="48.6847" lon="6.15655">
        <ele>227</ele>
        <time>2013-06-30T11:07:48Z</time>
      </trkpt>
      <trkpt lat="48.68466" lon="6.15676">
        <ele>229</ele>
        <time>2013-06-30T11:07:50Z</time>
      </trkpt>
      <trkpt lat="48.68464" lon="6.15687">
        <ele>230</ele>
        <time>2013-06-30T11:07:51Z</time>
      </trkpt>
      <trkpt lat="48.68462" lon="6.15696">
        <ele>231</ele>
        <time>2013-06-30T11:07:52Z</time>
      </trkpt>
      <trkpt lat="48.68459" lon="6.15718">
        <ele>234</ele>
        <time>2013-06-30T11:07:54Z</time>
      </trkpt>
      <trkpt lat="48.68454" lon="6.15743">
        <ele>232</ele>
        <time>2013-06-30T11:07:56Z</time>
      </trkpt>
      <trkpt lat="48.68453" lon="6.15756">
        <ele>232</ele>
        <time>2013-06-30T11:07:57Z</time>
      </trkpt>
      <trkpt lat="48.68452" lon="6.1577">
        <ele>230</ele>
        <time>2013-06-30T11:07:58Z</time>
      </trkpt>
      <trkpt lat="48.68453" lon="6.15797">
        <ele>229</ele>
        <time>2013-06-30T11:08:00Z</time>
      </trkpt>
      <trkpt lat="48.68465" lon="6.15844">
        <ele>225</ele>
        <time>2013-06-30T11:08:04Z</time>
      </trkpt>
      <trkpt lat="48.68472" lon="6.15867">
        <ele>224</ele>
        <time>2013-06-30T11:08:06Z</time>
      </trkpt>
      <trkpt lat="48.68479" lon="6.15887">
        <ele>225</ele>
        <time>2013-06-30T11:08:08Z</time>
      </trkpt>
      <trkpt lat="48.68482" lon="6.15897">
        <ele>226</ele>
        <time>2013-06-30T11:08:09Z</time>
      </trkpt>
      <trkpt lat="48.68485" lon="6.15906">
        <ele>226</ele>
        <time>2013-06-30T11:08:10Z</time>
      </trkpt>
      <trkpt lat="48.6849" lon="6.15923">
        <ele>227</ele>
        <time>2013-06-30T11:08:12Z</time>
      </trkpt>
      <trkpt lat="48.68495" lon="6.15938">
        <ele>228</ele>
        <time>2013-06-30T11:08:14Z</time>
      </trkpt>
      <trkpt lat="48.685" lon="6.15951">
        <ele>228</ele>
        <time>2013-06-30T11:08:16Z</time>
      </trkpt>
      <trkpt lat="48.6851" lon="6.15972">
        <ele>228</ele>
        <time>2013-06-30T11:08:20Z</time>
      </trkpt>
      <trkpt lat="48.68515" lon="6.15981">
        <ele>229</ele>
        <time>2013-06-30T11:08:22Z</time>
      </trkpt>
      <trkpt lat="48.68523" lon="6.15987">
        <ele>227</ele>
        <time>2013-06-30T11:08:24Z</time>
      </trkpt>
    </trkseg>
  </trk>
</gpx>